<?xml version="1.0" encoding="UTF-8" standalone="no" ?>
<gpx xmlns="http://www.topografix.com/GPX/1/1" xmlns:xsi="http://www.w3.org/2001/XMLSchema-instance" xsi:schemaLocation="http://www.topografix.com/GPX/1/1 http://www.topografix.com/GPX/1/1/gpx.xsd" version="1.1" creator="VisuGPX - https://www.visugpx.com">
  <metadata>
    <name>Randonnée du 29/07/2022 à 13:05</name>
    <desc><![CDATA[De Carentan à Portbail en suivant la Véloroute]]></desc>
  </metadata>
  <trk>
    <name><![CDATA[Randonnée du 29/07/2022 à 13:05]]></name>
    <trkseg>
      <trkpt lat="49.30222" lon="-1.24539">
        <ele>4</ele>
        <time>2022-07-30T08:41:37+02:00</time>
      </trkpt>
      <trkpt lat="49.30232" lon="-1.24572">
        <ele>7</ele>
        <time>2022-07-30T08:41:37+02:00</time>
      </trkpt>
      <trkpt lat="49.30243" lon="-1.24601">
        <ele>7</ele>
        <time>2022-07-30T08:41:37+02:00</time>
      </trkpt>
      <trkpt lat="49.30246" lon="-1.24636">
        <ele>6</ele>
        <time>2022-07-30T08:41:37+02:00</time>
      </trkpt>
      <trkpt lat="49.30256" lon="-1.24668">
        <ele>7</ele>
        <time>2022-07-30T08:41:37+02:00</time>
      </trkpt>
      <trkpt lat="49.30266" lon="-1.24703">
        <ele>7</ele>
        <time>2022-07-30T08:41:37+02:00</time>
      </trkpt>
      <trkpt lat="49.30274" lon="-1.24736">
        <ele>7</ele>
        <time>2022-07-30T08:41:37+02:00</time>
      </trkpt>
      <trkpt lat="49.30282" lon="-1.24769">
        <ele>8</ele>
        <time>2022-07-30T08:41:37+02:00</time>
      </trkpt>
      <trkpt lat="49.3029" lon="-1.24804">
        <ele>8</ele>
        <time>2022-07-30T08:41:37+02:00</time>
      </trkpt>
      <trkpt lat="49.30301" lon="-1.24837">
        <ele>8</ele>
        <time>2022-07-30T08:41:37+02:00</time>
      </trkpt>
      <trkpt lat="49.30311" lon="-1.24873">
        <ele>8</ele>
        <time>2022-07-30T08:41:37+02:00</time>
      </trkpt>
      <trkpt lat="49.30321" lon="-1.24909">
        <ele>9</ele>
        <time>2022-07-30T08:41:37+02:00</time>
      </trkpt>
      <trkpt lat="49.30331" lon="-1.24945">
        <ele>9</ele>
        <time>2022-07-30T08:41:37+02:00</time>
      </trkpt>
      <trkpt lat="49.30337" lon="-1.24982">
        <ele>10</ele>
        <time>2022-07-30T08:41:37+02:00</time>
      </trkpt>
      <trkpt lat="49.30336" lon="-1.25016">
        <ele>11</ele>
        <time>2022-07-30T08:41:37+02:00</time>
      </trkpt>
      <trkpt lat="49.30354" lon="-1.25051">
        <ele>10</ele>
        <time>2022-07-30T08:41:37+02:00</time>
      </trkpt>
      <trkpt lat="49.30366" lon="-1.2508">
        <ele>9</ele>
        <time>2022-07-30T08:41:37+02:00</time>
      </trkpt>
      <trkpt lat="49.30372" lon="-1.25116">
        <ele>9</ele>
        <time>2022-07-30T08:41:37+02:00</time>
      </trkpt>
      <trkpt lat="49.30381" lon="-1.25154">
        <ele>8</ele>
        <time>2022-07-30T08:41:37+02:00</time>
      </trkpt>
      <trkpt lat="49.3039" lon="-1.25189">
        <ele>8</ele>
        <time>2022-07-30T08:41:37+02:00</time>
      </trkpt>
      <trkpt lat="49.30401" lon="-1.25225">
        <ele>8</ele>
        <time>2022-07-30T08:41:37+02:00</time>
      </trkpt>
      <trkpt lat="49.3041" lon="-1.25257">
        <ele>8</ele>
        <time>2022-07-30T08:41:37+02:00</time>
      </trkpt>
      <trkpt lat="49.30416" lon="-1.25292">
        <ele>8</ele>
        <time>2022-07-30T08:41:37+02:00</time>
      </trkpt>
      <trkpt lat="49.30423" lon="-1.2533">
        <ele>10</ele>
        <time>2022-07-30T08:41:37+02:00</time>
      </trkpt>
      <trkpt lat="49.30426" lon="-1.25366">
        <ele>10</ele>
        <time>2022-07-30T08:41:37+02:00</time>
      </trkpt>
      <trkpt lat="49.30431" lon="-1.25403">
        <ele>10</ele>
        <time>2022-07-30T08:41:37+02:00</time>
      </trkpt>
      <trkpt lat="49.30435" lon="-1.25439">
        <ele>10</ele>
        <time>2022-07-30T08:41:37+02:00</time>
      </trkpt>
      <trkpt lat="49.30439" lon="-1.25477">
        <ele>10</ele>
        <time>2022-07-30T08:41:37+02:00</time>
      </trkpt>
      <trkpt lat="49.30443" lon="-1.25512">
        <ele>9</ele>
        <time>2022-07-30T08:41:37+02:00</time>
      </trkpt>
      <trkpt lat="49.30447" lon="-1.25548">
        <ele>9</ele>
        <time>2022-07-30T08:41:37+02:00</time>
      </trkpt>
      <trkpt lat="49.30453" lon="-1.25586">
        <ele>9</ele>
        <time>2022-07-30T08:41:37+02:00</time>
      </trkpt>
      <trkpt lat="49.30455" lon="-1.25622">
        <ele>9</ele>
        <time>2022-07-30T08:41:37+02:00</time>
      </trkpt>
      <trkpt lat="49.30455" lon="-1.25657">
        <ele>8</ele>
        <time>2022-07-30T08:41:37+02:00</time>
      </trkpt>
      <trkpt lat="49.30458" lon="-1.25694">
        <ele>9</ele>
        <time>2022-07-30T08:41:37+02:00</time>
      </trkpt>
      <trkpt lat="49.30459" lon="-1.25729">
        <ele>9</ele>
        <time>2022-07-30T08:41:37+02:00</time>
      </trkpt>
      <trkpt lat="49.30459" lon="-1.25764">
        <ele>8</ele>
        <time>2022-07-30T08:41:37+02:00</time>
      </trkpt>
      <trkpt lat="49.30459" lon="-1.25802">
        <ele>8</ele>
        <time>2022-07-30T08:41:37+02:00</time>
      </trkpt>
      <trkpt lat="49.30459" lon="-1.25839">
        <ele>8</ele>
        <time>2022-07-30T08:41:37+02:00</time>
      </trkpt>
      <trkpt lat="49.3046" lon="-1.25877">
        <ele>9</ele>
        <time>2022-07-30T08:41:37+02:00</time>
      </trkpt>
      <trkpt lat="49.30458" lon="-1.25915">
        <ele>9</ele>
        <time>2022-07-30T08:41:37+02:00</time>
      </trkpt>
      <trkpt lat="49.30457" lon="-1.25952">
        <ele>8</ele>
        <time>2022-07-30T08:41:37+02:00</time>
      </trkpt>
      <trkpt lat="49.30456" lon="-1.25991">
        <ele>8</ele>
        <time>2022-07-30T08:41:37+02:00</time>
      </trkpt>
      <trkpt lat="49.30454" lon="-1.26029">
        <ele>8</ele>
        <time>2022-07-30T08:41:37+02:00</time>
      </trkpt>
      <trkpt lat="49.30451" lon="-1.26067">
        <ele>9</ele>
        <time>2022-07-30T08:41:37+02:00</time>
      </trkpt>
      <trkpt lat="49.30449" lon="-1.26105">
        <ele>8</ele>
        <time>2022-07-30T08:41:37+02:00</time>
      </trkpt>
      <trkpt lat="49.30447" lon="-1.2614">
        <ele>9</ele>
        <time>2022-07-30T08:41:37+02:00</time>
      </trkpt>
      <trkpt lat="49.30444" lon="-1.26176">
        <ele>9</ele>
        <time>2022-07-30T08:41:37+02:00</time>
      </trkpt>
      <trkpt lat="49.30441" lon="-1.26214">
        <ele>8</ele>
        <time>2022-07-30T08:41:37+02:00</time>
      </trkpt>
      <trkpt lat="49.30437" lon="-1.2625">
        <ele>8</ele>
        <time>2022-07-30T08:41:37+02:00</time>
      </trkpt>
      <trkpt lat="49.30436" lon="-1.26286">
        <ele>9</ele>
        <time>2022-07-30T08:41:37+02:00</time>
      </trkpt>
      <trkpt lat="49.3043" lon="-1.26323">
        <ele>8</ele>
        <time>2022-07-30T08:41:37+02:00</time>
      </trkpt>
      <trkpt lat="49.30427" lon="-1.2636">
        <ele>8</ele>
        <time>2022-07-30T08:41:37+02:00</time>
      </trkpt>
      <trkpt lat="49.30423" lon="-1.26397">
        <ele>7</ele>
        <time>2022-07-30T08:41:37+02:00</time>
      </trkpt>
      <trkpt lat="49.3042" lon="-1.26432">
        <ele>6</ele>
        <time>2022-07-30T08:41:37+02:00</time>
      </trkpt>
      <trkpt lat="49.30417" lon="-1.26468">
        <ele>6</ele>
        <time>2022-07-30T08:41:37+02:00</time>
      </trkpt>
      <trkpt lat="49.30414" lon="-1.26505">
        <ele>6</ele>
        <time>2022-07-30T08:41:37+02:00</time>
      </trkpt>
      <trkpt lat="49.30411" lon="-1.26542">
        <ele>6</ele>
        <time>2022-07-30T08:41:37+02:00</time>
      </trkpt>
      <trkpt lat="49.30407" lon="-1.26582">
        <ele>7</ele>
        <time>2022-07-30T08:41:37+02:00</time>
      </trkpt>
      <trkpt lat="49.30403" lon="-1.26622">
        <ele>8</ele>
        <time>2022-07-30T08:41:37+02:00</time>
      </trkpt>
      <trkpt lat="49.304" lon="-1.26662">
        <ele>8</ele>
        <time>2022-07-30T08:41:37+02:00</time>
      </trkpt>
      <trkpt lat="49.30397" lon="-1.26706">
        <ele>8</ele>
        <time>2022-07-30T08:41:37+02:00</time>
      </trkpt>
      <trkpt lat="49.30393" lon="-1.26746">
        <ele>9</ele>
        <time>2022-07-30T08:41:37+02:00</time>
      </trkpt>
      <trkpt lat="49.30388" lon="-1.26787">
        <ele>9</ele>
        <time>2022-07-30T08:41:37+02:00</time>
      </trkpt>
      <trkpt lat="49.30386" lon="-1.26822">
        <ele>9</ele>
        <time>2022-07-30T08:41:37+02:00</time>
      </trkpt>
      <trkpt lat="49.30382" lon="-1.26864">
        <ele>9</ele>
        <time>2022-07-30T08:41:37+02:00</time>
      </trkpt>
      <trkpt lat="49.30378" lon="-1.26905">
        <ele>9</ele>
        <time>2022-07-30T08:41:37+02:00</time>
      </trkpt>
      <trkpt lat="49.30375" lon="-1.26943">
        <ele>9</ele>
        <time>2022-07-30T08:41:37+02:00</time>
      </trkpt>
      <trkpt lat="49.30371" lon="-1.26978">
        <ele>9</ele>
        <time>2022-07-30T08:41:37+02:00</time>
      </trkpt>
      <trkpt lat="49.30369" lon="-1.27014">
        <ele>9</ele>
        <time>2022-07-30T08:41:37+02:00</time>
      </trkpt>
      <trkpt lat="49.30368" lon="-1.27057">
        <ele>7</ele>
        <time>2022-07-30T08:41:37+02:00</time>
      </trkpt>
      <trkpt lat="49.30364" lon="-1.27097">
        <ele>7</ele>
        <time>2022-07-30T08:41:37+02:00</time>
      </trkpt>
      <trkpt lat="49.3036" lon="-1.27135">
        <ele>6</ele>
        <time>2022-07-30T08:41:37+02:00</time>
      </trkpt>
      <trkpt lat="49.30356" lon="-1.27173">
        <ele>6</ele>
        <time>2022-07-30T08:41:37+02:00</time>
      </trkpt>
      <trkpt lat="49.30354" lon="-1.2721">
        <ele>5</ele>
        <time>2022-07-30T08:41:37+02:00</time>
      </trkpt>
      <trkpt lat="49.3035" lon="-1.27246">
        <ele>5</ele>
        <time>2022-07-30T08:41:37+02:00</time>
      </trkpt>
      <trkpt lat="49.30347" lon="-1.27281">
        <ele>5</ele>
        <time>2022-07-30T08:41:37+02:00</time>
      </trkpt>
      <trkpt lat="49.30343" lon="-1.27321">
        <ele>6</ele>
        <time>2022-07-30T08:41:37+02:00</time>
      </trkpt>
      <trkpt lat="49.30339" lon="-1.27355">
        <ele>5</ele>
        <time>2022-07-30T08:41:37+02:00</time>
      </trkpt>
      <trkpt lat="49.30335" lon="-1.2739">
        <ele>5</ele>
        <time>2022-07-30T08:41:37+02:00</time>
      </trkpt>
      <trkpt lat="49.30332" lon="-1.27428">
        <ele>5</ele>
        <time>2022-07-30T08:41:37+02:00</time>
      </trkpt>
      <trkpt lat="49.3033" lon="-1.27464">
        <ele>6</ele>
        <time>2022-07-30T08:41:37+02:00</time>
      </trkpt>
      <trkpt lat="49.30325" lon="-1.275">
        <ele>7</ele>
        <time>2022-07-30T08:41:37+02:00</time>
      </trkpt>
      <trkpt lat="49.30324" lon="-1.27536">
        <ele>6</ele>
        <time>2022-07-30T08:41:37+02:00</time>
      </trkpt>
      <trkpt lat="49.30321" lon="-1.27573">
        <ele>5</ele>
        <time>2022-07-30T08:41:37+02:00</time>
      </trkpt>
      <trkpt lat="49.30317" lon="-1.2761">
        <ele>5</ele>
        <time>2022-07-30T08:41:37+02:00</time>
      </trkpt>
      <trkpt lat="49.30314" lon="-1.27648">
        <ele>7</ele>
        <time>2022-07-30T08:41:37+02:00</time>
      </trkpt>
      <trkpt lat="49.30313" lon="-1.27684">
        <ele>8</ele>
        <time>2022-07-30T08:41:37+02:00</time>
      </trkpt>
      <trkpt lat="49.30309" lon="-1.27718">
        <ele>9</ele>
        <time>2022-07-30T08:41:37+02:00</time>
      </trkpt>
      <trkpt lat="49.30306" lon="-1.27758">
        <ele>9</ele>
        <time>2022-07-30T08:41:37+02:00</time>
      </trkpt>
      <trkpt lat="49.30301" lon="-1.27794">
        <ele>11</ele>
        <time>2022-07-30T08:41:37+02:00</time>
      </trkpt>
      <trkpt lat="49.30298" lon="-1.2783">
        <ele>13</ele>
        <time>2022-07-30T08:41:37+02:00</time>
      </trkpt>
      <trkpt lat="49.30297" lon="-1.27867">
        <ele>14</ele>
        <time>2022-07-30T08:41:37+02:00</time>
      </trkpt>
      <trkpt lat="49.30294" lon="-1.27901">
        <ele>15</ele>
        <time>2022-07-30T08:41:37+02:00</time>
      </trkpt>
      <trkpt lat="49.30289" lon="-1.27942">
        <ele>17</ele>
        <time>2022-07-30T08:41:37+02:00</time>
      </trkpt>
      <trkpt lat="49.30285" lon="-1.27982">
        <ele>17</ele>
        <time>2022-07-30T08:41:37+02:00</time>
      </trkpt>
      <trkpt lat="49.30283" lon="-1.28022">
        <ele>17</ele>
        <time>2022-07-30T08:41:37+02:00</time>
      </trkpt>
      <trkpt lat="49.30279" lon="-1.28061">
        <ele>16</ele>
        <time>2022-07-30T08:41:37+02:00</time>
      </trkpt>
      <trkpt lat="49.30275" lon="-1.28101">
        <ele>16</ele>
        <time>2022-07-30T08:41:37+02:00</time>
      </trkpt>
      <trkpt lat="49.30273" lon="-1.28138">
        <ele>14</ele>
        <time>2022-07-30T08:41:37+02:00</time>
      </trkpt>
      <trkpt lat="49.3027" lon="-1.2818">
        <ele>14</ele>
        <time>2022-07-30T08:41:37+02:00</time>
      </trkpt>
      <trkpt lat="49.30266" lon="-1.28214">
        <ele>14</ele>
        <time>2022-07-30T08:41:37+02:00</time>
      </trkpt>
      <trkpt lat="49.30261" lon="-1.28251">
        <ele>14</ele>
        <time>2022-07-30T08:41:37+02:00</time>
      </trkpt>
      <trkpt lat="49.30259" lon="-1.28289">
        <ele>13</ele>
        <time>2022-07-30T08:41:37+02:00</time>
      </trkpt>
      <trkpt lat="49.30258" lon="-1.28329">
        <ele>13</ele>
        <time>2022-07-30T08:41:37+02:00</time>
      </trkpt>
      <trkpt lat="49.30254" lon="-1.28364">
        <ele>12</ele>
        <time>2022-07-30T08:41:37+02:00</time>
      </trkpt>
      <trkpt lat="49.3025" lon="-1.284">
        <ele>11</ele>
        <time>2022-07-30T08:41:37+02:00</time>
      </trkpt>
      <trkpt lat="49.30248" lon="-1.28435">
        <ele>12</ele>
        <time>2022-07-30T08:41:37+02:00</time>
      </trkpt>
      <trkpt lat="49.30243" lon="-1.28473">
        <ele>13</ele>
        <time>2022-07-30T08:41:37+02:00</time>
      </trkpt>
      <trkpt lat="49.30239" lon="-1.28512">
        <ele>13</ele>
        <time>2022-07-30T08:41:37+02:00</time>
      </trkpt>
      <trkpt lat="49.30236" lon="-1.28547">
        <ele>12</ele>
        <time>2022-07-30T08:41:37+02:00</time>
      </trkpt>
      <trkpt lat="49.30231" lon="-1.28588">
        <ele>14</ele>
        <time>2022-07-30T08:41:37+02:00</time>
      </trkpt>
      <trkpt lat="49.30227" lon="-1.28628">
        <ele>14</ele>
        <time>2022-07-30T08:41:37+02:00</time>
      </trkpt>
      <trkpt lat="49.30225" lon="-1.28666">
        <ele>15</ele>
        <time>2022-07-30T08:41:37+02:00</time>
      </trkpt>
      <trkpt lat="49.30223" lon="-1.28704">
        <ele>16</ele>
        <time>2022-07-30T08:41:37+02:00</time>
      </trkpt>
      <trkpt lat="49.3022" lon="-1.28741">
        <ele>16</ele>
        <time>2022-07-30T08:41:37+02:00</time>
      </trkpt>
      <trkpt lat="49.30218" lon="-1.28779">
        <ele>16</ele>
        <time>2022-07-30T08:41:37+02:00</time>
      </trkpt>
      <trkpt lat="49.30213" lon="-1.28819">
        <ele>16</ele>
        <time>2022-07-30T08:41:37+02:00</time>
      </trkpt>
      <trkpt lat="49.30212" lon="-1.28856">
        <ele>15</ele>
        <time>2022-07-30T08:41:37+02:00</time>
      </trkpt>
      <trkpt lat="49.30207" lon="-1.28899">
        <ele>13</ele>
        <time>2022-07-30T08:41:37+02:00</time>
      </trkpt>
      <trkpt lat="49.30203" lon="-1.28939">
        <ele>11</ele>
        <time>2022-07-30T08:41:37+02:00</time>
      </trkpt>
      <trkpt lat="49.302" lon="-1.28976">
        <ele>10</ele>
        <time>2022-07-30T08:41:37+02:00</time>
      </trkpt>
      <trkpt lat="49.30197" lon="-1.29014">
        <ele>9</ele>
        <time>2022-07-30T08:41:37+02:00</time>
      </trkpt>
      <trkpt lat="49.30198" lon="-1.29049">
        <ele>8</ele>
        <time>2022-07-30T08:41:37+02:00</time>
      </trkpt>
      <trkpt lat="49.30191" lon="-1.29086">
        <ele>8</ele>
        <time>2022-07-30T08:41:37+02:00</time>
      </trkpt>
      <trkpt lat="49.30191" lon="-1.29123">
        <ele>8</ele>
        <time>2022-07-30T08:41:37+02:00</time>
      </trkpt>
      <trkpt lat="49.30188" lon="-1.29164">
        <ele>9</ele>
        <time>2022-07-30T08:41:37+02:00</time>
      </trkpt>
      <trkpt lat="49.30185" lon="-1.29199">
        <ele>8</ele>
        <time>2022-07-30T08:41:37+02:00</time>
      </trkpt>
      <trkpt lat="49.3018" lon="-1.29234">
        <ele>8</ele>
        <time>2022-07-30T08:41:37+02:00</time>
      </trkpt>
      <trkpt lat="49.30174" lon="-1.29275">
        <ele>9</ele>
        <time>2022-07-30T08:41:37+02:00</time>
      </trkpt>
      <trkpt lat="49.30171" lon="-1.29317">
        <ele>8</ele>
        <time>2022-07-30T08:41:37+02:00</time>
      </trkpt>
      <trkpt lat="49.30168" lon="-1.29353">
        <ele>8</ele>
        <time>2022-07-30T08:41:37+02:00</time>
      </trkpt>
      <trkpt lat="49.30164" lon="-1.29388">
        <ele>10</ele>
        <time>2022-07-30T08:41:37+02:00</time>
      </trkpt>
      <trkpt lat="49.30162" lon="-1.29427">
        <ele>9</ele>
        <time>2022-07-30T08:41:37+02:00</time>
      </trkpt>
      <trkpt lat="49.30161" lon="-1.29466">
        <ele>9</ele>
        <time>2022-07-30T08:41:37+02:00</time>
      </trkpt>
      <trkpt lat="49.30161" lon="-1.29502">
        <ele>7</ele>
        <time>2022-07-30T08:41:37+02:00</time>
      </trkpt>
      <trkpt lat="49.3016" lon="-1.29538">
        <ele>7</ele>
        <time>2022-07-30T08:41:37+02:00</time>
      </trkpt>
      <trkpt lat="49.30159" lon="-1.29578">
        <ele>7</ele>
        <time>2022-07-30T08:41:37+02:00</time>
      </trkpt>
      <trkpt lat="49.3016" lon="-1.29613">
        <ele>8</ele>
        <time>2022-07-30T08:41:37+02:00</time>
      </trkpt>
      <trkpt lat="49.30155" lon="-1.29649">
        <ele>6</ele>
        <time>2022-07-30T08:41:37+02:00</time>
      </trkpt>
      <trkpt lat="49.30156" lon="-1.29691">
        <ele>6</ele>
        <time>2022-07-30T08:41:37+02:00</time>
      </trkpt>
      <trkpt lat="49.30155" lon="-1.2973">
        <ele>6</ele>
        <time>2022-07-30T08:41:37+02:00</time>
      </trkpt>
      <trkpt lat="49.30156" lon="-1.29768">
        <ele>6</ele>
        <time>2022-07-30T08:41:37+02:00</time>
      </trkpt>
      <trkpt lat="49.30157" lon="-1.29803">
        <ele>7</ele>
        <time>2022-07-30T08:41:37+02:00</time>
      </trkpt>
      <trkpt lat="49.30158" lon="-1.29843">
        <ele>7</ele>
        <time>2022-07-30T08:41:37+02:00</time>
      </trkpt>
      <trkpt lat="49.30159" lon="-1.29881">
        <ele>8</ele>
        <time>2022-07-30T08:41:37+02:00</time>
      </trkpt>
      <trkpt lat="49.30161" lon="-1.29917">
        <ele>8</ele>
        <time>2022-07-30T08:41:37+02:00</time>
      </trkpt>
      <trkpt lat="49.30163" lon="-1.29953">
        <ele>8</ele>
        <time>2022-07-30T08:41:37+02:00</time>
      </trkpt>
      <trkpt lat="49.30166" lon="-1.2999">
        <ele>8</ele>
        <time>2022-07-30T08:41:37+02:00</time>
      </trkpt>
      <trkpt lat="49.30168" lon="-1.3003">
        <ele>8</ele>
        <time>2022-07-30T08:41:37+02:00</time>
      </trkpt>
      <trkpt lat="49.30171" lon="-1.3007">
        <ele>8</ele>
        <time>2022-07-30T08:41:37+02:00</time>
      </trkpt>
      <trkpt lat="49.30173" lon="-1.30111">
        <ele>8</ele>
        <time>2022-07-30T08:41:37+02:00</time>
      </trkpt>
      <trkpt lat="49.30176" lon="-1.30152">
        <ele>9</ele>
        <time>2022-07-30T08:41:37+02:00</time>
      </trkpt>
      <trkpt lat="49.30179" lon="-1.30191">
        <ele>8</ele>
        <time>2022-07-30T08:41:37+02:00</time>
      </trkpt>
      <trkpt lat="49.30181" lon="-1.30227">
        <ele>9</ele>
        <time>2022-07-30T08:41:37+02:00</time>
      </trkpt>
      <trkpt lat="49.30185" lon="-1.30264">
        <ele>10</ele>
        <time>2022-07-30T08:41:37+02:00</time>
      </trkpt>
      <trkpt lat="49.30183" lon="-1.30299">
        <ele>12</ele>
        <time>2022-07-30T08:41:37+02:00</time>
      </trkpt>
      <trkpt lat="49.30187" lon="-1.30334">
        <ele>13</ele>
        <time>2022-07-30T08:41:37+02:00</time>
      </trkpt>
      <trkpt lat="49.30188" lon="-1.30368">
        <ele>14</ele>
        <time>2022-07-30T08:41:37+02:00</time>
      </trkpt>
      <trkpt lat="49.30191" lon="-1.30405">
        <ele>15</ele>
        <time>2022-07-30T08:41:37+02:00</time>
      </trkpt>
      <trkpt lat="49.30193" lon="-1.30444">
        <ele>16</ele>
        <time>2022-07-30T08:41:37+02:00</time>
      </trkpt>
      <trkpt lat="49.30196" lon="-1.30482">
        <ele>16</ele>
        <time>2022-07-30T08:41:37+02:00</time>
      </trkpt>
      <trkpt lat="49.30199" lon="-1.30521">
        <ele>17</ele>
        <time>2022-07-30T08:41:37+02:00</time>
      </trkpt>
      <trkpt lat="49.30199" lon="-1.30556">
        <ele>17</ele>
        <time>2022-07-30T08:41:37+02:00</time>
      </trkpt>
      <trkpt lat="49.30203" lon="-1.30595">
        <ele>18</ele>
        <time>2022-07-30T08:41:37+02:00</time>
      </trkpt>
      <trkpt lat="49.30205" lon="-1.30632">
        <ele>17</ele>
        <time>2022-07-30T08:41:37+02:00</time>
      </trkpt>
      <trkpt lat="49.30209" lon="-1.30673">
        <ele>17</ele>
        <time>2022-07-30T08:41:37+02:00</time>
      </trkpt>
      <trkpt lat="49.30213" lon="-1.30713">
        <ele>16</ele>
        <time>2022-07-30T08:41:37+02:00</time>
      </trkpt>
      <trkpt lat="49.30216" lon="-1.30753">
        <ele>16</ele>
        <time>2022-07-30T08:41:37+02:00</time>
      </trkpt>
      <trkpt lat="49.30218" lon="-1.30793">
        <ele>15</ele>
        <time>2022-07-30T08:41:37+02:00</time>
      </trkpt>
      <trkpt lat="49.30218" lon="-1.30828">
        <ele>16</ele>
        <time>2022-07-30T08:41:37+02:00</time>
      </trkpt>
      <trkpt lat="49.30221" lon="-1.30867">
        <ele>16</ele>
        <time>2022-07-30T08:41:37+02:00</time>
      </trkpt>
      <trkpt lat="49.30225" lon="-1.30907">
        <ele>15</ele>
        <time>2022-07-30T08:41:37+02:00</time>
      </trkpt>
      <trkpt lat="49.30225" lon="-1.30942">
        <ele>15</ele>
        <time>2022-07-30T08:41:37+02:00</time>
      </trkpt>
      <trkpt lat="49.30228" lon="-1.30978">
        <ele>16</ele>
        <time>2022-07-30T08:41:37+02:00</time>
      </trkpt>
      <trkpt lat="49.30228" lon="-1.31013">
        <ele>14</ele>
        <time>2022-07-30T08:41:37+02:00</time>
      </trkpt>
      <trkpt lat="49.30232" lon="-1.31048">
        <ele>15</ele>
        <time>2022-07-30T08:41:37+02:00</time>
      </trkpt>
      <trkpt lat="49.30234" lon="-1.31084">
        <ele>16</ele>
        <time>2022-07-30T08:41:37+02:00</time>
      </trkpt>
      <trkpt lat="49.30236" lon="-1.31118">
        <ele>15</ele>
        <time>2022-07-30T08:41:37+02:00</time>
      </trkpt>
      <trkpt lat="49.30236" lon="-1.31158">
        <ele>16</ele>
        <time>2022-07-30T08:41:37+02:00</time>
      </trkpt>
      <trkpt lat="49.30238" lon="-1.31194">
        <ele>16</ele>
        <time>2022-07-30T08:41:37+02:00</time>
      </trkpt>
      <trkpt lat="49.3024" lon="-1.31231">
        <ele>15</ele>
        <time>2022-07-30T08:41:37+02:00</time>
      </trkpt>
      <trkpt lat="49.30243" lon="-1.31274">
        <ele>16</ele>
        <time>2022-07-30T08:41:37+02:00</time>
      </trkpt>
      <trkpt lat="49.30245" lon="-1.31313">
        <ele>15</ele>
        <time>2022-07-30T08:41:37+02:00</time>
      </trkpt>
      <trkpt lat="49.30249" lon="-1.31349">
        <ele>16</ele>
        <time>2022-07-30T08:41:37+02:00</time>
      </trkpt>
      <trkpt lat="49.30253" lon="-1.31388">
        <ele>15</ele>
        <time>2022-07-30T08:41:37+02:00</time>
      </trkpt>
      <trkpt lat="49.30255" lon="-1.31425">
        <ele>15</ele>
        <time>2022-07-30T08:41:37+02:00</time>
      </trkpt>
      <trkpt lat="49.30257" lon="-1.31466">
        <ele>15</ele>
        <time>2022-07-30T08:41:37+02:00</time>
      </trkpt>
      <trkpt lat="49.30261" lon="-1.31508">
        <ele>15</ele>
        <time>2022-07-30T08:41:37+02:00</time>
      </trkpt>
      <trkpt lat="49.30262" lon="-1.31544">
        <ele>15</ele>
        <time>2022-07-30T08:41:37+02:00</time>
      </trkpt>
      <trkpt lat="49.30265" lon="-1.31581">
        <ele>14</ele>
        <time>2022-07-30T08:41:37+02:00</time>
      </trkpt>
      <trkpt lat="49.30267" lon="-1.31622">
        <ele>14</ele>
        <time>2022-07-30T08:41:37+02:00</time>
      </trkpt>
      <trkpt lat="49.3027" lon="-1.31658">
        <ele>14</ele>
        <time>2022-07-30T08:41:37+02:00</time>
      </trkpt>
      <trkpt lat="49.30271" lon="-1.31693">
        <ele>13</ele>
        <time>2022-07-30T08:41:37+02:00</time>
      </trkpt>
      <trkpt lat="49.30271" lon="-1.3173">
        <ele>13</ele>
        <time>2022-07-30T08:41:37+02:00</time>
      </trkpt>
      <trkpt lat="49.30276" lon="-1.31766">
        <ele>13</ele>
        <time>2022-07-30T08:41:37+02:00</time>
      </trkpt>
      <trkpt lat="49.3028" lon="-1.318">
        <ele>13</ele>
        <time>2022-07-30T08:41:37+02:00</time>
      </trkpt>
      <trkpt lat="49.30281" lon="-1.31838">
        <ele>13</ele>
        <time>2022-07-30T08:41:37+02:00</time>
      </trkpt>
      <trkpt lat="49.30283" lon="-1.31878">
        <ele>12</ele>
        <time>2022-07-30T08:41:37+02:00</time>
      </trkpt>
      <trkpt lat="49.30286" lon="-1.3192">
        <ele>12</ele>
        <time>2022-07-30T08:41:37+02:00</time>
      </trkpt>
      <trkpt lat="49.30288" lon="-1.31962">
        <ele>12</ele>
        <time>2022-07-30T08:41:37+02:00</time>
      </trkpt>
      <trkpt lat="49.30291" lon="-1.31999">
        <ele>12</ele>
        <time>2022-07-30T08:41:37+02:00</time>
      </trkpt>
      <trkpt lat="49.30294" lon="-1.32036">
        <ele>11</ele>
        <time>2022-07-30T08:41:37+02:00</time>
      </trkpt>
      <trkpt lat="49.30295" lon="-1.32077">
        <ele>11</ele>
        <time>2022-07-30T08:41:37+02:00</time>
      </trkpt>
      <trkpt lat="49.30296" lon="-1.32117">
        <ele>10</ele>
        <time>2022-07-30T08:41:37+02:00</time>
      </trkpt>
      <trkpt lat="49.30299" lon="-1.32154">
        <ele>11</ele>
        <time>2022-07-30T08:41:37+02:00</time>
      </trkpt>
      <trkpt lat="49.30302" lon="-1.32198">
        <ele>11</ele>
        <time>2022-07-30T08:41:37+02:00</time>
      </trkpt>
      <trkpt lat="49.30304" lon="-1.32238">
        <ele>10</ele>
        <time>2022-07-30T08:41:37+02:00</time>
      </trkpt>
      <trkpt lat="49.30307" lon="-1.32273">
        <ele>10</ele>
        <time>2022-07-30T08:41:37+02:00</time>
      </trkpt>
      <trkpt lat="49.30309" lon="-1.32315">
        <ele>10</ele>
        <time>2022-07-30T08:41:37+02:00</time>
      </trkpt>
      <trkpt lat="49.30312" lon="-1.32357">
        <ele>9</ele>
        <time>2022-07-30T08:41:37+02:00</time>
      </trkpt>
      <trkpt lat="49.30314" lon="-1.32395">
        <ele>9</ele>
        <time>2022-07-30T08:41:37+02:00</time>
      </trkpt>
      <trkpt lat="49.30317" lon="-1.32431">
        <ele>9</ele>
        <time>2022-07-30T08:41:37+02:00</time>
      </trkpt>
      <trkpt lat="49.30318" lon="-1.32469">
        <ele>9</ele>
        <time>2022-07-30T08:41:37+02:00</time>
      </trkpt>
      <trkpt lat="49.30321" lon="-1.32504">
        <ele>8</ele>
        <time>2022-07-30T08:41:37+02:00</time>
      </trkpt>
      <trkpt lat="49.30323" lon="-1.32538">
        <ele>8</ele>
        <time>2022-07-30T08:41:37+02:00</time>
      </trkpt>
      <trkpt lat="49.30327" lon="-1.32582">
        <ele>7</ele>
        <time>2022-07-30T08:41:37+02:00</time>
      </trkpt>
      <trkpt lat="49.30331" lon="-1.32623">
        <ele>7</ele>
        <time>2022-07-30T08:41:37+02:00</time>
      </trkpt>
      <trkpt lat="49.30334" lon="-1.32663">
        <ele>6</ele>
        <time>2022-07-30T08:41:37+02:00</time>
      </trkpt>
      <trkpt lat="49.30334" lon="-1.32699">
        <ele>7</ele>
        <time>2022-07-30T08:41:37+02:00</time>
      </trkpt>
      <trkpt lat="49.30337" lon="-1.32735">
        <ele>6</ele>
        <time>2022-07-30T08:41:37+02:00</time>
      </trkpt>
      <trkpt lat="49.3034" lon="-1.32776">
        <ele>6</ele>
        <time>2022-07-30T08:41:37+02:00</time>
      </trkpt>
      <trkpt lat="49.30343" lon="-1.32814">
        <ele>5</ele>
        <time>2022-07-30T08:41:37+02:00</time>
      </trkpt>
      <trkpt lat="49.30345" lon="-1.32849">
        <ele>5</ele>
        <time>2022-07-30T08:41:37+02:00</time>
      </trkpt>
      <trkpt lat="49.30349" lon="-1.32891">
        <ele>5</ele>
        <time>2022-07-30T08:41:37+02:00</time>
      </trkpt>
      <trkpt lat="49.30352" lon="-1.32929">
        <ele>5</ele>
        <time>2022-07-30T08:41:37+02:00</time>
      </trkpt>
      <trkpt lat="49.30353" lon="-1.32965">
        <ele>4</ele>
        <time>2022-07-30T08:41:37+02:00</time>
      </trkpt>
      <trkpt lat="49.30356" lon="-1.33005">
        <ele>5</ele>
        <time>2022-07-30T08:41:37+02:00</time>
      </trkpt>
      <trkpt lat="49.30359" lon="-1.33047">
        <ele>4</ele>
        <time>2022-07-30T08:41:37+02:00</time>
      </trkpt>
      <trkpt lat="49.30361" lon="-1.33086">
        <ele>4</ele>
        <time>2022-07-30T08:41:37+02:00</time>
      </trkpt>
      <trkpt lat="49.30364" lon="-1.33129">
        <ele>5</ele>
        <time>2022-07-30T08:41:37+02:00</time>
      </trkpt>
      <trkpt lat="49.30366" lon="-1.33167">
        <ele>4</ele>
        <time>2022-07-30T08:41:37+02:00</time>
      </trkpt>
      <trkpt lat="49.30369" lon="-1.33207">
        <ele>4</ele>
        <time>2022-07-30T08:41:37+02:00</time>
      </trkpt>
      <trkpt lat="49.30373" lon="-1.33245">
        <ele>4</ele>
        <time>2022-07-30T08:41:37+02:00</time>
      </trkpt>
      <trkpt lat="49.30374" lon="-1.3328">
        <ele>4</ele>
        <time>2022-07-30T08:41:37+02:00</time>
      </trkpt>
      <trkpt lat="49.30375" lon="-1.33316">
        <ele>4</ele>
        <time>2022-07-30T08:41:37+02:00</time>
      </trkpt>
      <trkpt lat="49.30378" lon="-1.33351">
        <ele>3</ele>
        <time>2022-07-30T08:41:37+02:00</time>
      </trkpt>
      <trkpt lat="49.30381" lon="-1.3339">
        <ele>3</ele>
        <time>2022-07-30T08:41:37+02:00</time>
      </trkpt>
      <trkpt lat="49.30383" lon="-1.33426">
        <ele>4</ele>
        <time>2022-07-30T08:41:37+02:00</time>
      </trkpt>
      <trkpt lat="49.30384" lon="-1.33468">
        <ele>4</ele>
        <time>2022-07-30T08:41:37+02:00</time>
      </trkpt>
      <trkpt lat="49.30387" lon="-1.33503">
        <ele>5</ele>
        <time>2022-07-30T08:41:37+02:00</time>
      </trkpt>
      <trkpt lat="49.3039" lon="-1.33543">
        <ele>5</ele>
        <time>2022-07-30T08:41:37+02:00</time>
      </trkpt>
      <trkpt lat="49.30393" lon="-1.33585">
        <ele>7</ele>
        <time>2022-07-30T08:41:37+02:00</time>
      </trkpt>
      <trkpt lat="49.30398" lon="-1.33621">
        <ele>7</ele>
        <time>2022-07-30T08:41:37+02:00</time>
      </trkpt>
      <trkpt lat="49.30399" lon="-1.33658">
        <ele>7</ele>
        <time>2022-07-30T08:41:37+02:00</time>
      </trkpt>
      <trkpt lat="49.30402" lon="-1.33701">
        <ele>7</ele>
        <time>2022-07-30T08:41:37+02:00</time>
      </trkpt>
      <trkpt lat="49.30406" lon="-1.33744">
        <ele>7</ele>
        <time>2022-07-30T08:41:37+02:00</time>
      </trkpt>
      <trkpt lat="49.30407" lon="-1.33781">
        <ele>6</ele>
        <time>2022-07-30T08:41:37+02:00</time>
      </trkpt>
      <trkpt lat="49.30408" lon="-1.33821">
        <ele>6</ele>
        <time>2022-07-30T08:41:37+02:00</time>
      </trkpt>
      <trkpt lat="49.30411" lon="-1.33859">
        <ele>6</ele>
        <time>2022-07-30T08:41:37+02:00</time>
      </trkpt>
      <trkpt lat="49.30411" lon="-1.33899">
        <ele>6</ele>
        <time>2022-07-30T08:41:37+02:00</time>
      </trkpt>
      <trkpt lat="49.30415" lon="-1.33936">
        <ele>7</ele>
        <time>2022-07-30T08:41:37+02:00</time>
      </trkpt>
      <trkpt lat="49.30417" lon="-1.33973">
        <ele>7</ele>
        <time>2022-07-30T08:41:37+02:00</time>
      </trkpt>
      <trkpt lat="49.30419" lon="-1.34008">
        <ele>8</ele>
        <time>2022-07-30T08:41:37+02:00</time>
      </trkpt>
      <trkpt lat="49.30422" lon="-1.34048">
        <ele>8</ele>
        <time>2022-07-30T08:41:37+02:00</time>
      </trkpt>
      <trkpt lat="49.3042" lon="-1.34083">
        <ele>8</ele>
        <time>2022-07-30T08:41:37+02:00</time>
      </trkpt>
      <trkpt lat="49.30424" lon="-1.34118">
        <ele>9</ele>
        <time>2022-07-30T08:41:37+02:00</time>
      </trkpt>
      <trkpt lat="49.30424" lon="-1.34159">
        <ele>10</ele>
        <time>2022-07-30T08:41:37+02:00</time>
      </trkpt>
      <trkpt lat="49.30422" lon="-1.34202">
        <ele>10</ele>
        <time>2022-07-30T08:41:37+02:00</time>
      </trkpt>
      <trkpt lat="49.30423" lon="-1.34244">
        <ele>12</ele>
        <time>2022-07-30T08:41:37+02:00</time>
      </trkpt>
      <trkpt lat="49.30422" lon="-1.34283">
        <ele>12</ele>
        <time>2022-07-30T08:41:37+02:00</time>
      </trkpt>
      <trkpt lat="49.30423" lon="-1.34327">
        <ele>12</ele>
        <time>2022-07-30T08:41:37+02:00</time>
      </trkpt>
      <trkpt lat="49.30423" lon="-1.34372">
        <ele>12</ele>
        <time>2022-07-30T08:41:37+02:00</time>
      </trkpt>
      <trkpt lat="49.30423" lon="-1.34407">
        <ele>12</ele>
        <time>2022-07-30T08:41:37+02:00</time>
      </trkpt>
      <trkpt lat="49.30424" lon="-1.34445">
        <ele>12</ele>
        <time>2022-07-30T08:41:37+02:00</time>
      </trkpt>
      <trkpt lat="49.30425" lon="-1.34486">
        <ele>11</ele>
        <time>2022-07-30T08:41:37+02:00</time>
      </trkpt>
      <trkpt lat="49.30423" lon="-1.34522">
        <ele>11</ele>
        <time>2022-07-30T08:41:37+02:00</time>
      </trkpt>
      <trkpt lat="49.30421" lon="-1.34565">
        <ele>10</ele>
        <time>2022-07-30T08:41:37+02:00</time>
      </trkpt>
      <trkpt lat="49.30421" lon="-1.34602">
        <ele>10</ele>
        <time>2022-07-30T08:41:37+02:00</time>
      </trkpt>
      <trkpt lat="49.30419" lon="-1.34639">
        <ele>9</ele>
        <time>2022-07-30T08:41:37+02:00</time>
      </trkpt>
      <trkpt lat="49.30421" lon="-1.34679">
        <ele>8</ele>
        <time>2022-07-30T08:41:37+02:00</time>
      </trkpt>
      <trkpt lat="49.30422" lon="-1.34715">
        <ele>8</ele>
        <time>2022-07-30T08:41:37+02:00</time>
      </trkpt>
      <trkpt lat="49.30424" lon="-1.34753">
        <ele>7</ele>
        <time>2022-07-30T08:41:37+02:00</time>
      </trkpt>
      <trkpt lat="49.30421" lon="-1.34794">
        <ele>6</ele>
        <time>2022-07-30T08:41:37+02:00</time>
      </trkpt>
      <trkpt lat="49.30422" lon="-1.34832">
        <ele>6</ele>
        <time>2022-07-30T08:41:37+02:00</time>
      </trkpt>
      <trkpt lat="49.30422" lon="-1.34874">
        <ele>5</ele>
        <time>2022-07-30T08:41:37+02:00</time>
      </trkpt>
      <trkpt lat="49.30422" lon="-1.34914">
        <ele>5</ele>
        <time>2022-07-30T08:41:37+02:00</time>
      </trkpt>
      <trkpt lat="49.3042" lon="-1.34949">
        <ele>5</ele>
        <time>2022-07-30T08:41:37+02:00</time>
      </trkpt>
      <trkpt lat="49.3042" lon="-1.34985">
        <ele>3</ele>
        <time>2022-07-30T08:41:37+02:00</time>
      </trkpt>
      <trkpt lat="49.30423" lon="-1.35022">
        <ele>4</ele>
        <time>2022-07-30T08:41:37+02:00</time>
      </trkpt>
      <trkpt lat="49.30422" lon="-1.35059">
        <ele>4</ele>
        <time>2022-07-30T08:41:37+02:00</time>
      </trkpt>
      <trkpt lat="49.30423" lon="-1.35095">
        <ele>5</ele>
        <time>2022-07-30T08:41:37+02:00</time>
      </trkpt>
      <trkpt lat="49.30425" lon="-1.35131">
        <ele>5</ele>
        <time>2022-07-30T08:41:37+02:00</time>
      </trkpt>
      <trkpt lat="49.30428" lon="-1.3517">
        <ele>4</ele>
        <time>2022-07-30T08:41:37+02:00</time>
      </trkpt>
      <trkpt lat="49.30431" lon="-1.35207">
        <ele>4</ele>
        <time>2022-07-30T08:41:37+02:00</time>
      </trkpt>
      <trkpt lat="49.30435" lon="-1.35241">
        <ele>4</ele>
        <time>2022-07-30T08:41:37+02:00</time>
      </trkpt>
      <trkpt lat="49.3044" lon="-1.35278">
        <ele>4</ele>
        <time>2022-07-30T08:41:37+02:00</time>
      </trkpt>
      <trkpt lat="49.30444" lon="-1.35318">
        <ele>3</ele>
        <time>2022-07-30T08:41:37+02:00</time>
      </trkpt>
      <trkpt lat="49.30449" lon="-1.35355">
        <ele>5</ele>
        <time>2022-07-30T08:41:37+02:00</time>
      </trkpt>
      <trkpt lat="49.30455" lon="-1.35396">
        <ele>5</ele>
        <time>2022-07-30T08:41:37+02:00</time>
      </trkpt>
      <trkpt lat="49.3046" lon="-1.35433">
        <ele>5</ele>
        <time>2022-07-30T08:41:37+02:00</time>
      </trkpt>
      <trkpt lat="49.30466" lon="-1.35472">
        <ele>4</ele>
        <time>2022-07-30T08:41:37+02:00</time>
      </trkpt>
      <trkpt lat="49.30472" lon="-1.35511">
        <ele>4</ele>
        <time>2022-07-30T08:41:37+02:00</time>
      </trkpt>
      <trkpt lat="49.30476" lon="-1.35552">
        <ele>5</ele>
        <time>2022-07-30T08:41:37+02:00</time>
      </trkpt>
      <trkpt lat="49.3048" lon="-1.35586">
        <ele>4</ele>
        <time>2022-07-30T08:41:37+02:00</time>
      </trkpt>
      <trkpt lat="49.30484" lon="-1.35627">
        <ele>4</ele>
        <time>2022-07-30T08:41:37+02:00</time>
      </trkpt>
      <trkpt lat="49.30488" lon="-1.35667">
        <ele>4</ele>
        <time>2022-07-30T08:41:37+02:00</time>
      </trkpt>
      <trkpt lat="49.30494" lon="-1.35707">
        <ele>4</ele>
        <time>2022-07-30T08:41:37+02:00</time>
      </trkpt>
      <trkpt lat="49.30497" lon="-1.35741">
        <ele>4</ele>
        <time>2022-07-30T08:41:37+02:00</time>
      </trkpt>
      <trkpt lat="49.30503" lon="-1.35776">
        <ele>4</ele>
        <time>2022-07-30T08:41:37+02:00</time>
      </trkpt>
      <trkpt lat="49.30507" lon="-1.35811">
        <ele>2</ele>
        <time>2022-07-30T08:41:37+02:00</time>
      </trkpt>
      <trkpt lat="49.30512" lon="-1.35846">
        <ele>4</ele>
        <time>2022-07-30T08:41:37+02:00</time>
      </trkpt>
      <trkpt lat="49.30516" lon="-1.35882">
        <ele>4</ele>
        <time>2022-07-30T08:41:37+02:00</time>
      </trkpt>
      <trkpt lat="49.3052" lon="-1.35921">
        <ele>5</ele>
        <time>2022-07-30T08:41:37+02:00</time>
      </trkpt>
      <trkpt lat="49.30527" lon="-1.35956">
        <ele>5</ele>
        <time>2022-07-30T08:41:37+02:00</time>
      </trkpt>
      <trkpt lat="49.30532" lon="-1.35993">
        <ele>6</ele>
        <time>2022-07-30T08:41:37+02:00</time>
      </trkpt>
      <trkpt lat="49.30535" lon="-1.36028">
        <ele>5</ele>
        <time>2022-07-30T08:41:37+02:00</time>
      </trkpt>
      <trkpt lat="49.30539" lon="-1.36065">
        <ele>5</ele>
        <time>2022-07-30T08:41:37+02:00</time>
      </trkpt>
      <trkpt lat="49.30543" lon="-1.36099">
        <ele>5</ele>
        <time>2022-07-30T08:41:37+02:00</time>
      </trkpt>
      <trkpt lat="49.30547" lon="-1.36138">
        <ele>5</ele>
        <time>2022-07-30T08:41:37+02:00</time>
      </trkpt>
      <trkpt lat="49.30554" lon="-1.36171">
        <ele>5</ele>
        <time>2022-07-30T08:41:37+02:00</time>
      </trkpt>
      <trkpt lat="49.30565" lon="-1.36207">
        <ele>5</ele>
        <time>2022-07-30T08:41:37+02:00</time>
      </trkpt>
      <trkpt lat="49.30569" lon="-1.36245">
        <ele>5</ele>
        <time>2022-07-30T08:41:37+02:00</time>
      </trkpt>
      <trkpt lat="49.30572" lon="-1.36282">
        <ele>7</ele>
        <time>2022-07-30T08:41:37+02:00</time>
      </trkpt>
      <trkpt lat="49.30576" lon="-1.36317">
        <ele>7</ele>
        <time>2022-07-30T08:41:37+02:00</time>
      </trkpt>
      <trkpt lat="49.30588" lon="-1.36351">
        <ele>8</ele>
        <time>2022-07-30T08:41:37+02:00</time>
      </trkpt>
      <trkpt lat="49.30608" lon="-1.36376">
        <ele>8</ele>
        <time>2022-07-30T08:41:37+02:00</time>
      </trkpt>
      <trkpt lat="49.30628" lon="-1.36399">
        <ele>9</ele>
        <time>2022-07-30T08:41:37+02:00</time>
      </trkpt>
      <trkpt lat="49.30648" lon="-1.36422">
        <ele>11</ele>
        <time>2022-07-30T08:41:37+02:00</time>
      </trkpt>
      <trkpt lat="49.30666" lon="-1.36444">
        <ele>11</ele>
        <time>2022-07-30T08:41:37+02:00</time>
      </trkpt>
      <trkpt lat="49.30679" lon="-1.36474">
        <ele>13</ele>
        <time>2022-07-30T08:41:37+02:00</time>
      </trkpt>
      <trkpt lat="49.30677" lon="-1.36514">
        <ele>12</ele>
        <time>2022-07-30T08:41:37+02:00</time>
      </trkpt>
      <trkpt lat="49.30666" lon="-1.36552">
        <ele>12</ele>
        <time>2022-07-30T08:41:37+02:00</time>
      </trkpt>
      <trkpt lat="49.30666" lon="-1.36589">
        <ele>12</ele>
        <time>2022-07-30T08:41:37+02:00</time>
      </trkpt>
      <trkpt lat="49.30671" lon="-1.36625">
        <ele>13</ele>
        <time>2022-07-30T08:41:37+02:00</time>
      </trkpt>
      <trkpt lat="49.3067" lon="-1.36661">
        <ele>13</ele>
        <time>2022-07-30T08:41:37+02:00</time>
      </trkpt>
      <trkpt lat="49.30663" lon="-1.36695">
        <ele>13</ele>
        <time>2022-07-30T08:41:37+02:00</time>
      </trkpt>
      <trkpt lat="49.30655" lon="-1.36735">
        <ele>11</ele>
        <time>2022-07-30T08:41:37+02:00</time>
      </trkpt>
      <trkpt lat="49.30648" lon="-1.36769">
        <ele>10</ele>
        <time>2022-07-30T08:41:37+02:00</time>
      </trkpt>
      <trkpt lat="49.30641" lon="-1.36805">
        <ele>10</ele>
        <time>2022-07-30T08:41:37+02:00</time>
      </trkpt>
      <trkpt lat="49.30634" lon="-1.36843">
        <ele>9</ele>
        <time>2022-07-30T08:41:37+02:00</time>
      </trkpt>
      <trkpt lat="49.30636" lon="-1.36879">
        <ele>8</ele>
        <time>2022-07-30T08:41:37+02:00</time>
      </trkpt>
      <trkpt lat="49.30656" lon="-1.36907">
        <ele>10</ele>
        <time>2022-07-30T08:41:37+02:00</time>
      </trkpt>
      <trkpt lat="49.30674" lon="-1.36936">
        <ele>10</ele>
        <time>2022-07-30T08:41:37+02:00</time>
      </trkpt>
      <trkpt lat="49.30691" lon="-1.36964">
        <ele>10</ele>
        <time>2022-07-30T08:41:37+02:00</time>
      </trkpt>
      <trkpt lat="49.30709" lon="-1.36989">
        <ele>9</ele>
        <time>2022-07-30T08:41:37+02:00</time>
      </trkpt>
      <trkpt lat="49.30725" lon="-1.37023">
        <ele>9</ele>
        <time>2022-07-30T08:41:37+02:00</time>
      </trkpt>
      <trkpt lat="49.30727" lon="-1.37058">
        <ele>8</ele>
        <time>2022-07-30T08:41:37+02:00</time>
      </trkpt>
      <trkpt lat="49.30714" lon="-1.3709">
        <ele>7</ele>
        <time>2022-07-30T08:41:37+02:00</time>
      </trkpt>
      <trkpt lat="49.30694" lon="-1.37108">
        <ele>7</ele>
        <time>2022-07-30T08:41:37+02:00</time>
      </trkpt>
      <trkpt lat="49.30674" lon="-1.37125">
        <ele>7</ele>
        <time>2022-07-30T08:41:37+02:00</time>
      </trkpt>
      <trkpt lat="49.30654" lon="-1.37144">
        <ele>6</ele>
        <time>2022-07-30T08:41:37+02:00</time>
      </trkpt>
      <trkpt lat="49.30634" lon="-1.37163">
        <ele>6</ele>
        <time>2022-07-30T08:41:37+02:00</time>
      </trkpt>
      <trkpt lat="49.30611" lon="-1.37185">
        <ele>5</ele>
        <time>2022-07-30T08:41:37+02:00</time>
      </trkpt>
      <trkpt lat="49.30589" lon="-1.37204">
        <ele>5</ele>
        <time>2022-07-30T08:41:37+02:00</time>
      </trkpt>
      <trkpt lat="49.30577" lon="-1.37238">
        <ele>5</ele>
        <time>2022-07-30T08:41:37+02:00</time>
      </trkpt>
      <trkpt lat="49.30573" lon="-1.37279">
        <ele>5</ele>
        <time>2022-07-30T08:41:37+02:00</time>
      </trkpt>
      <trkpt lat="49.30568" lon="-1.37317">
        <ele>5</ele>
        <time>2022-07-30T08:41:37+02:00</time>
      </trkpt>
      <trkpt lat="49.30565" lon="-1.37356">
        <ele>5</ele>
        <time>2022-07-30T08:41:37+02:00</time>
      </trkpt>
      <trkpt lat="49.30571" lon="-1.37391">
        <ele>6</ele>
        <time>2022-07-30T08:41:37+02:00</time>
      </trkpt>
      <trkpt lat="49.30556" lon="-1.37421">
        <ele>7</ele>
        <time>2022-07-30T08:41:37+02:00</time>
      </trkpt>
      <trkpt lat="49.30538" lon="-1.37447">
        <ele>7</ele>
        <time>2022-07-30T08:41:37+02:00</time>
      </trkpt>
      <trkpt lat="49.30534" lon="-1.37481">
        <ele>6</ele>
        <time>2022-07-30T08:41:37+02:00</time>
      </trkpt>
      <trkpt lat="49.30531" lon="-1.37521">
        <ele>6</ele>
        <time>2022-07-30T08:41:37+02:00</time>
      </trkpt>
      <trkpt lat="49.30527" lon="-1.37561">
        <ele>7</ele>
        <time>2022-07-30T08:41:37+02:00</time>
      </trkpt>
      <trkpt lat="49.30523" lon="-1.37599">
        <ele>8</ele>
        <time>2022-07-30T08:41:37+02:00</time>
      </trkpt>
      <trkpt lat="49.30516" lon="-1.37636">
        <ele>6</ele>
        <time>2022-07-30T08:41:37+02:00</time>
      </trkpt>
      <trkpt lat="49.30506" lon="-1.37668">
        <ele>7</ele>
        <time>2022-07-30T08:41:37+02:00</time>
      </trkpt>
      <trkpt lat="49.30501" lon="-1.37709">
        <ele>7</ele>
        <time>2022-07-30T08:41:37+02:00</time>
      </trkpt>
      <trkpt lat="49.30497" lon="-1.3775">
        <ele>8</ele>
        <time>2022-07-30T08:41:37+02:00</time>
      </trkpt>
      <trkpt lat="49.30495" lon="-1.37785">
        <ele>8</ele>
        <time>2022-07-30T08:41:37+02:00</time>
      </trkpt>
      <trkpt lat="49.30494" lon="-1.37821">
        <ele>9</ele>
        <time>2022-07-30T08:41:37+02:00</time>
      </trkpt>
      <trkpt lat="49.30492" lon="-1.3786">
        <ele>8</ele>
        <time>2022-07-30T08:41:37+02:00</time>
      </trkpt>
      <trkpt lat="49.30489" lon="-1.37895">
        <ele>8</ele>
        <time>2022-07-30T08:41:37+02:00</time>
      </trkpt>
      <trkpt lat="49.30485" lon="-1.37929">
        <ele>8</ele>
        <time>2022-07-30T08:41:37+02:00</time>
      </trkpt>
      <trkpt lat="49.30479" lon="-1.37967">
        <ele>9</ele>
        <time>2022-07-30T08:41:37+02:00</time>
      </trkpt>
      <trkpt lat="49.30474" lon="-1.38003">
        <ele>8</ele>
        <time>2022-07-30T08:41:37+02:00</time>
      </trkpt>
      <trkpt lat="49.30471" lon="-1.3804">
        <ele>6</ele>
        <time>2022-07-30T08:41:37+02:00</time>
      </trkpt>
      <trkpt lat="49.30467" lon="-1.38078">
        <ele>7</ele>
        <time>2022-07-30T08:41:37+02:00</time>
      </trkpt>
      <trkpt lat="49.30464" lon="-1.38113">
        <ele>7</ele>
        <time>2022-07-30T08:41:37+02:00</time>
      </trkpt>
      <trkpt lat="49.3046" lon="-1.3815">
        <ele>7</ele>
        <time>2022-07-30T08:41:37+02:00</time>
      </trkpt>
      <trkpt lat="49.30456" lon="-1.38186">
        <ele>5</ele>
        <time>2022-07-30T08:41:37+02:00</time>
      </trkpt>
      <trkpt lat="49.30454" lon="-1.38223">
        <ele>6</ele>
        <time>2022-07-30T08:41:37+02:00</time>
      </trkpt>
      <trkpt lat="49.30449" lon="-1.38257">
        <ele>6</ele>
        <time>2022-07-30T08:41:37+02:00</time>
      </trkpt>
      <trkpt lat="49.30446" lon="-1.38293">
        <ele>8</ele>
        <time>2022-07-30T08:41:37+02:00</time>
      </trkpt>
      <trkpt lat="49.30442" lon="-1.38336">
        <ele>7</ele>
        <time>2022-07-30T08:41:37+02:00</time>
      </trkpt>
      <trkpt lat="49.30439" lon="-1.38376">
        <ele>8</ele>
        <time>2022-07-30T08:41:37+02:00</time>
      </trkpt>
      <trkpt lat="49.30436" lon="-1.38412">
        <ele>7</ele>
        <time>2022-07-30T08:41:37+02:00</time>
      </trkpt>
      <trkpt lat="49.30431" lon="-1.38446">
        <ele>7</ele>
        <time>2022-07-30T08:41:37+02:00</time>
      </trkpt>
      <trkpt lat="49.30428" lon="-1.38483">
        <ele>6</ele>
        <time>2022-07-30T08:41:37+02:00</time>
      </trkpt>
      <trkpt lat="49.30424" lon="-1.38523">
        <ele>7</ele>
        <time>2022-07-30T08:41:37+02:00</time>
      </trkpt>
      <trkpt lat="49.30421" lon="-1.38562">
        <ele>7</ele>
        <time>2022-07-30T08:41:37+02:00</time>
      </trkpt>
      <trkpt lat="49.30416" lon="-1.38601">
        <ele>7</ele>
        <time>2022-07-30T08:41:37+02:00</time>
      </trkpt>
      <trkpt lat="49.30412" lon="-1.38639">
        <ele>7</ele>
        <time>2022-07-30T08:41:37+02:00</time>
      </trkpt>
      <trkpt lat="49.30408" lon="-1.38674">
        <ele>6</ele>
        <time>2022-07-30T08:41:37+02:00</time>
      </trkpt>
      <trkpt lat="49.30405" lon="-1.38709">
        <ele>7</ele>
        <time>2022-07-30T08:41:37+02:00</time>
      </trkpt>
      <trkpt lat="49.30403" lon="-1.38745">
        <ele>8</ele>
        <time>2022-07-30T08:41:37+02:00</time>
      </trkpt>
      <trkpt lat="49.30398" lon="-1.38783">
        <ele>10</ele>
        <time>2022-07-30T08:41:37+02:00</time>
      </trkpt>
      <trkpt lat="49.30393" lon="-1.38821">
        <ele>10</ele>
        <time>2022-07-30T08:41:37+02:00</time>
      </trkpt>
      <trkpt lat="49.30391" lon="-1.38863">
        <ele>10</ele>
        <time>2022-07-30T08:41:37+02:00</time>
      </trkpt>
      <trkpt lat="49.30387" lon="-1.389">
        <ele>10</ele>
        <time>2022-07-30T08:41:37+02:00</time>
      </trkpt>
      <trkpt lat="49.30383" lon="-1.38935">
        <ele>11</ele>
        <time>2022-07-30T08:41:37+02:00</time>
      </trkpt>
      <trkpt lat="49.3038" lon="-1.38972">
        <ele>12</ele>
        <time>2022-07-30T08:41:37+02:00</time>
      </trkpt>
      <trkpt lat="49.30376" lon="-1.3901">
        <ele>12</ele>
        <time>2022-07-30T08:41:37+02:00</time>
      </trkpt>
      <trkpt lat="49.30373" lon="-1.39049">
        <ele>12</ele>
        <time>2022-07-30T08:41:37+02:00</time>
      </trkpt>
      <trkpt lat="49.30367" lon="-1.39089">
        <ele>13</ele>
        <time>2022-07-30T08:41:37+02:00</time>
      </trkpt>
      <trkpt lat="49.30363" lon="-1.39124">
        <ele>14</ele>
        <time>2022-07-30T08:41:37+02:00</time>
      </trkpt>
      <trkpt lat="49.30361" lon="-1.39163">
        <ele>15</ele>
        <time>2022-07-30T08:41:37+02:00</time>
      </trkpt>
      <trkpt lat="49.30357" lon="-1.39197">
        <ele>15</ele>
        <time>2022-07-30T08:41:37+02:00</time>
      </trkpt>
      <trkpt lat="49.30354" lon="-1.39238">
        <ele>15</ele>
        <time>2022-07-30T08:41:37+02:00</time>
      </trkpt>
      <trkpt lat="49.30353" lon="-1.39274">
        <ele>16</ele>
        <time>2022-07-30T08:41:37+02:00</time>
      </trkpt>
      <trkpt lat="49.30348" lon="-1.39313">
        <ele>15</ele>
        <time>2022-07-30T08:41:37+02:00</time>
      </trkpt>
      <trkpt lat="49.30343" lon="-1.39348">
        <ele>17</ele>
        <time>2022-07-30T08:41:37+02:00</time>
      </trkpt>
      <trkpt lat="49.30339" lon="-1.39387">
        <ele>16</ele>
        <time>2022-07-30T08:41:37+02:00</time>
      </trkpt>
      <trkpt lat="49.30335" lon="-1.39423">
        <ele>18</ele>
        <time>2022-07-30T08:41:37+02:00</time>
      </trkpt>
      <trkpt lat="49.30329" lon="-1.39458">
        <ele>17</ele>
        <time>2022-07-30T08:41:37+02:00</time>
      </trkpt>
      <trkpt lat="49.30324" lon="-1.39496">
        <ele>17</ele>
        <time>2022-07-30T08:41:37+02:00</time>
      </trkpt>
      <trkpt lat="49.30321" lon="-1.39534">
        <ele>18</ele>
        <time>2022-07-30T08:41:37+02:00</time>
      </trkpt>
      <trkpt lat="49.30318" lon="-1.39574">
        <ele>17</ele>
        <time>2022-07-30T08:41:37+02:00</time>
      </trkpt>
      <trkpt lat="49.30313" lon="-1.39612">
        <ele>20</ele>
        <time>2022-07-30T08:41:37+02:00</time>
      </trkpt>
      <trkpt lat="49.30312" lon="-1.39649">
        <ele>22</ele>
        <time>2022-07-30T08:41:37+02:00</time>
      </trkpt>
      <trkpt lat="49.30308" lon="-1.39689">
        <ele>22</ele>
        <time>2022-07-30T08:41:37+02:00</time>
      </trkpt>
      <trkpt lat="49.30304" lon="-1.39723">
        <ele>24</ele>
        <time>2022-07-30T08:41:37+02:00</time>
      </trkpt>
      <trkpt lat="49.30298" lon="-1.39758">
        <ele>26</ele>
        <time>2022-07-30T08:41:37+02:00</time>
      </trkpt>
      <trkpt lat="49.30294" lon="-1.39796">
        <ele>26</ele>
        <time>2022-07-30T08:41:37+02:00</time>
      </trkpt>
      <trkpt lat="49.30292" lon="-1.39836">
        <ele>26</ele>
        <time>2022-07-30T08:41:37+02:00</time>
      </trkpt>
      <trkpt lat="49.30287" lon="-1.39873">
        <ele>27</ele>
        <time>2022-07-30T08:41:37+02:00</time>
      </trkpt>
      <trkpt lat="49.30285" lon="-1.39915">
        <ele>27</ele>
        <time>2022-07-30T08:41:37+02:00</time>
      </trkpt>
      <trkpt lat="49.30281" lon="-1.3995">
        <ele>27</ele>
        <time>2022-07-30T08:41:37+02:00</time>
      </trkpt>
      <trkpt lat="49.30275" lon="-1.3999">
        <ele>27</ele>
        <time>2022-07-30T08:41:37+02:00</time>
      </trkpt>
      <trkpt lat="49.30272" lon="-1.40027">
        <ele>27</ele>
        <time>2022-07-30T08:41:37+02:00</time>
      </trkpt>
      <trkpt lat="49.30268" lon="-1.40062">
        <ele>27</ele>
        <time>2022-07-30T08:41:37+02:00</time>
      </trkpt>
      <trkpt lat="49.30266" lon="-1.40098">
        <ele>28</ele>
        <time>2022-07-30T08:41:37+02:00</time>
      </trkpt>
      <trkpt lat="49.30262" lon="-1.40133">
        <ele>28</ele>
        <time>2022-07-30T08:41:37+02:00</time>
      </trkpt>
      <trkpt lat="49.30257" lon="-1.40167">
        <ele>29</ele>
        <time>2022-07-30T08:41:37+02:00</time>
      </trkpt>
      <trkpt lat="49.30256" lon="-1.40208">
        <ele>27</ele>
        <time>2022-07-30T08:41:37+02:00</time>
      </trkpt>
      <trkpt lat="49.30251" lon="-1.4025">
        <ele>27</ele>
        <time>2022-07-30T08:41:37+02:00</time>
      </trkpt>
      <trkpt lat="49.30247" lon="-1.40286">
        <ele>26</ele>
        <time>2022-07-30T08:41:37+02:00</time>
      </trkpt>
      <trkpt lat="49.30247" lon="-1.40326">
        <ele>25</ele>
        <time>2022-07-30T08:41:37+02:00</time>
      </trkpt>
      <trkpt lat="49.30241" lon="-1.40366">
        <ele>24</ele>
        <time>2022-07-30T08:41:37+02:00</time>
      </trkpt>
      <trkpt lat="49.30238" lon="-1.40401">
        <ele>24</ele>
        <time>2022-07-30T08:41:37+02:00</time>
      </trkpt>
      <trkpt lat="49.30234" lon="-1.40439">
        <ele>26</ele>
        <time>2022-07-30T08:41:37+02:00</time>
      </trkpt>
      <trkpt lat="49.3023" lon="-1.40478">
        <ele>24</ele>
        <time>2022-07-30T08:41:37+02:00</time>
      </trkpt>
      <trkpt lat="49.30226" lon="-1.40516">
        <ele>25</ele>
        <time>2022-07-30T08:41:37+02:00</time>
      </trkpt>
      <trkpt lat="49.30223" lon="-1.40554">
        <ele>24</ele>
        <time>2022-07-30T08:41:37+02:00</time>
      </trkpt>
      <trkpt lat="49.30218" lon="-1.40592">
        <ele>25</ele>
        <time>2022-07-30T08:41:37+02:00</time>
      </trkpt>
      <trkpt lat="49.30216" lon="-1.40626">
        <ele>25</ele>
        <time>2022-07-30T08:41:37+02:00</time>
      </trkpt>
      <trkpt lat="49.30211" lon="-1.4066">
        <ele>27</ele>
        <time>2022-07-30T08:41:37+02:00</time>
      </trkpt>
      <trkpt lat="49.30207" lon="-1.40697">
        <ele>26</ele>
        <time>2022-07-30T08:41:37+02:00</time>
      </trkpt>
      <trkpt lat="49.30205" lon="-1.40735">
        <ele>26</ele>
        <time>2022-07-30T08:41:37+02:00</time>
      </trkpt>
      <trkpt lat="49.302" lon="-1.40773">
        <ele>25</ele>
        <time>2022-07-30T08:41:37+02:00</time>
      </trkpt>
      <trkpt lat="49.30197" lon="-1.40813">
        <ele>26</ele>
        <time>2022-07-30T08:41:37+02:00</time>
      </trkpt>
      <trkpt lat="49.30192" lon="-1.40853">
        <ele>26</ele>
        <time>2022-07-30T08:41:37+02:00</time>
      </trkpt>
      <trkpt lat="49.30188" lon="-1.40889">
        <ele>25</ele>
        <time>2022-07-30T08:41:37+02:00</time>
      </trkpt>
      <trkpt lat="49.30183" lon="-1.40924">
        <ele>27</ele>
        <time>2022-07-30T08:41:37+02:00</time>
      </trkpt>
      <trkpt lat="49.30182" lon="-1.40958">
        <ele>26</ele>
        <time>2022-07-30T08:41:37+02:00</time>
      </trkpt>
      <trkpt lat="49.30177" lon="-1.40998">
        <ele>26</ele>
        <time>2022-07-30T08:41:37+02:00</time>
      </trkpt>
      <trkpt lat="49.30175" lon="-1.4104">
        <ele>27</ele>
        <time>2022-07-30T08:41:37+02:00</time>
      </trkpt>
      <trkpt lat="49.3017" lon="-1.4108">
        <ele>27</ele>
        <time>2022-07-30T08:41:37+02:00</time>
      </trkpt>
      <trkpt lat="49.30166" lon="-1.41117">
        <ele>27</ele>
        <time>2022-07-30T08:41:37+02:00</time>
      </trkpt>
      <trkpt lat="49.30161" lon="-1.41152">
        <ele>28</ele>
        <time>2022-07-30T08:41:37+02:00</time>
      </trkpt>
      <trkpt lat="49.30156" lon="-1.4119">
        <ele>33</ele>
        <time>2022-07-30T08:41:37+02:00</time>
      </trkpt>
      <trkpt lat="49.30151" lon="-1.41229">
        <ele>35</ele>
        <time>2022-07-30T08:41:37+02:00</time>
      </trkpt>
      <trkpt lat="49.30148" lon="-1.41266">
        <ele>36</ele>
        <time>2022-07-30T08:41:37+02:00</time>
      </trkpt>
      <trkpt lat="49.30145" lon="-1.41301">
        <ele>35</ele>
        <time>2022-07-30T08:41:37+02:00</time>
      </trkpt>
      <trkpt lat="49.30142" lon="-1.41339">
        <ele>35</ele>
        <time>2022-07-30T08:41:37+02:00</time>
      </trkpt>
      <trkpt lat="49.30138" lon="-1.41379">
        <ele>37</ele>
        <time>2022-07-30T08:41:37+02:00</time>
      </trkpt>
      <trkpt lat="49.30137" lon="-1.41415">
        <ele>36</ele>
        <time>2022-07-30T08:41:37+02:00</time>
      </trkpt>
      <trkpt lat="49.30132" lon="-1.41452">
        <ele>36</ele>
        <time>2022-07-30T08:41:37+02:00</time>
      </trkpt>
      <trkpt lat="49.30129" lon="-1.4149">
        <ele>35</ele>
        <time>2022-07-30T08:41:37+02:00</time>
      </trkpt>
      <trkpt lat="49.30125" lon="-1.41525">
        <ele>33</ele>
        <time>2022-07-30T08:41:37+02:00</time>
      </trkpt>
      <trkpt lat="49.30123" lon="-1.41563">
        <ele>33</ele>
        <time>2022-07-30T08:41:37+02:00</time>
      </trkpt>
      <trkpt lat="49.30119" lon="-1.41602">
        <ele>34</ele>
        <time>2022-07-30T08:41:37+02:00</time>
      </trkpt>
      <trkpt lat="49.30115" lon="-1.41644">
        <ele>35</ele>
        <time>2022-07-30T08:41:37+02:00</time>
      </trkpt>
      <trkpt lat="49.30111" lon="-1.41679">
        <ele>37</ele>
        <time>2022-07-30T08:41:37+02:00</time>
      </trkpt>
      <trkpt lat="49.30107" lon="-1.41722">
        <ele>37</ele>
        <time>2022-07-30T08:41:37+02:00</time>
      </trkpt>
      <trkpt lat="49.30101" lon="-1.41761">
        <ele>36</ele>
        <time>2022-07-30T08:41:37+02:00</time>
      </trkpt>
      <trkpt lat="49.30098" lon="-1.41798">
        <ele>35</ele>
        <time>2022-07-30T08:41:37+02:00</time>
      </trkpt>
      <trkpt lat="49.30096" lon="-1.41834">
        <ele>35</ele>
        <time>2022-07-30T08:41:37+02:00</time>
      </trkpt>
      <trkpt lat="49.30094" lon="-1.4187">
        <ele>36</ele>
        <time>2022-07-30T08:41:37+02:00</time>
      </trkpt>
      <trkpt lat="49.3009" lon="-1.41905">
        <ele>37</ele>
        <time>2022-07-30T08:41:37+02:00</time>
      </trkpt>
      <trkpt lat="49.30086" lon="-1.41944">
        <ele>38</ele>
        <time>2022-07-30T08:41:37+02:00</time>
      </trkpt>
      <trkpt lat="49.30082" lon="-1.4198">
        <ele>38</ele>
        <time>2022-07-30T08:41:37+02:00</time>
      </trkpt>
      <trkpt lat="49.30078" lon="-1.42015">
        <ele>38</ele>
        <time>2022-07-30T08:41:37+02:00</time>
      </trkpt>
      <trkpt lat="49.30075" lon="-1.42052">
        <ele>38</ele>
        <time>2022-07-30T08:41:37+02:00</time>
      </trkpt>
      <trkpt lat="49.30071" lon="-1.4209">
        <ele>38</ele>
        <time>2022-07-30T08:41:37+02:00</time>
      </trkpt>
      <trkpt lat="49.30066" lon="-1.42124">
        <ele>38</ele>
        <time>2022-07-30T08:41:37+02:00</time>
      </trkpt>
      <trkpt lat="49.30063" lon="-1.42159">
        <ele>38</ele>
        <time>2022-07-30T08:41:37+02:00</time>
      </trkpt>
      <trkpt lat="49.3006" lon="-1.42196">
        <ele>38</ele>
        <time>2022-07-30T08:41:37+02:00</time>
      </trkpt>
      <trkpt lat="49.30058" lon="-1.42231">
        <ele>39</ele>
        <time>2022-07-30T08:41:37+02:00</time>
      </trkpt>
      <trkpt lat="49.30054" lon="-1.42266">
        <ele>39</ele>
        <time>2022-07-30T08:41:37+02:00</time>
      </trkpt>
      <trkpt lat="49.3005" lon="-1.42305">
        <ele>39</ele>
        <time>2022-07-30T08:41:37+02:00</time>
      </trkpt>
      <trkpt lat="49.30047" lon="-1.42344">
        <ele>39</ele>
        <time>2022-07-30T08:41:37+02:00</time>
      </trkpt>
      <trkpt lat="49.30043" lon="-1.42385">
        <ele>39</ele>
        <time>2022-07-30T08:41:37+02:00</time>
      </trkpt>
      <trkpt lat="49.30038" lon="-1.42422">
        <ele>38</ele>
        <time>2022-07-30T08:41:37+02:00</time>
      </trkpt>
      <trkpt lat="49.30034" lon="-1.42458">
        <ele>38</ele>
        <time>2022-07-30T08:41:37+02:00</time>
      </trkpt>
      <trkpt lat="49.3003" lon="-1.42499">
        <ele>38</ele>
        <time>2022-07-30T08:41:37+02:00</time>
      </trkpt>
      <trkpt lat="49.30026" lon="-1.42542">
        <ele>40</ele>
        <time>2022-07-30T08:41:37+02:00</time>
      </trkpt>
      <trkpt lat="49.30021" lon="-1.42582">
        <ele>39</ele>
        <time>2022-07-30T08:41:37+02:00</time>
      </trkpt>
      <trkpt lat="49.30017" lon="-1.42618">
        <ele>41</ele>
        <time>2022-07-30T08:41:37+02:00</time>
      </trkpt>
      <trkpt lat="49.30013" lon="-1.42655">
        <ele>41</ele>
        <time>2022-07-30T08:41:37+02:00</time>
      </trkpt>
      <trkpt lat="49.30008" lon="-1.42692">
        <ele>41</ele>
        <time>2022-07-30T08:41:37+02:00</time>
      </trkpt>
      <trkpt lat="49.30006" lon="-1.42732">
        <ele>41</ele>
        <time>2022-07-30T08:41:37+02:00</time>
      </trkpt>
      <trkpt lat="49.30003" lon="-1.42771">
        <ele>41</ele>
        <time>2022-07-30T08:41:37+02:00</time>
      </trkpt>
      <trkpt lat="49.29998" lon="-1.4281">
        <ele>41</ele>
        <time>2022-07-30T08:41:37+02:00</time>
      </trkpt>
      <trkpt lat="49.29995" lon="-1.42851">
        <ele>41</ele>
        <time>2022-07-30T08:41:37+02:00</time>
      </trkpt>
      <trkpt lat="49.29992" lon="-1.42893">
        <ele>41</ele>
        <time>2022-07-30T08:41:37+02:00</time>
      </trkpt>
      <trkpt lat="49.29988" lon="-1.42927">
        <ele>41</ele>
        <time>2022-07-30T08:41:37+02:00</time>
      </trkpt>
      <trkpt lat="49.29984" lon="-1.4297">
        <ele>41</ele>
        <time>2022-07-30T08:41:37+02:00</time>
      </trkpt>
      <trkpt lat="49.2998" lon="-1.43004">
        <ele>41</ele>
        <time>2022-07-30T08:41:37+02:00</time>
      </trkpt>
      <trkpt lat="49.29977" lon="-1.43039">
        <ele>40</ele>
        <time>2022-07-30T08:41:37+02:00</time>
      </trkpt>
      <trkpt lat="49.29973" lon="-1.43074">
        <ele>39</ele>
        <time>2022-07-30T08:41:37+02:00</time>
      </trkpt>
      <trkpt lat="49.2997" lon="-1.43109">
        <ele>39</ele>
        <time>2022-07-30T08:41:37+02:00</time>
      </trkpt>
      <trkpt lat="49.29967" lon="-1.43145">
        <ele>39</ele>
        <time>2022-07-30T08:41:37+02:00</time>
      </trkpt>
      <trkpt lat="49.29963" lon="-1.43179">
        <ele>39</ele>
        <time>2022-07-30T08:41:37+02:00</time>
      </trkpt>
      <trkpt lat="49.29959" lon="-1.43221">
        <ele>39</ele>
        <time>2022-07-30T08:41:37+02:00</time>
      </trkpt>
      <trkpt lat="49.29955" lon="-1.43263">
        <ele>39</ele>
        <time>2022-07-30T08:41:37+02:00</time>
      </trkpt>
      <trkpt lat="49.2995" lon="-1.43302">
        <ele>40</ele>
        <time>2022-07-30T08:41:37+02:00</time>
      </trkpt>
      <trkpt lat="49.29946" lon="-1.43338">
        <ele>40</ele>
        <time>2022-07-30T08:41:37+02:00</time>
      </trkpt>
      <trkpt lat="49.29942" lon="-1.43379">
        <ele>40</ele>
        <time>2022-07-30T08:41:37+02:00</time>
      </trkpt>
      <trkpt lat="49.29938" lon="-1.43418">
        <ele>39</ele>
        <time>2022-07-30T08:41:37+02:00</time>
      </trkpt>
      <trkpt lat="49.29936" lon="-1.43453">
        <ele>39</ele>
        <time>2022-07-30T08:41:37+02:00</time>
      </trkpt>
      <trkpt lat="49.29933" lon="-1.43488">
        <ele>39</ele>
        <time>2022-07-30T08:41:37+02:00</time>
      </trkpt>
      <trkpt lat="49.29929" lon="-1.43524">
        <ele>39</ele>
        <time>2022-07-30T08:41:37+02:00</time>
      </trkpt>
      <trkpt lat="49.29924" lon="-1.43558">
        <ele>40</ele>
        <time>2022-07-30T08:41:37+02:00</time>
      </trkpt>
      <trkpt lat="49.29921" lon="-1.43593">
        <ele>39</ele>
        <time>2022-07-30T08:41:37+02:00</time>
      </trkpt>
      <trkpt lat="49.29915" lon="-1.43633">
        <ele>39</ele>
        <time>2022-07-30T08:41:37+02:00</time>
      </trkpt>
      <trkpt lat="49.29913" lon="-1.43669">
        <ele>39</ele>
        <time>2022-07-30T08:41:37+02:00</time>
      </trkpt>
      <trkpt lat="49.2991" lon="-1.43709">
        <ele>39</ele>
        <time>2022-07-30T08:41:37+02:00</time>
      </trkpt>
      <trkpt lat="49.29906" lon="-1.43743">
        <ele>40</ele>
        <time>2022-07-30T08:41:37+02:00</time>
      </trkpt>
      <trkpt lat="49.29902" lon="-1.43779">
        <ele>40</ele>
        <time>2022-07-30T08:41:37+02:00</time>
      </trkpt>
      <trkpt lat="49.29898" lon="-1.43814">
        <ele>40</ele>
        <time>2022-07-30T08:41:37+02:00</time>
      </trkpt>
      <trkpt lat="49.29894" lon="-1.43852">
        <ele>40</ele>
        <time>2022-07-30T08:41:37+02:00</time>
      </trkpt>
      <trkpt lat="49.29892" lon="-1.43893">
        <ele>41</ele>
        <time>2022-07-30T08:41:37+02:00</time>
      </trkpt>
      <trkpt lat="49.29888" lon="-1.43932">
        <ele>41</ele>
        <time>2022-07-30T08:41:37+02:00</time>
      </trkpt>
      <trkpt lat="49.29886" lon="-1.43971">
        <ele>40</ele>
        <time>2022-07-30T08:41:37+02:00</time>
      </trkpt>
      <trkpt lat="49.29884" lon="-1.4401">
        <ele>41</ele>
        <time>2022-07-30T08:41:37+02:00</time>
      </trkpt>
      <trkpt lat="49.29878" lon="-1.44045">
        <ele>41</ele>
        <time>2022-07-30T08:41:37+02:00</time>
      </trkpt>
      <trkpt lat="49.29875" lon="-1.44082">
        <ele>41</ele>
        <time>2022-07-30T08:41:37+02:00</time>
      </trkpt>
      <trkpt lat="49.2987" lon="-1.44116">
        <ele>40</ele>
        <time>2022-07-30T08:41:37+02:00</time>
      </trkpt>
      <trkpt lat="49.29866" lon="-1.44156">
        <ele>40</ele>
        <time>2022-07-30T08:41:37+02:00</time>
      </trkpt>
      <trkpt lat="49.2986" lon="-1.4419">
        <ele>40</ele>
        <time>2022-07-30T08:41:37+02:00</time>
      </trkpt>
      <trkpt lat="49.29858" lon="-1.44233">
        <ele>39</ele>
        <time>2022-07-30T08:41:37+02:00</time>
      </trkpt>
      <trkpt lat="49.29854" lon="-1.44272">
        <ele>39</ele>
        <time>2022-07-30T08:41:37+02:00</time>
      </trkpt>
      <trkpt lat="49.29849" lon="-1.44309">
        <ele>39</ele>
        <time>2022-07-30T08:41:37+02:00</time>
      </trkpt>
      <trkpt lat="49.29846" lon="-1.44352">
        <ele>39</ele>
        <time>2022-07-30T08:41:37+02:00</time>
      </trkpt>
      <trkpt lat="49.29841" lon="-1.44392">
        <ele>38</ele>
        <time>2022-07-30T08:41:37+02:00</time>
      </trkpt>
      <trkpt lat="49.29837" lon="-1.44429">
        <ele>38</ele>
        <time>2022-07-30T08:41:37+02:00</time>
      </trkpt>
      <trkpt lat="49.29835" lon="-1.44465">
        <ele>38</ele>
        <time>2022-07-30T08:41:37+02:00</time>
      </trkpt>
      <trkpt lat="49.29832" lon="-1.44504">
        <ele>38</ele>
        <time>2022-07-30T08:41:37+02:00</time>
      </trkpt>
      <trkpt lat="49.2983" lon="-1.44538">
        <ele>38</ele>
        <time>2022-07-30T08:41:37+02:00</time>
      </trkpt>
      <trkpt lat="49.29826" lon="-1.44573">
        <ele>37</ele>
        <time>2022-07-30T08:41:37+02:00</time>
      </trkpt>
      <trkpt lat="49.29822" lon="-1.44612">
        <ele>35</ele>
        <time>2022-07-30T08:41:37+02:00</time>
      </trkpt>
      <trkpt lat="49.29818" lon="-1.44652">
        <ele>35</ele>
        <time>2022-07-30T08:41:37+02:00</time>
      </trkpt>
      <trkpt lat="49.29812" lon="-1.44688">
        <ele>35</ele>
        <time>2022-07-30T08:41:37+02:00</time>
      </trkpt>
      <trkpt lat="49.29808" lon="-1.44723">
        <ele>35</ele>
        <time>2022-07-30T08:41:37+02:00</time>
      </trkpt>
      <trkpt lat="49.29806" lon="-1.4476">
        <ele>34</ele>
        <time>2022-07-30T08:41:37+02:00</time>
      </trkpt>
      <trkpt lat="49.29801" lon="-1.44801">
        <ele>35</ele>
        <time>2022-07-30T08:41:37+02:00</time>
      </trkpt>
      <trkpt lat="49.29799" lon="-1.44837">
        <ele>33</ele>
        <time>2022-07-30T08:41:37+02:00</time>
      </trkpt>
      <trkpt lat="49.29795" lon="-1.44872">
        <ele>33</ele>
        <time>2022-07-30T08:41:37+02:00</time>
      </trkpt>
      <trkpt lat="49.29792" lon="-1.44912">
        <ele>32</ele>
        <time>2022-07-30T08:41:37+02:00</time>
      </trkpt>
      <trkpt lat="49.29788" lon="-1.44953">
        <ele>32</ele>
        <time>2022-07-30T08:41:37+02:00</time>
      </trkpt>
      <trkpt lat="49.29784" lon="-1.44992">
        <ele>32</ele>
        <time>2022-07-30T08:41:37+02:00</time>
      </trkpt>
      <trkpt lat="49.29781" lon="-1.45033">
        <ele>33</ele>
        <time>2022-07-30T08:41:37+02:00</time>
      </trkpt>
      <trkpt lat="49.29779" lon="-1.45074">
        <ele>34</ele>
        <time>2022-07-30T08:41:37+02:00</time>
      </trkpt>
      <trkpt lat="49.29775" lon="-1.4511">
        <ele>34</ele>
        <time>2022-07-30T08:41:37+02:00</time>
      </trkpt>
      <trkpt lat="49.29772" lon="-1.45149">
        <ele>32</ele>
        <time>2022-07-30T08:41:37+02:00</time>
      </trkpt>
      <trkpt lat="49.29768" lon="-1.45185">
        <ele>32</ele>
        <time>2022-07-30T08:41:37+02:00</time>
      </trkpt>
      <trkpt lat="49.29765" lon="-1.45222">
        <ele>32</ele>
        <time>2022-07-30T08:41:37+02:00</time>
      </trkpt>
      <trkpt lat="49.29761" lon="-1.45256">
        <ele>32</ele>
        <time>2022-07-30T08:41:37+02:00</time>
      </trkpt>
      <trkpt lat="49.29759" lon="-1.45292">
        <ele>31</ele>
        <time>2022-07-30T08:41:37+02:00</time>
      </trkpt>
      <trkpt lat="49.29754" lon="-1.45326">
        <ele>32</ele>
        <time>2022-07-30T08:41:37+02:00</time>
      </trkpt>
      <trkpt lat="49.29751" lon="-1.45364">
        <ele>31</ele>
        <time>2022-07-30T08:41:37+02:00</time>
      </trkpt>
      <trkpt lat="49.29748" lon="-1.45402">
        <ele>32</ele>
        <time>2022-07-30T08:41:37+02:00</time>
      </trkpt>
      <trkpt lat="49.2974" lon="-1.45439">
        <ele>32</ele>
        <time>2022-07-30T08:41:37+02:00</time>
      </trkpt>
      <trkpt lat="49.29738" lon="-1.45479">
        <ele>31</ele>
        <time>2022-07-30T08:41:37+02:00</time>
      </trkpt>
      <trkpt lat="49.29731" lon="-1.45514">
        <ele>31</ele>
        <time>2022-07-30T08:41:37+02:00</time>
      </trkpt>
      <trkpt lat="49.29729" lon="-1.45549">
        <ele>31</ele>
        <time>2022-07-30T08:41:37+02:00</time>
      </trkpt>
      <trkpt lat="49.29725" lon="-1.45585">
        <ele>31</ele>
        <time>2022-07-30T08:41:37+02:00</time>
      </trkpt>
      <trkpt lat="49.29722" lon="-1.4562">
        <ele>32</ele>
        <time>2022-07-30T08:41:37+02:00</time>
      </trkpt>
      <trkpt lat="49.2972" lon="-1.45657">
        <ele>31</ele>
        <time>2022-07-30T08:41:37+02:00</time>
      </trkpt>
      <trkpt lat="49.29717" lon="-1.45694">
        <ele>30</ele>
        <time>2022-07-30T08:41:37+02:00</time>
      </trkpt>
      <trkpt lat="49.29714" lon="-1.45731">
        <ele>31</ele>
        <time>2022-07-30T08:41:37+02:00</time>
      </trkpt>
      <trkpt lat="49.29714" lon="-1.45768">
        <ele>33</ele>
        <time>2022-07-30T08:41:37+02:00</time>
      </trkpt>
      <trkpt lat="49.29712" lon="-1.45803">
        <ele>34</ele>
        <time>2022-07-30T08:41:37+02:00</time>
      </trkpt>
      <trkpt lat="49.29711" lon="-1.4584">
        <ele>35</ele>
        <time>2022-07-30T08:41:37+02:00</time>
      </trkpt>
      <trkpt lat="49.29711" lon="-1.45879">
        <ele>36</ele>
        <time>2022-07-30T08:41:37+02:00</time>
      </trkpt>
      <trkpt lat="49.2971" lon="-1.45919">
        <ele>36</ele>
        <time>2022-07-30T08:41:37+02:00</time>
      </trkpt>
      <trkpt lat="49.2971" lon="-1.4596">
        <ele>37</ele>
        <time>2022-07-30T08:41:37+02:00</time>
      </trkpt>
      <trkpt lat="49.29711" lon="-1.45999">
        <ele>39</ele>
        <time>2022-07-30T08:41:37+02:00</time>
      </trkpt>
      <trkpt lat="49.2971" lon="-1.46037">
        <ele>39</ele>
        <time>2022-07-30T08:41:37+02:00</time>
      </trkpt>
      <trkpt lat="49.29711" lon="-1.46079">
        <ele>39</ele>
        <time>2022-07-30T08:41:37+02:00</time>
      </trkpt>
      <trkpt lat="49.29711" lon="-1.46117">
        <ele>39</ele>
        <time>2022-07-30T08:41:37+02:00</time>
      </trkpt>
      <trkpt lat="49.29713" lon="-1.46156">
        <ele>39</ele>
        <time>2022-07-30T08:41:37+02:00</time>
      </trkpt>
      <trkpt lat="49.29714" lon="-1.46195">
        <ele>39</ele>
        <time>2022-07-30T08:41:37+02:00</time>
      </trkpt>
      <trkpt lat="49.29714" lon="-1.46231">
        <ele>40</ele>
        <time>2022-07-30T08:41:37+02:00</time>
      </trkpt>
      <trkpt lat="49.29714" lon="-1.46266">
        <ele>39</ele>
        <time>2022-07-30T08:41:37+02:00</time>
      </trkpt>
      <trkpt lat="49.29714" lon="-1.46303">
        <ele>40</ele>
        <time>2022-07-30T08:41:37+02:00</time>
      </trkpt>
      <trkpt lat="49.29714" lon="-1.46345">
        <ele>40</ele>
        <time>2022-07-30T08:41:37+02:00</time>
      </trkpt>
      <trkpt lat="49.29715" lon="-1.46386">
        <ele>40</ele>
        <time>2022-07-30T08:41:37+02:00</time>
      </trkpt>
      <trkpt lat="49.29717" lon="-1.46426">
        <ele>39</ele>
        <time>2022-07-30T08:41:37+02:00</time>
      </trkpt>
      <trkpt lat="49.29717" lon="-1.46462">
        <ele>40</ele>
        <time>2022-07-30T08:41:37+02:00</time>
      </trkpt>
      <trkpt lat="49.29718" lon="-1.46502">
        <ele>40</ele>
        <time>2022-07-30T08:41:37+02:00</time>
      </trkpt>
      <trkpt lat="49.29719" lon="-1.46536">
        <ele>39</ele>
        <time>2022-07-30T08:41:37+02:00</time>
      </trkpt>
      <trkpt lat="49.2972" lon="-1.46577">
        <ele>40</ele>
        <time>2022-07-30T08:41:37+02:00</time>
      </trkpt>
      <trkpt lat="49.2972" lon="-1.46613">
        <ele>41</ele>
        <time>2022-07-30T08:41:37+02:00</time>
      </trkpt>
      <trkpt lat="49.2972" lon="-1.46654">
        <ele>40</ele>
        <time>2022-07-30T08:41:37+02:00</time>
      </trkpt>
      <trkpt lat="49.2972" lon="-1.46693">
        <ele>38</ele>
        <time>2022-07-30T08:41:37+02:00</time>
      </trkpt>
      <trkpt lat="49.29723" lon="-1.46734">
        <ele>37</ele>
        <time>2022-07-30T08:41:37+02:00</time>
      </trkpt>
      <trkpt lat="49.29724" lon="-1.46771">
        <ele>36</ele>
        <time>2022-07-30T08:41:37+02:00</time>
      </trkpt>
      <trkpt lat="49.29724" lon="-1.46807">
        <ele>37</ele>
        <time>2022-07-30T08:41:37+02:00</time>
      </trkpt>
      <trkpt lat="49.29724" lon="-1.46842">
        <ele>38</ele>
        <time>2022-07-30T08:41:37+02:00</time>
      </trkpt>
      <trkpt lat="49.29725" lon="-1.46879">
        <ele>39</ele>
        <time>2022-07-30T08:41:37+02:00</time>
      </trkpt>
      <trkpt lat="49.29726" lon="-1.4692">
        <ele>40</ele>
        <time>2022-07-30T08:41:37+02:00</time>
      </trkpt>
      <trkpt lat="49.29728" lon="-1.46959">
        <ele>41</ele>
        <time>2022-07-30T08:41:37+02:00</time>
      </trkpt>
      <trkpt lat="49.29728" lon="-1.46997">
        <ele>42</ele>
        <time>2022-07-30T08:41:37+02:00</time>
      </trkpt>
      <trkpt lat="49.29728" lon="-1.47036">
        <ele>43</ele>
        <time>2022-07-30T08:41:37+02:00</time>
      </trkpt>
      <trkpt lat="49.29728" lon="-1.47076">
        <ele>43</ele>
        <time>2022-07-30T08:41:37+02:00</time>
      </trkpt>
      <trkpt lat="49.29728" lon="-1.47116">
        <ele>42</ele>
        <time>2022-07-30T08:41:37+02:00</time>
      </trkpt>
      <trkpt lat="49.29727" lon="-1.47153">
        <ele>44</ele>
        <time>2022-07-30T08:41:37+02:00</time>
      </trkpt>
      <trkpt lat="49.29727" lon="-1.47188">
        <ele>43</ele>
        <time>2022-07-30T08:41:37+02:00</time>
      </trkpt>
      <trkpt lat="49.29727" lon="-1.47223">
        <ele>44</ele>
        <time>2022-07-30T08:41:37+02:00</time>
      </trkpt>
      <trkpt lat="49.29727" lon="-1.47263">
        <ele>44</ele>
        <time>2022-07-30T08:41:37+02:00</time>
      </trkpt>
      <trkpt lat="49.29727" lon="-1.47299">
        <ele>43</ele>
        <time>2022-07-30T08:41:37+02:00</time>
      </trkpt>
      <trkpt lat="49.29726" lon="-1.47334">
        <ele>42</ele>
        <time>2022-07-30T08:41:37+02:00</time>
      </trkpt>
      <trkpt lat="49.29726" lon="-1.4737">
        <ele>43</ele>
        <time>2022-07-30T08:41:37+02:00</time>
      </trkpt>
      <trkpt lat="49.29723" lon="-1.4741">
        <ele>44</ele>
        <time>2022-07-30T08:41:37+02:00</time>
      </trkpt>
      <trkpt lat="49.29721" lon="-1.47445">
        <ele>44</ele>
        <time>2022-07-30T08:41:37+02:00</time>
      </trkpt>
      <trkpt lat="49.29671" lon="-1.55241">
        <ele>35</ele>
        <time>2022-07-30T08:41:37+02:00</time>
      </trkpt>
      <trkpt lat="49.29671" lon="-1.55241">
        <ele>35</ele>
        <time>2022-07-30T08:41:37+02:00</time>
      </trkpt>
      <trkpt lat="49.29679" lon="-1.55266">
        <ele>34</ele>
        <time>2022-07-30T08:41:37+02:00</time>
      </trkpt>
      <trkpt lat="49.29697" lon="-1.55246">
        <ele>33</ele>
        <time>2022-07-30T08:41:37+02:00</time>
      </trkpt>
      <trkpt lat="49.29697" lon="-1.55207">
        <ele>34</ele>
        <time>2022-07-30T08:41:37+02:00</time>
      </trkpt>
      <trkpt lat="49.29687" lon="-1.55173">
        <ele>33</ele>
        <time>2022-07-30T08:41:37+02:00</time>
      </trkpt>
      <trkpt lat="49.29679" lon="-1.55136">
        <ele>35</ele>
        <time>2022-07-30T08:41:37+02:00</time>
      </trkpt>
      <trkpt lat="49.29682" lon="-1.55101">
        <ele>34</ele>
        <time>2022-07-30T08:41:37+02:00</time>
      </trkpt>
      <trkpt lat="49.29701" lon="-1.55081">
        <ele>34</ele>
        <time>2022-07-30T08:41:37+02:00</time>
      </trkpt>
      <trkpt lat="49.29721" lon="-1.55061">
        <ele>33</ele>
        <time>2022-07-30T08:41:37+02:00</time>
      </trkpt>
      <trkpt lat="49.29742" lon="-1.55041">
        <ele>32</ele>
        <time>2022-07-30T08:41:37+02:00</time>
      </trkpt>
      <trkpt lat="49.29762" lon="-1.55017">
        <ele>32</ele>
        <time>2022-07-30T08:41:37+02:00</time>
      </trkpt>
      <trkpt lat="49.29782" lon="-1.54993">
        <ele>31</ele>
        <time>2022-07-30T08:41:37+02:00</time>
      </trkpt>
      <trkpt lat="49.29792" lon="-1.54954">
        <ele>31</ele>
        <time>2022-07-30T08:41:37+02:00</time>
      </trkpt>
      <trkpt lat="49.29804" lon="-1.54921">
        <ele>30</ele>
        <time>2022-07-30T08:41:37+02:00</time>
      </trkpt>
      <trkpt lat="49.29818" lon="-1.54891">
        <ele>29</ele>
        <time>2022-07-30T08:41:37+02:00</time>
      </trkpt>
      <trkpt lat="49.29832" lon="-1.54863">
        <ele>30</ele>
        <time>2022-07-30T08:41:37+02:00</time>
      </trkpt>
      <trkpt lat="49.29848" lon="-1.54832">
        <ele>30</ele>
        <time>2022-07-30T08:41:37+02:00</time>
      </trkpt>
      <trkpt lat="49.29864" lon="-1.54803">
        <ele>32</ele>
        <time>2022-07-30T08:41:37+02:00</time>
      </trkpt>
      <trkpt lat="49.29887" lon="-1.54815">
        <ele>33</ele>
        <time>2022-07-30T08:41:37+02:00</time>
      </trkpt>
      <trkpt lat="49.29908" lon="-1.54832">
        <ele>32</ele>
        <time>2022-07-30T08:41:37+02:00</time>
      </trkpt>
      <trkpt lat="49.29933" lon="-1.54843">
        <ele>32</ele>
        <time>2022-07-30T08:41:37+02:00</time>
      </trkpt>
      <trkpt lat="49.29957" lon="-1.54857">
        <ele>32</ele>
        <time>2022-07-30T08:41:37+02:00</time>
      </trkpt>
      <trkpt lat="49.29982" lon="-1.54874">
        <ele>32</ele>
        <time>2022-07-30T08:41:37+02:00</time>
      </trkpt>
      <trkpt lat="49.30004" lon="-1.54891">
        <ele>32</ele>
        <time>2022-07-30T08:41:37+02:00</time>
      </trkpt>
      <trkpt lat="49.30024" lon="-1.54908">
        <ele>31</ele>
        <time>2022-07-30T08:41:37+02:00</time>
      </trkpt>
      <trkpt lat="49.30052" lon="-1.54907">
        <ele>31</ele>
        <time>2022-07-30T08:41:37+02:00</time>
      </trkpt>
      <trkpt lat="49.30073" lon="-1.54897">
        <ele>32</ele>
        <time>2022-07-30T08:41:37+02:00</time>
      </trkpt>
      <trkpt lat="49.30089" lon="-1.54924">
        <ele>34</ele>
        <time>2022-07-30T08:41:37+02:00</time>
      </trkpt>
      <trkpt lat="49.30091" lon="-1.54964">
        <ele>34</ele>
        <time>2022-07-30T08:41:37+02:00</time>
      </trkpt>
      <trkpt lat="49.30091" lon="-1.55003">
        <ele>34</ele>
        <time>2022-07-30T08:41:37+02:00</time>
      </trkpt>
      <trkpt lat="49.3009" lon="-1.55041">
        <ele>33</ele>
        <time>2022-07-30T08:41:37+02:00</time>
      </trkpt>
      <trkpt lat="49.30089" lon="-1.55077">
        <ele>32</ele>
        <time>2022-07-30T08:41:37+02:00</time>
      </trkpt>
      <trkpt lat="49.30089" lon="-1.55115">
        <ele>32</ele>
        <time>2022-07-30T08:41:37+02:00</time>
      </trkpt>
      <trkpt lat="49.30092" lon="-1.5515">
        <ele>32</ele>
        <time>2022-07-30T08:41:37+02:00</time>
      </trkpt>
      <trkpt lat="49.30091" lon="-1.55186">
        <ele>32</ele>
        <time>2022-07-30T08:41:37+02:00</time>
      </trkpt>
      <trkpt lat="49.3009" lon="-1.55225">
        <ele>32</ele>
        <time>2022-07-30T08:41:37+02:00</time>
      </trkpt>
      <trkpt lat="49.30089" lon="-1.55263">
        <ele>32</ele>
        <time>2022-07-30T08:41:37+02:00</time>
      </trkpt>
      <trkpt lat="49.30089" lon="-1.553">
        <ele>32</ele>
        <time>2022-07-30T08:41:37+02:00</time>
      </trkpt>
      <trkpt lat="49.3009" lon="-1.5534">
        <ele>32</ele>
        <time>2022-07-30T08:41:37+02:00</time>
      </trkpt>
      <trkpt lat="49.30093" lon="-1.55379">
        <ele>32</ele>
        <time>2022-07-30T08:41:37+02:00</time>
      </trkpt>
      <trkpt lat="49.30096" lon="-1.55414">
        <ele>32</ele>
        <time>2022-07-30T08:41:37+02:00</time>
      </trkpt>
      <trkpt lat="49.30098" lon="-1.55449">
        <ele>32</ele>
        <time>2022-07-30T08:41:37+02:00</time>
      </trkpt>
      <trkpt lat="49.30102" lon="-1.55484">
        <ele>32</ele>
        <time>2022-07-30T08:41:37+02:00</time>
      </trkpt>
      <trkpt lat="49.30107" lon="-1.55518">
        <ele>33</ele>
        <time>2022-07-30T08:41:37+02:00</time>
      </trkpt>
      <trkpt lat="49.30113" lon="-1.55551">
        <ele>34</ele>
        <time>2022-07-30T08:41:37+02:00</time>
      </trkpt>
      <trkpt lat="49.30119" lon="-1.55588">
        <ele>35</ele>
        <time>2022-07-30T08:41:37+02:00</time>
      </trkpt>
      <trkpt lat="49.30127" lon="-1.55622">
        <ele>36</ele>
        <time>2022-07-30T08:41:37+02:00</time>
      </trkpt>
      <trkpt lat="49.30137" lon="-1.5566">
        <ele>36</ele>
        <time>2022-07-30T08:41:37+02:00</time>
      </trkpt>
      <trkpt lat="49.30147" lon="-1.55698">
        <ele>37</ele>
        <time>2022-07-30T08:41:37+02:00</time>
      </trkpt>
      <trkpt lat="49.30155" lon="-1.55734">
        <ele>36</ele>
        <time>2022-07-30T08:41:37+02:00</time>
      </trkpt>
      <trkpt lat="49.3016" lon="-1.55769">
        <ele>35</ele>
        <time>2022-07-30T08:41:37+02:00</time>
      </trkpt>
      <trkpt lat="49.30163" lon="-1.55806">
        <ele>34</ele>
        <time>2022-07-30T08:41:37+02:00</time>
      </trkpt>
      <trkpt lat="49.30164" lon="-1.55852">
        <ele>34</ele>
        <time>2022-07-30T08:41:37+02:00</time>
      </trkpt>
      <trkpt lat="49.30165" lon="-1.55891">
        <ele>34</ele>
        <time>2022-07-30T08:41:37+02:00</time>
      </trkpt>
      <trkpt lat="49.30166" lon="-1.55927">
        <ele>34</ele>
        <time>2022-07-30T08:41:37+02:00</time>
      </trkpt>
      <trkpt lat="49.30165" lon="-1.5597">
        <ele>33</ele>
        <time>2022-07-30T08:41:37+02:00</time>
      </trkpt>
      <trkpt lat="49.30158" lon="-1.56009">
        <ele>33</ele>
        <time>2022-07-30T08:41:37+02:00</time>
      </trkpt>
      <trkpt lat="49.30149" lon="-1.56043">
        <ele>33</ele>
        <time>2022-07-30T08:41:37+02:00</time>
      </trkpt>
      <trkpt lat="49.30144" lon="-1.56082">
        <ele>32</ele>
        <time>2022-07-30T08:41:37+02:00</time>
      </trkpt>
      <trkpt lat="49.30151" lon="-1.56123">
        <ele>30</ele>
        <time>2022-07-30T08:41:37+02:00</time>
      </trkpt>
      <trkpt lat="49.30146" lon="-1.56157">
        <ele>30</ele>
        <time>2022-07-30T08:41:37+02:00</time>
      </trkpt>
      <trkpt lat="49.30123" lon="-1.56173">
        <ele>30</ele>
        <time>2022-07-30T08:41:37+02:00</time>
      </trkpt>
      <trkpt lat="49.301" lon="-1.56191">
        <ele>30</ele>
        <time>2022-07-30T08:41:37+02:00</time>
      </trkpt>
      <trkpt lat="49.30076" lon="-1.56211">
        <ele>28</ele>
        <time>2022-07-30T08:41:37+02:00</time>
      </trkpt>
      <trkpt lat="49.3005" lon="-1.56225">
        <ele>27</ele>
        <time>2022-07-30T08:41:37+02:00</time>
      </trkpt>
      <trkpt lat="49.30025" lon="-1.56224">
        <ele>26</ele>
        <time>2022-07-30T08:41:37+02:00</time>
      </trkpt>
      <trkpt lat="49.30002" lon="-1.56212">
        <ele>26</ele>
        <time>2022-07-30T08:41:37+02:00</time>
      </trkpt>
      <trkpt lat="49.29994" lon="-1.56249">
        <ele>26</ele>
        <time>2022-07-30T08:41:37+02:00</time>
      </trkpt>
      <trkpt lat="49.30004" lon="-1.56284">
        <ele>26</ele>
        <time>2022-07-30T08:41:37+02:00</time>
      </trkpt>
      <trkpt lat="49.30016" lon="-1.56323">
        <ele>26</ele>
        <time>2022-07-30T08:41:37+02:00</time>
      </trkpt>
      <trkpt lat="49.30027" lon="-1.56355">
        <ele>26</ele>
        <time>2022-07-30T08:41:37+02:00</time>
      </trkpt>
      <trkpt lat="49.3004" lon="-1.5639">
        <ele>26</ele>
        <time>2022-07-30T08:41:37+02:00</time>
      </trkpt>
      <trkpt lat="49.30052" lon="-1.56426">
        <ele>26</ele>
        <time>2022-07-30T08:41:37+02:00</time>
      </trkpt>
      <trkpt lat="49.30066" lon="-1.5646">
        <ele>26</ele>
        <time>2022-07-30T08:41:37+02:00</time>
      </trkpt>
      <trkpt lat="49.3008" lon="-1.56497">
        <ele>26</ele>
        <time>2022-07-30T08:41:37+02:00</time>
      </trkpt>
      <trkpt lat="49.30095" lon="-1.56531">
        <ele>26</ele>
        <time>2022-07-30T08:41:37+02:00</time>
      </trkpt>
      <trkpt lat="49.3011" lon="-1.56565">
        <ele>26</ele>
        <time>2022-07-30T08:41:37+02:00</time>
      </trkpt>
      <trkpt lat="49.30125" lon="-1.56599">
        <ele>26</ele>
        <time>2022-07-30T08:41:37+02:00</time>
      </trkpt>
      <trkpt lat="49.3014" lon="-1.56634">
        <ele>26</ele>
        <time>2022-07-30T08:41:37+02:00</time>
      </trkpt>
      <trkpt lat="49.30154" lon="-1.56662">
        <ele>26</ele>
        <time>2022-07-30T08:41:37+02:00</time>
      </trkpt>
      <trkpt lat="49.30169" lon="-1.56694">
        <ele>26</ele>
        <time>2022-07-30T08:41:37+02:00</time>
      </trkpt>
      <trkpt lat="49.30185" lon="-1.56726">
        <ele>26</ele>
        <time>2022-07-30T08:41:37+02:00</time>
      </trkpt>
      <trkpt lat="49.30202" lon="-1.56756">
        <ele>25</ele>
        <time>2022-07-30T08:41:37+02:00</time>
      </trkpt>
      <trkpt lat="49.30217" lon="-1.56788">
        <ele>25</ele>
        <time>2022-07-30T08:41:37+02:00</time>
      </trkpt>
      <trkpt lat="49.30235" lon="-1.56815">
        <ele>24</ele>
        <time>2022-07-30T08:41:37+02:00</time>
      </trkpt>
      <trkpt lat="49.30248" lon="-1.56847">
        <ele>25</ele>
        <time>2022-07-30T08:41:37+02:00</time>
      </trkpt>
      <trkpt lat="49.30265" lon="-1.56872">
        <ele>24</ele>
        <time>2022-07-30T08:41:37+02:00</time>
      </trkpt>
      <trkpt lat="49.30281" lon="-1.56899">
        <ele>24</ele>
        <time>2022-07-30T08:41:37+02:00</time>
      </trkpt>
      <trkpt lat="49.30298" lon="-1.56929">
        <ele>25</ele>
        <time>2022-07-30T08:41:37+02:00</time>
      </trkpt>
      <trkpt lat="49.30317" lon="-1.56957">
        <ele>25</ele>
        <time>2022-07-30T08:41:37+02:00</time>
      </trkpt>
      <trkpt lat="49.30335" lon="-1.56984">
        <ele>24</ele>
        <time>2022-07-30T08:41:37+02:00</time>
      </trkpt>
      <trkpt lat="49.30353" lon="-1.57012">
        <ele>24</ele>
        <time>2022-07-30T08:41:37+02:00</time>
      </trkpt>
      <trkpt lat="49.30371" lon="-1.57041">
        <ele>23</ele>
        <time>2022-07-30T08:41:37+02:00</time>
      </trkpt>
      <trkpt lat="49.30389" lon="-1.57067">
        <ele>24</ele>
        <time>2022-07-30T08:41:37+02:00</time>
      </trkpt>
      <trkpt lat="49.30408" lon="-1.57096">
        <ele>24</ele>
        <time>2022-07-30T08:41:37+02:00</time>
      </trkpt>
      <trkpt lat="49.30425" lon="-1.57125">
        <ele>24</ele>
        <time>2022-07-30T08:41:37+02:00</time>
      </trkpt>
      <trkpt lat="49.30454" lon="-1.57134">
        <ele>24</ele>
        <time>2022-07-30T08:41:37+02:00</time>
      </trkpt>
      <trkpt lat="49.3047" lon="-1.57163">
        <ele>25</ele>
        <time>2022-07-30T08:41:37+02:00</time>
      </trkpt>
      <trkpt lat="49.30488" lon="-1.57189">
        <ele>24</ele>
        <time>2022-07-30T08:41:37+02:00</time>
      </trkpt>
      <trkpt lat="49.30505" lon="-1.57217">
        <ele>25</ele>
        <time>2022-07-30T08:41:37+02:00</time>
      </trkpt>
      <trkpt lat="49.30521" lon="-1.57243">
        <ele>26</ele>
        <time>2022-07-30T08:41:37+02:00</time>
      </trkpt>
      <trkpt lat="49.30538" lon="-1.57269">
        <ele>26</ele>
        <time>2022-07-30T08:41:37+02:00</time>
      </trkpt>
      <trkpt lat="49.30555" lon="-1.57296">
        <ele>27</ele>
        <time>2022-07-30T08:41:37+02:00</time>
      </trkpt>
      <trkpt lat="49.30572" lon="-1.57321">
        <ele>27</ele>
        <time>2022-07-30T08:41:37+02:00</time>
      </trkpt>
      <trkpt lat="49.3059" lon="-1.57349">
        <ele>28</ele>
        <time>2022-07-30T08:41:37+02:00</time>
      </trkpt>
      <trkpt lat="49.30607" lon="-1.57374">
        <ele>28</ele>
        <time>2022-07-30T08:41:37+02:00</time>
      </trkpt>
      <trkpt lat="49.30627" lon="-1.57397">
        <ele>25</ele>
        <time>2022-07-30T08:41:37+02:00</time>
      </trkpt>
      <trkpt lat="49.30646" lon="-1.57423">
        <ele>23</ele>
        <time>2022-07-30T08:41:37+02:00</time>
      </trkpt>
      <trkpt lat="49.30654" lon="-1.5746">
        <ele>26</ele>
        <time>2022-07-30T08:41:37+02:00</time>
      </trkpt>
      <trkpt lat="49.30677" lon="-1.57457">
        <ele>26</ele>
        <time>2022-07-30T08:41:37+02:00</time>
      </trkpt>
      <trkpt lat="49.30678" lon="-1.57529">
        <ele>28</ele>
        <time>2022-07-30T08:41:37+02:00</time>
      </trkpt>
      <trkpt lat="49.30695" lon="-1.57554">
        <ele>30</ele>
        <time>2022-07-30T08:41:37+02:00</time>
      </trkpt>
      <trkpt lat="49.30711" lon="-1.57582">
        <ele>30</ele>
        <time>2022-07-30T08:41:37+02:00</time>
      </trkpt>
      <trkpt lat="49.30727" lon="-1.57608">
        <ele>29</ele>
        <time>2022-07-30T08:41:37+02:00</time>
      </trkpt>
      <trkpt lat="49.30743" lon="-1.57635">
        <ele>32</ele>
        <time>2022-07-30T08:41:37+02:00</time>
      </trkpt>
      <trkpt lat="49.30756" lon="-1.57663">
        <ele>32</ele>
        <time>2022-07-30T08:41:37+02:00</time>
      </trkpt>
      <trkpt lat="49.30771" lon="-1.57695">
        <ele>33</ele>
        <time>2022-07-30T08:41:37+02:00</time>
      </trkpt>
      <trkpt lat="49.30787" lon="-1.57727">
        <ele>34</ele>
        <time>2022-07-30T08:41:37+02:00</time>
      </trkpt>
      <trkpt lat="49.30802" lon="-1.57759">
        <ele>34</ele>
        <time>2022-07-30T08:41:37+02:00</time>
      </trkpt>
      <trkpt lat="49.30816" lon="-1.5779">
        <ele>35</ele>
        <time>2022-07-30T08:41:37+02:00</time>
      </trkpt>
      <trkpt lat="49.30829" lon="-1.57826">
        <ele>34</ele>
        <time>2022-07-30T08:41:37+02:00</time>
      </trkpt>
      <trkpt lat="49.30841" lon="-1.57856">
        <ele>34</ele>
        <time>2022-07-30T08:41:37+02:00</time>
      </trkpt>
      <trkpt lat="49.30852" lon="-1.57886">
        <ele>34</ele>
        <time>2022-07-30T08:41:37+02:00</time>
      </trkpt>
      <trkpt lat="49.30862" lon="-1.57917">
        <ele>33</ele>
        <time>2022-07-30T08:41:37+02:00</time>
      </trkpt>
      <trkpt lat="49.30875" lon="-1.57953">
        <ele>34</ele>
        <time>2022-07-30T08:41:37+02:00</time>
      </trkpt>
      <trkpt lat="49.30888" lon="-1.57987">
        <ele>35</ele>
        <time>2022-07-30T08:41:37+02:00</time>
      </trkpt>
      <trkpt lat="49.30901" lon="-1.58022">
        <ele>35</ele>
        <time>2022-07-30T08:41:37+02:00</time>
      </trkpt>
      <trkpt lat="49.30913" lon="-1.58051">
        <ele>36</ele>
        <time>2022-07-30T08:41:37+02:00</time>
      </trkpt>
      <trkpt lat="49.30923" lon="-1.58086">
        <ele>36</ele>
        <time>2022-07-30T08:41:37+02:00</time>
      </trkpt>
      <trkpt lat="49.30935" lon="-1.58119">
        <ele>37</ele>
        <time>2022-07-30T08:41:37+02:00</time>
      </trkpt>
      <trkpt lat="49.30948" lon="-1.58152">
        <ele>37</ele>
        <time>2022-07-30T08:41:37+02:00</time>
      </trkpt>
      <trkpt lat="49.30961" lon="-1.58183">
        <ele>38</ele>
        <time>2022-07-30T08:41:37+02:00</time>
      </trkpt>
      <trkpt lat="49.30972" lon="-1.58215">
        <ele>38</ele>
        <time>2022-07-30T08:41:37+02:00</time>
      </trkpt>
      <trkpt lat="49.30984" lon="-1.58247">
        <ele>39</ele>
        <time>2022-07-30T08:41:37+02:00</time>
      </trkpt>
      <trkpt lat="49.30996" lon="-1.58279">
        <ele>39</ele>
        <time>2022-07-30T08:41:37+02:00</time>
      </trkpt>
      <trkpt lat="49.31008" lon="-1.58312">
        <ele>39</ele>
        <time>2022-07-30T08:41:37+02:00</time>
      </trkpt>
      <trkpt lat="49.3102" lon="-1.58343">
        <ele>39</ele>
        <time>2022-07-30T08:41:37+02:00</time>
      </trkpt>
      <trkpt lat="49.31032" lon="-1.58375">
        <ele>39</ele>
        <time>2022-07-30T08:41:37+02:00</time>
      </trkpt>
      <trkpt lat="49.31044" lon="-1.58407">
        <ele>39</ele>
        <time>2022-07-30T08:41:37+02:00</time>
      </trkpt>
      <trkpt lat="49.31056" lon="-1.58441">
        <ele>39</ele>
        <time>2022-07-30T08:41:37+02:00</time>
      </trkpt>
      <trkpt lat="49.31068" lon="-1.58475">
        <ele>40</ele>
        <time>2022-07-30T08:41:37+02:00</time>
      </trkpt>
      <trkpt lat="49.31081" lon="-1.58508">
        <ele>40</ele>
        <time>2022-07-30T08:41:37+02:00</time>
      </trkpt>
      <trkpt lat="49.31093" lon="-1.5854">
        <ele>39</ele>
        <time>2022-07-30T08:41:37+02:00</time>
      </trkpt>
      <trkpt lat="49.31104" lon="-1.58571">
        <ele>40</ele>
        <time>2022-07-30T08:41:37+02:00</time>
      </trkpt>
      <trkpt lat="49.31118" lon="-1.58605">
        <ele>40</ele>
        <time>2022-07-30T08:41:37+02:00</time>
      </trkpt>
      <trkpt lat="49.3113" lon="-1.58639">
        <ele>39</ele>
        <time>2022-07-30T08:41:37+02:00</time>
      </trkpt>
      <trkpt lat="49.31142" lon="-1.58676">
        <ele>39</ele>
        <time>2022-07-30T08:41:37+02:00</time>
      </trkpt>
      <trkpt lat="49.31153" lon="-1.58706">
        <ele>38</ele>
        <time>2022-07-30T08:41:37+02:00</time>
      </trkpt>
      <trkpt lat="49.31163" lon="-1.58738">
        <ele>37</ele>
        <time>2022-07-30T08:41:37+02:00</time>
      </trkpt>
      <trkpt lat="49.31175" lon="-1.58771">
        <ele>38</ele>
        <time>2022-07-30T08:41:37+02:00</time>
      </trkpt>
      <trkpt lat="49.31188" lon="-1.58804">
        <ele>37</ele>
        <time>2022-07-30T08:41:37+02:00</time>
      </trkpt>
      <trkpt lat="49.31201" lon="-1.58836">
        <ele>37</ele>
        <time>2022-07-30T08:41:37+02:00</time>
      </trkpt>
      <trkpt lat="49.31214" lon="-1.58869">
        <ele>36</ele>
        <time>2022-07-30T08:41:37+02:00</time>
      </trkpt>
      <trkpt lat="49.31227" lon="-1.58901">
        <ele>36</ele>
        <time>2022-07-30T08:41:37+02:00</time>
      </trkpt>
      <trkpt lat="49.31238" lon="-1.58932">
        <ele>36</ele>
        <time>2022-07-30T08:41:37+02:00</time>
      </trkpt>
      <trkpt lat="49.3125" lon="-1.58965">
        <ele>35</ele>
        <time>2022-07-30T08:41:37+02:00</time>
      </trkpt>
      <trkpt lat="49.31262" lon="-1.58998">
        <ele>33</ele>
        <time>2022-07-30T08:41:37+02:00</time>
      </trkpt>
      <trkpt lat="49.31274" lon="-1.59031">
        <ele>33</ele>
        <time>2022-07-30T08:41:37+02:00</time>
      </trkpt>
      <trkpt lat="49.31287" lon="-1.59066">
        <ele>32</ele>
        <time>2022-07-30T08:41:37+02:00</time>
      </trkpt>
      <trkpt lat="49.31301" lon="-1.59101">
        <ele>31</ele>
        <time>2022-07-30T08:41:37+02:00</time>
      </trkpt>
      <trkpt lat="49.31313" lon="-1.59133">
        <ele>31</ele>
        <time>2022-07-30T08:41:37+02:00</time>
      </trkpt>
      <trkpt lat="49.31326" lon="-1.59164">
        <ele>31</ele>
        <time>2022-07-30T08:41:37+02:00</time>
      </trkpt>
      <trkpt lat="49.3134" lon="-1.59198">
        <ele>31</ele>
        <time>2022-07-30T08:41:37+02:00</time>
      </trkpt>
      <trkpt lat="49.31354" lon="-1.5923">
        <ele>31</ele>
        <time>2022-07-30T08:41:37+02:00</time>
      </trkpt>
      <trkpt lat="49.31368" lon="-1.59262">
        <ele>30</ele>
        <time>2022-07-30T08:41:37+02:00</time>
      </trkpt>
      <trkpt lat="49.31382" lon="-1.59292">
        <ele>31</ele>
        <time>2022-07-30T08:41:37+02:00</time>
      </trkpt>
      <trkpt lat="49.31395" lon="-1.59322">
        <ele>31</ele>
        <time>2022-07-30T08:41:37+02:00</time>
      </trkpt>
      <trkpt lat="49.31407" lon="-1.59351">
        <ele>30</ele>
        <time>2022-07-30T08:41:37+02:00</time>
      </trkpt>
      <trkpt lat="49.3142" lon="-1.5938">
        <ele>30</ele>
        <time>2022-07-30T08:41:37+02:00</time>
      </trkpt>
      <trkpt lat="49.31434" lon="-1.59409">
        <ele>30</ele>
        <time>2022-07-30T08:41:37+02:00</time>
      </trkpt>
      <trkpt lat="49.31445" lon="-1.59444">
        <ele>31</ele>
        <time>2022-07-30T08:41:37+02:00</time>
      </trkpt>
      <trkpt lat="49.31459" lon="-1.59475">
        <ele>31</ele>
        <time>2022-07-30T08:41:37+02:00</time>
      </trkpt>
      <trkpt lat="49.31474" lon="-1.59509">
        <ele>31</ele>
        <time>2022-07-30T08:41:37+02:00</time>
      </trkpt>
      <trkpt lat="49.31487" lon="-1.59538">
        <ele>30</ele>
        <time>2022-07-30T08:41:37+02:00</time>
      </trkpt>
      <trkpt lat="49.31503" lon="-1.59574">
        <ele>30</ele>
        <time>2022-07-30T08:41:37+02:00</time>
      </trkpt>
      <trkpt lat="49.31517" lon="-1.59601">
        <ele>30</ele>
        <time>2022-07-30T08:41:37+02:00</time>
      </trkpt>
      <trkpt lat="49.3153" lon="-1.59632">
        <ele>30</ele>
        <time>2022-07-30T08:41:37+02:00</time>
      </trkpt>
      <trkpt lat="49.31545" lon="-1.59669">
        <ele>30</ele>
        <time>2022-07-30T08:41:37+02:00</time>
      </trkpt>
      <trkpt lat="49.3156" lon="-1.59705">
        <ele>30</ele>
        <time>2022-07-30T08:41:37+02:00</time>
      </trkpt>
      <trkpt lat="49.31573" lon="-1.59734">
        <ele>30</ele>
        <time>2022-07-30T08:41:37+02:00</time>
      </trkpt>
      <trkpt lat="49.31584" lon="-1.59765">
        <ele>31</ele>
        <time>2022-07-30T08:41:37+02:00</time>
      </trkpt>
      <trkpt lat="49.31598" lon="-1.59802">
        <ele>30</ele>
        <time>2022-07-30T08:41:37+02:00</time>
      </trkpt>
      <trkpt lat="49.31608" lon="-1.59833">
        <ele>30</ele>
        <time>2022-07-30T08:41:37+02:00</time>
      </trkpt>
      <trkpt lat="49.3162" lon="-1.59867">
        <ele>30</ele>
        <time>2022-07-30T08:41:37+02:00</time>
      </trkpt>
      <trkpt lat="49.31631" lon="-1.59899">
        <ele>31</ele>
        <time>2022-07-30T08:41:37+02:00</time>
      </trkpt>
      <trkpt lat="49.31643" lon="-1.59931">
        <ele>31</ele>
        <time>2022-07-30T08:41:37+02:00</time>
      </trkpt>
      <trkpt lat="49.31652" lon="-1.59963">
        <ele>31</ele>
        <time>2022-07-30T08:41:37+02:00</time>
      </trkpt>
      <trkpt lat="49.31663" lon="-1.59998">
        <ele>29</ele>
        <time>2022-07-30T08:41:37+02:00</time>
      </trkpt>
      <trkpt lat="49.31672" lon="-1.60034">
        <ele>29</ele>
        <time>2022-07-30T08:41:37+02:00</time>
      </trkpt>
      <trkpt lat="49.31684" lon="-1.60068">
        <ele>29</ele>
        <time>2022-07-30T08:41:37+02:00</time>
      </trkpt>
      <trkpt lat="49.31694" lon="-1.60103">
        <ele>29</ele>
        <time>2022-07-30T08:41:37+02:00</time>
      </trkpt>
      <trkpt lat="49.31705" lon="-1.60139">
        <ele>27</ele>
        <time>2022-07-30T08:41:37+02:00</time>
      </trkpt>
      <trkpt lat="49.31713" lon="-1.60173">
        <ele>28</ele>
        <time>2022-07-30T08:41:37+02:00</time>
      </trkpt>
      <trkpt lat="49.31724" lon="-1.60207">
        <ele>27</ele>
        <time>2022-07-30T08:41:37+02:00</time>
      </trkpt>
      <trkpt lat="49.31734" lon="-1.60242">
        <ele>26</ele>
        <time>2022-07-30T08:41:37+02:00</time>
      </trkpt>
      <trkpt lat="49.31743" lon="-1.60277">
        <ele>24</ele>
        <time>2022-07-30T08:41:37+02:00</time>
      </trkpt>
      <trkpt lat="49.31753" lon="-1.60312">
        <ele>24</ele>
        <time>2022-07-30T08:41:37+02:00</time>
      </trkpt>
      <trkpt lat="49.31764" lon="-1.60346">
        <ele>24</ele>
        <time>2022-07-30T08:41:37+02:00</time>
      </trkpt>
      <trkpt lat="49.31774" lon="-1.60384">
        <ele>24</ele>
        <time>2022-07-30T08:41:37+02:00</time>
      </trkpt>
      <trkpt lat="49.31786" lon="-1.60416">
        <ele>23</ele>
        <time>2022-07-30T08:41:37+02:00</time>
      </trkpt>
      <trkpt lat="49.31797" lon="-1.60454">
        <ele>23</ele>
        <time>2022-07-30T08:41:37+02:00</time>
      </trkpt>
      <trkpt lat="49.31809" lon="-1.60487">
        <ele>24</ele>
        <time>2022-07-30T08:41:37+02:00</time>
      </trkpt>
      <trkpt lat="49.31819" lon="-1.60522">
        <ele>22</ele>
        <time>2022-07-30T08:41:37+02:00</time>
      </trkpt>
      <trkpt lat="49.31827" lon="-1.60561">
        <ele>22</ele>
        <time>2022-07-30T08:41:37+02:00</time>
      </trkpt>
      <trkpt lat="49.31841" lon="-1.60596">
        <ele>21</ele>
        <time>2022-07-30T08:41:37+02:00</time>
      </trkpt>
      <trkpt lat="49.31851" lon="-1.6063">
        <ele>21</ele>
        <time>2022-07-30T08:41:37+02:00</time>
      </trkpt>
      <trkpt lat="49.3186" lon="-1.60665">
        <ele>19</ele>
        <time>2022-07-30T08:41:37+02:00</time>
      </trkpt>
      <trkpt lat="49.3187" lon="-1.60698">
        <ele>19</ele>
        <time>2022-07-30T08:41:37+02:00</time>
      </trkpt>
      <trkpt lat="49.3188" lon="-1.60733">
        <ele>18</ele>
        <time>2022-07-30T08:41:37+02:00</time>
      </trkpt>
      <trkpt lat="49.3189" lon="-1.60767">
        <ele>18</ele>
        <time>2022-07-30T08:41:37+02:00</time>
      </trkpt>
      <trkpt lat="49.319" lon="-1.60799">
        <ele>18</ele>
        <time>2022-07-30T08:41:37+02:00</time>
      </trkpt>
      <trkpt lat="49.3191" lon="-1.60834">
        <ele>16</ele>
        <time>2022-07-30T08:41:37+02:00</time>
      </trkpt>
      <trkpt lat="49.31921" lon="-1.60866">
        <ele>16</ele>
        <time>2022-07-30T08:41:37+02:00</time>
      </trkpt>
      <trkpt lat="49.31929" lon="-1.609">
        <ele>16</ele>
        <time>2022-07-30T08:41:37+02:00</time>
      </trkpt>
      <trkpt lat="49.31939" lon="-1.60932">
        <ele>15</ele>
        <time>2022-07-30T08:41:37+02:00</time>
      </trkpt>
      <trkpt lat="49.31948" lon="-1.60964">
        <ele>14</ele>
        <time>2022-07-30T08:41:37+02:00</time>
      </trkpt>
      <trkpt lat="49.31958" lon="-1.60997">
        <ele>14</ele>
        <time>2022-07-30T08:41:37+02:00</time>
      </trkpt>
      <trkpt lat="49.31967" lon="-1.61031">
        <ele>13</ele>
        <time>2022-07-30T08:41:37+02:00</time>
      </trkpt>
      <trkpt lat="49.31978" lon="-1.61064">
        <ele>13</ele>
        <time>2022-07-30T08:41:37+02:00</time>
      </trkpt>
      <trkpt lat="49.31988" lon="-1.61096">
        <ele>10</ele>
        <time>2022-07-30T08:41:37+02:00</time>
      </trkpt>
      <trkpt lat="49.31997" lon="-1.6113">
        <ele>11</ele>
        <time>2022-07-30T08:41:37+02:00</time>
      </trkpt>
      <trkpt lat="49.32007" lon="-1.61167">
        <ele>11</ele>
        <time>2022-07-30T08:41:37+02:00</time>
      </trkpt>
      <trkpt lat="49.32018" lon="-1.612">
        <ele>12</ele>
        <time>2022-07-30T08:41:37+02:00</time>
      </trkpt>
      <trkpt lat="49.32028" lon="-1.61233">
        <ele>12</ele>
        <time>2022-07-30T08:41:37+02:00</time>
      </trkpt>
      <trkpt lat="49.3204" lon="-1.61272">
        <ele>12</ele>
        <time>2022-07-30T08:41:37+02:00</time>
      </trkpt>
      <trkpt lat="49.3205" lon="-1.61305">
        <ele>11</ele>
        <time>2022-07-30T08:41:37+02:00</time>
      </trkpt>
      <trkpt lat="49.32063" lon="-1.61346">
        <ele>11</ele>
        <time>2022-07-30T08:41:37+02:00</time>
      </trkpt>
      <trkpt lat="49.32075" lon="-1.61384">
        <ele>11</ele>
        <time>2022-07-30T08:41:37+02:00</time>
      </trkpt>
      <trkpt lat="49.32085" lon="-1.61416">
        <ele>11</ele>
        <time>2022-07-30T08:41:37+02:00</time>
      </trkpt>
      <trkpt lat="49.32096" lon="-1.61446">
        <ele>12</ele>
        <time>2022-07-30T08:41:37+02:00</time>
      </trkpt>
      <trkpt lat="49.32106" lon="-1.61478">
        <ele>11</ele>
        <time>2022-07-30T08:41:37+02:00</time>
      </trkpt>
      <trkpt lat="49.32118" lon="-1.61509">
        <ele>11</ele>
        <time>2022-07-30T08:41:37+02:00</time>
      </trkpt>
      <trkpt lat="49.32131" lon="-1.61547">
        <ele>10</ele>
        <time>2022-07-30T08:41:37+02:00</time>
      </trkpt>
      <trkpt lat="49.32143" lon="-1.61579">
        <ele>12</ele>
        <time>2022-07-30T08:41:37+02:00</time>
      </trkpt>
      <trkpt lat="49.32154" lon="-1.61608">
        <ele>12</ele>
        <time>2022-07-30T08:41:37+02:00</time>
      </trkpt>
      <trkpt lat="49.32168" lon="-1.61645">
        <ele>13</ele>
        <time>2022-07-30T08:41:37+02:00</time>
      </trkpt>
      <trkpt lat="49.32183" lon="-1.61681">
        <ele>13</ele>
        <time>2022-07-30T08:41:37+02:00</time>
      </trkpt>
      <trkpt lat="49.32195" lon="-1.61711">
        <ele>13</ele>
        <time>2022-07-30T08:41:37+02:00</time>
      </trkpt>
      <trkpt lat="49.3221" lon="-1.61745">
        <ele>13</ele>
        <time>2022-07-30T08:41:37+02:00</time>
      </trkpt>
      <trkpt lat="49.32222" lon="-1.61775">
        <ele>14</ele>
        <time>2022-07-30T08:41:37+02:00</time>
      </trkpt>
      <trkpt lat="49.32237" lon="-1.61811">
        <ele>13</ele>
        <time>2022-07-30T08:41:37+02:00</time>
      </trkpt>
      <trkpt lat="49.3225" lon="-1.61848">
        <ele>13</ele>
        <time>2022-07-30T08:41:37+02:00</time>
      </trkpt>
      <trkpt lat="49.32265" lon="-1.61883">
        <ele>14</ele>
        <time>2022-07-30T08:41:37+02:00</time>
      </trkpt>
      <trkpt lat="49.32279" lon="-1.61918">
        <ele>14</ele>
        <time>2022-07-30T08:41:37+02:00</time>
      </trkpt>
      <trkpt lat="49.32292" lon="-1.61952">
        <ele>14</ele>
        <time>2022-07-30T08:41:37+02:00</time>
      </trkpt>
      <trkpt lat="49.32305" lon="-1.61983">
        <ele>14</ele>
        <time>2022-07-30T08:41:37+02:00</time>
      </trkpt>
      <trkpt lat="49.32318" lon="-1.6202">
        <ele>14</ele>
        <time>2022-07-30T08:41:37+02:00</time>
      </trkpt>
      <trkpt lat="49.32333" lon="-1.62058">
        <ele>15</ele>
        <time>2022-07-30T08:41:37+02:00</time>
      </trkpt>
      <trkpt lat="49.32348" lon="-1.62093">
        <ele>14</ele>
        <time>2022-07-30T08:41:37+02:00</time>
      </trkpt>
      <trkpt lat="49.32362" lon="-1.62131">
        <ele>13</ele>
        <time>2022-07-30T08:41:37+02:00</time>
      </trkpt>
      <trkpt lat="49.32375" lon="-1.62166">
        <ele>13</ele>
        <time>2022-07-30T08:41:37+02:00</time>
      </trkpt>
      <trkpt lat="49.32389" lon="-1.62202">
        <ele>13</ele>
        <time>2022-07-30T08:41:37+02:00</time>
      </trkpt>
      <trkpt lat="49.32401" lon="-1.62232">
        <ele>13</ele>
        <time>2022-07-30T08:41:37+02:00</time>
      </trkpt>
      <trkpt lat="49.32412" lon="-1.62261">
        <ele>12</ele>
        <time>2022-07-30T08:41:37+02:00</time>
      </trkpt>
      <trkpt lat="49.32424" lon="-1.62291">
        <ele>12</ele>
        <time>2022-07-30T08:41:37+02:00</time>
      </trkpt>
      <trkpt lat="49.32435" lon="-1.62321">
        <ele>12</ele>
        <time>2022-07-30T08:41:37+02:00</time>
      </trkpt>
      <trkpt lat="49.32447" lon="-1.6235">
        <ele>12</ele>
        <time>2022-07-30T08:41:37+02:00</time>
      </trkpt>
      <trkpt lat="49.32462" lon="-1.62386">
        <ele>12</ele>
        <time>2022-07-30T08:41:37+02:00</time>
      </trkpt>
      <trkpt lat="49.32473" lon="-1.62417">
        <ele>11</ele>
        <time>2022-07-30T08:41:37+02:00</time>
      </trkpt>
      <trkpt lat="49.32485" lon="-1.6245">
        <ele>12</ele>
        <time>2022-07-30T08:41:37+02:00</time>
      </trkpt>
      <trkpt lat="49.325" lon="-1.62483">
        <ele>12</ele>
        <time>2022-07-30T08:41:37+02:00</time>
      </trkpt>
      <trkpt lat="49.32512" lon="-1.62517">
        <ele>11</ele>
        <time>2022-07-30T08:41:37+02:00</time>
      </trkpt>
      <trkpt lat="49.32525" lon="-1.62549">
        <ele>12</ele>
        <time>2022-07-30T08:41:37+02:00</time>
      </trkpt>
      <trkpt lat="49.32537" lon="-1.6258">
        <ele>12</ele>
        <time>2022-07-30T08:41:37+02:00</time>
      </trkpt>
      <trkpt lat="49.3255" lon="-1.62613">
        <ele>13</ele>
        <time>2022-07-30T08:41:37+02:00</time>
      </trkpt>
      <trkpt lat="49.32562" lon="-1.62646">
        <ele>12</ele>
        <time>2022-07-30T08:41:37+02:00</time>
      </trkpt>
      <trkpt lat="49.32574" lon="-1.62677">
        <ele>13</ele>
        <time>2022-07-30T08:41:37+02:00</time>
      </trkpt>
      <trkpt lat="49.32586" lon="-1.62708">
        <ele>14</ele>
        <time>2022-07-30T08:41:37+02:00</time>
      </trkpt>
      <trkpt lat="49.32598" lon="-1.62737">
        <ele>16</ele>
        <time>2022-07-30T08:41:37+02:00</time>
      </trkpt>
      <trkpt lat="49.32613" lon="-1.62771">
        <ele>16</ele>
        <time>2022-07-30T08:41:37+02:00</time>
      </trkpt>
      <trkpt lat="49.32624" lon="-1.62802">
        <ele>17</ele>
        <time>2022-07-30T08:41:37+02:00</time>
      </trkpt>
      <trkpt lat="49.32637" lon="-1.62834">
        <ele>18</ele>
        <time>2022-07-30T08:41:37+02:00</time>
      </trkpt>
      <trkpt lat="49.32648" lon="-1.62867">
        <ele>18</ele>
        <time>2022-07-30T08:41:37+02:00</time>
      </trkpt>
      <trkpt lat="49.32661" lon="-1.629">
        <ele>19</ele>
        <time>2022-07-30T08:41:37+02:00</time>
      </trkpt>
      <trkpt lat="49.32673" lon="-1.62932">
        <ele>19</ele>
        <time>2022-07-30T08:41:37+02:00</time>
      </trkpt>
      <trkpt lat="49.32686" lon="-1.62961">
        <ele>18</ele>
        <time>2022-07-30T08:41:37+02:00</time>
      </trkpt>
      <trkpt lat="49.32697" lon="-1.62991">
        <ele>19</ele>
        <time>2022-07-30T08:41:37+02:00</time>
      </trkpt>
      <trkpt lat="49.32708" lon="-1.63023">
        <ele>18</ele>
        <time>2022-07-30T08:41:37+02:00</time>
      </trkpt>
      <trkpt lat="49.32722" lon="-1.63053">
        <ele>18</ele>
        <time>2022-07-30T08:41:37+02:00</time>
      </trkpt>
      <trkpt lat="49.32735" lon="-1.63085">
        <ele>18</ele>
        <time>2022-07-30T08:41:37+02:00</time>
      </trkpt>
      <trkpt lat="49.32747" lon="-1.63117">
        <ele>17</ele>
        <time>2022-07-30T08:41:37+02:00</time>
      </trkpt>
      <trkpt lat="49.32762" lon="-1.63149">
        <ele>17</ele>
        <time>2022-07-30T08:41:37+02:00</time>
      </trkpt>
      <trkpt lat="49.32774" lon="-1.63182">
        <ele>16</ele>
        <time>2022-07-30T08:41:37+02:00</time>
      </trkpt>
      <trkpt lat="49.32787" lon="-1.63217">
        <ele>16</ele>
        <time>2022-07-30T08:41:37+02:00</time>
      </trkpt>
      <trkpt lat="49.328" lon="-1.63249">
        <ele>17</ele>
        <time>2022-07-30T08:41:37+02:00</time>
      </trkpt>
      <trkpt lat="49.32813" lon="-1.63285">
        <ele>16</ele>
        <time>2022-07-30T08:41:37+02:00</time>
      </trkpt>
      <trkpt lat="49.32824" lon="-1.6332">
        <ele>17</ele>
        <time>2022-07-30T08:41:37+02:00</time>
      </trkpt>
      <trkpt lat="49.32837" lon="-1.63352">
        <ele>16</ele>
        <time>2022-07-30T08:41:37+02:00</time>
      </trkpt>
      <trkpt lat="49.32852" lon="-1.63388">
        <ele>18</ele>
        <time>2022-07-30T08:41:37+02:00</time>
      </trkpt>
      <trkpt lat="49.32863" lon="-1.6342">
        <ele>17</ele>
        <time>2022-07-30T08:41:37+02:00</time>
      </trkpt>
      <trkpt lat="49.32877" lon="-1.63454">
        <ele>16</ele>
        <time>2022-07-30T08:41:37+02:00</time>
      </trkpt>
      <trkpt lat="49.32892" lon="-1.63489">
        <ele>16</ele>
        <time>2022-07-30T08:41:37+02:00</time>
      </trkpt>
      <trkpt lat="49.32905" lon="-1.63523">
        <ele>16</ele>
        <time>2022-07-30T08:41:37+02:00</time>
      </trkpt>
      <trkpt lat="49.32917" lon="-1.63554">
        <ele>16</ele>
        <time>2022-07-30T08:41:37+02:00</time>
      </trkpt>
      <trkpt lat="49.3293" lon="-1.63585">
        <ele>18</ele>
        <time>2022-07-30T08:41:37+02:00</time>
      </trkpt>
      <trkpt lat="49.32942" lon="-1.63618">
        <ele>16</ele>
        <time>2022-07-30T08:41:37+02:00</time>
      </trkpt>
      <trkpt lat="49.32956" lon="-1.63654">
        <ele>18</ele>
        <time>2022-07-30T08:41:37+02:00</time>
      </trkpt>
      <trkpt lat="49.32968" lon="-1.63687">
        <ele>17</ele>
        <time>2022-07-30T08:41:37+02:00</time>
      </trkpt>
      <trkpt lat="49.32982" lon="-1.63723">
        <ele>18</ele>
        <time>2022-07-30T08:41:37+02:00</time>
      </trkpt>
      <trkpt lat="49.32997" lon="-1.63757">
        <ele>19</ele>
        <time>2022-07-30T08:41:37+02:00</time>
      </trkpt>
      <trkpt lat="49.3301" lon="-1.6379">
        <ele>18</ele>
        <time>2022-07-30T08:41:37+02:00</time>
      </trkpt>
      <trkpt lat="49.33024" lon="-1.63819">
        <ele>18</ele>
        <time>2022-07-30T08:41:37+02:00</time>
      </trkpt>
      <trkpt lat="49.33045" lon="-1.63839">
        <ele>18</ele>
        <time>2022-07-30T08:41:37+02:00</time>
      </trkpt>
      <trkpt lat="49.33062" lon="-1.6387">
        <ele>16</ele>
        <time>2022-07-30T08:41:37+02:00</time>
      </trkpt>
      <trkpt lat="49.33082" lon="-1.63899">
        <ele>16</ele>
        <time>2022-07-30T08:41:37+02:00</time>
      </trkpt>
      <trkpt lat="49.33097" lon="-1.63927">
        <ele>18</ele>
        <time>2022-07-30T08:41:37+02:00</time>
      </trkpt>
      <trkpt lat="49.33108" lon="-1.63962">
        <ele>18</ele>
        <time>2022-07-30T08:41:37+02:00</time>
      </trkpt>
      <trkpt lat="49.33117" lon="-1.63994">
        <ele>19</ele>
        <time>2022-07-30T08:41:37+02:00</time>
      </trkpt>
      <trkpt lat="49.33114" lon="-1.6403">
        <ele>19</ele>
        <time>2022-07-30T08:41:37+02:00</time>
      </trkpt>
      <trkpt lat="49.33112" lon="-1.64065">
        <ele>20</ele>
        <time>2022-07-30T08:41:37+02:00</time>
      </trkpt>
      <trkpt lat="49.33118" lon="-1.64103">
        <ele>19</ele>
        <time>2022-07-30T08:41:37+02:00</time>
      </trkpt>
      <trkpt lat="49.33128" lon="-1.64138">
        <ele>21</ele>
        <time>2022-07-30T08:41:37+02:00</time>
      </trkpt>
      <trkpt lat="49.33136" lon="-1.64174">
        <ele>21</ele>
        <time>2022-07-30T08:41:37+02:00</time>
      </trkpt>
      <trkpt lat="49.33145" lon="-1.6421">
        <ele>22</ele>
        <time>2022-07-30T08:41:37+02:00</time>
      </trkpt>
      <trkpt lat="49.33154" lon="-1.64245">
        <ele>23</ele>
        <time>2022-07-30T08:41:37+02:00</time>
      </trkpt>
      <trkpt lat="49.33162" lon="-1.64283">
        <ele>24</ele>
        <time>2022-07-30T08:41:37+02:00</time>
      </trkpt>
      <trkpt lat="49.33167" lon="-1.6432">
        <ele>24</ele>
        <time>2022-07-30T08:41:37+02:00</time>
      </trkpt>
      <trkpt lat="49.33172" lon="-1.64355">
        <ele>25</ele>
        <time>2022-07-30T08:41:37+02:00</time>
      </trkpt>
      <trkpt lat="49.33179" lon="-1.64391">
        <ele>26</ele>
        <time>2022-07-30T08:41:37+02:00</time>
      </trkpt>
      <trkpt lat="49.33184" lon="-1.64426">
        <ele>27</ele>
        <time>2022-07-30T08:41:37+02:00</time>
      </trkpt>
      <trkpt lat="49.33186" lon="-1.64463">
        <ele>26</ele>
        <time>2022-07-30T08:41:37+02:00</time>
      </trkpt>
      <trkpt lat="49.3319" lon="-1.64502">
        <ele>27</ele>
        <time>2022-07-30T08:41:37+02:00</time>
      </trkpt>
      <trkpt lat="49.33193" lon="-1.64539">
        <ele>27</ele>
        <time>2022-07-30T08:41:37+02:00</time>
      </trkpt>
      <trkpt lat="49.33195" lon="-1.64577">
        <ele>27</ele>
        <time>2022-07-30T08:41:37+02:00</time>
      </trkpt>
      <trkpt lat="49.332" lon="-1.64615">
        <ele>28</ele>
        <time>2022-07-30T08:41:37+02:00</time>
      </trkpt>
      <trkpt lat="49.33203" lon="-1.64653">
        <ele>27</ele>
        <time>2022-07-30T08:41:37+02:00</time>
      </trkpt>
      <trkpt lat="49.33207" lon="-1.6469">
        <ele>24</ele>
        <time>2022-07-30T08:41:37+02:00</time>
      </trkpt>
      <trkpt lat="49.33211" lon="-1.64727">
        <ele>24</ele>
        <time>2022-07-30T08:41:37+02:00</time>
      </trkpt>
      <trkpt lat="49.33215" lon="-1.64764">
        <ele>24</ele>
        <time>2022-07-30T08:41:37+02:00</time>
      </trkpt>
      <trkpt lat="49.33219" lon="-1.64798">
        <ele>25</ele>
        <time>2022-07-30T08:41:37+02:00</time>
      </trkpt>
      <trkpt lat="49.33221" lon="-1.64837">
        <ele>24</ele>
        <time>2022-07-30T08:41:37+02:00</time>
      </trkpt>
      <trkpt lat="49.33225" lon="-1.64874">
        <ele>24</ele>
        <time>2022-07-30T08:41:37+02:00</time>
      </trkpt>
      <trkpt lat="49.33228" lon="-1.64911">
        <ele>26</ele>
        <time>2022-07-30T08:41:37+02:00</time>
      </trkpt>
      <trkpt lat="49.33232" lon="-1.64951">
        <ele>24</ele>
        <time>2022-07-30T08:41:37+02:00</time>
      </trkpt>
      <trkpt lat="49.33237" lon="-1.64993">
        <ele>22</ele>
        <time>2022-07-30T08:41:37+02:00</time>
      </trkpt>
      <trkpt lat="49.3324" lon="-1.65031">
        <ele>21</ele>
        <time>2022-07-30T08:41:37+02:00</time>
      </trkpt>
      <trkpt lat="49.33244" lon="-1.65073">
        <ele>19</ele>
        <time>2022-07-30T08:41:37+02:00</time>
      </trkpt>
      <trkpt lat="49.33249" lon="-1.65113">
        <ele>19</ele>
        <time>2022-07-30T08:41:37+02:00</time>
      </trkpt>
      <trkpt lat="49.33254" lon="-1.65154">
        <ele>18</ele>
        <time>2022-07-30T08:41:37+02:00</time>
      </trkpt>
      <trkpt lat="49.33258" lon="-1.65191">
        <ele>18</ele>
        <time>2022-07-30T08:41:37+02:00</time>
      </trkpt>
      <trkpt lat="49.3326" lon="-1.65234">
        <ele>17</ele>
        <time>2022-07-30T08:41:37+02:00</time>
      </trkpt>
      <trkpt lat="49.33263" lon="-1.65272">
        <ele>17</ele>
        <time>2022-07-30T08:41:37+02:00</time>
      </trkpt>
      <trkpt lat="49.33269" lon="-1.65313">
        <ele>16</ele>
        <time>2022-07-30T08:41:37+02:00</time>
      </trkpt>
      <trkpt lat="49.33274" lon="-1.65354">
        <ele>15</ele>
        <time>2022-07-30T08:41:37+02:00</time>
      </trkpt>
      <trkpt lat="49.33277" lon="-1.65391">
        <ele>14</ele>
        <time>2022-07-30T08:41:37+02:00</time>
      </trkpt>
      <trkpt lat="49.33283" lon="-1.65428">
        <ele>14</ele>
        <time>2022-07-30T08:41:37+02:00</time>
      </trkpt>
      <trkpt lat="49.33289" lon="-1.65467">
        <ele>14</ele>
        <time>2022-07-30T08:41:37+02:00</time>
      </trkpt>
      <trkpt lat="49.33296" lon="-1.65504">
        <ele>15</ele>
        <time>2022-07-30T08:41:37+02:00</time>
      </trkpt>
      <trkpt lat="49.33301" lon="-1.65541">
        <ele>14</ele>
        <time>2022-07-30T08:41:37+02:00</time>
      </trkpt>
      <trkpt lat="49.33309" lon="-1.65581">
        <ele>14</ele>
        <time>2022-07-30T08:41:37+02:00</time>
      </trkpt>
      <trkpt lat="49.33316" lon="-1.65619">
        <ele>14</ele>
        <time>2022-07-30T08:41:37+02:00</time>
      </trkpt>
      <trkpt lat="49.33326" lon="-1.65657">
        <ele>14</ele>
        <time>2022-07-30T08:41:37+02:00</time>
      </trkpt>
      <trkpt lat="49.33334" lon="-1.65694">
        <ele>13</ele>
        <time>2022-07-30T08:41:37+02:00</time>
      </trkpt>
      <trkpt lat="49.33344" lon="-1.6573">
        <ele>13</ele>
        <time>2022-07-30T08:41:37+02:00</time>
      </trkpt>
      <trkpt lat="49.3335" lon="-1.65763">
        <ele>12</ele>
        <time>2022-07-30T08:41:37+02:00</time>
      </trkpt>
      <trkpt lat="49.33358" lon="-1.65797">
        <ele>11</ele>
        <time>2022-07-30T08:41:37+02:00</time>
      </trkpt>
      <trkpt lat="49.33365" lon="-1.6583">
        <ele>11</ele>
        <time>2022-07-30T08:41:37+02:00</time>
      </trkpt>
      <trkpt lat="49.33375" lon="-1.65869">
        <ele>11</ele>
        <time>2022-07-30T08:41:37+02:00</time>
      </trkpt>
      <trkpt lat="49.33384" lon="-1.6591">
        <ele>12</ele>
        <time>2022-07-30T08:41:37+02:00</time>
      </trkpt>
      <trkpt lat="49.33391" lon="-1.65943">
        <ele>11</ele>
        <time>2022-07-30T08:41:37+02:00</time>
      </trkpt>
      <trkpt lat="49.33401" lon="-1.65982">
        <ele>12</ele>
        <time>2022-07-30T08:41:37+02:00</time>
      </trkpt>
      <trkpt lat="49.3341" lon="-1.66022">
        <ele>12</ele>
        <time>2022-07-30T08:41:37+02:00</time>
      </trkpt>
      <trkpt lat="49.33419" lon="-1.66061">
        <ele>13</ele>
        <time>2022-07-30T08:41:37+02:00</time>
      </trkpt>
      <trkpt lat="49.33428" lon="-1.66099">
        <ele>13</ele>
        <time>2022-07-30T08:41:37+02:00</time>
      </trkpt>
      <trkpt lat="49.33437" lon="-1.66137">
        <ele>12</ele>
        <time>2022-07-30T08:41:37+02:00</time>
      </trkpt>
      <trkpt lat="49.33445" lon="-1.66173">
        <ele>13</ele>
        <time>2022-07-30T08:41:37+02:00</time>
      </trkpt>
      <trkpt lat="49.33453" lon="-1.6621">
        <ele>13</ele>
        <time>2022-07-30T08:41:37+02:00</time>
      </trkpt>
      <trkpt lat="49.33462" lon="-1.66249">
        <ele>13</ele>
        <time>2022-07-30T08:41:37+02:00</time>
      </trkpt>
      <trkpt lat="49.3347" lon="-1.6629">
        <ele>12</ele>
        <time>2022-07-30T08:41:37+02:00</time>
      </trkpt>
      <trkpt lat="49.3348" lon="-1.66331">
        <ele>14</ele>
        <time>2022-07-30T08:41:37+02:00</time>
      </trkpt>
      <trkpt lat="49.33488" lon="-1.66364">
        <ele>14</ele>
        <time>2022-07-30T08:41:37+02:00</time>
      </trkpt>
      <trkpt lat="49.33498" lon="-1.66402">
        <ele>16</ele>
        <time>2022-07-30T08:41:37+02:00</time>
      </trkpt>
      <trkpt lat="49.33506" lon="-1.66438">
        <ele>17</ele>
        <time>2022-07-30T08:41:37+02:00</time>
      </trkpt>
      <trkpt lat="49.33512" lon="-1.66474">
        <ele>16</ele>
        <time>2022-07-30T08:41:37+02:00</time>
      </trkpt>
      <trkpt lat="49.33521" lon="-1.66507">
        <ele>18</ele>
        <time>2022-07-30T08:41:37+02:00</time>
      </trkpt>
      <trkpt lat="49.33525" lon="-1.66543">
        <ele>18</ele>
        <time>2022-07-30T08:41:37+02:00</time>
      </trkpt>
      <trkpt lat="49.33532" lon="-1.66579">
        <ele>16</ele>
        <time>2022-07-30T08:41:37+02:00</time>
      </trkpt>
      <trkpt lat="49.33523" lon="-1.66612">
        <ele>17</ele>
        <time>2022-07-30T08:41:37+02:00</time>
      </trkpt>
      <trkpt lat="49.33538" lon="-1.66639">
        <ele>16</ele>
        <time>2022-07-30T08:41:37+02:00</time>
      </trkpt>
      <trkpt lat="49.33539" lon="-1.66673">
        <ele>18</ele>
        <time>2022-07-30T08:41:37+02:00</time>
      </trkpt>
      <trkpt lat="49.33541" lon="-1.66708">
        <ele>16</ele>
        <time>2022-07-30T08:41:37+02:00</time>
      </trkpt>
      <trkpt lat="49.33544" lon="-1.66746">
        <ele>17</ele>
        <time>2022-07-30T08:41:37+02:00</time>
      </trkpt>
      <trkpt lat="49.33546" lon="-1.66785">
        <ele>17</ele>
        <time>2022-07-30T08:41:37+02:00</time>
      </trkpt>
      <trkpt lat="49.33548" lon="-1.66824">
        <ele>17</ele>
        <time>2022-07-30T08:41:37+02:00</time>
      </trkpt>
      <trkpt lat="49.3355" lon="-1.6686">
        <ele>18</ele>
        <time>2022-07-30T08:41:37+02:00</time>
      </trkpt>
      <trkpt lat="49.33549" lon="-1.66899">
        <ele>18</ele>
        <time>2022-07-30T08:41:37+02:00</time>
      </trkpt>
      <trkpt lat="49.33546" lon="-1.66935">
        <ele>17</ele>
        <time>2022-07-30T08:41:37+02:00</time>
      </trkpt>
      <trkpt lat="49.33547" lon="-1.66973">
        <ele>18</ele>
        <time>2022-07-30T08:41:37+02:00</time>
      </trkpt>
      <trkpt lat="49.33545" lon="-1.67009">
        <ele>18</ele>
        <time>2022-07-30T08:41:37+02:00</time>
      </trkpt>
      <trkpt lat="49.33545" lon="-1.67049">
        <ele>17</ele>
        <time>2022-07-30T08:41:37+02:00</time>
      </trkpt>
      <trkpt lat="49.33545" lon="-1.6709">
        <ele>18</ele>
        <time>2022-07-30T08:41:37+02:00</time>
      </trkpt>
      <trkpt lat="49.33544" lon="-1.67128">
        <ele>18</ele>
        <time>2022-07-30T08:41:37+02:00</time>
      </trkpt>
      <trkpt lat="49.33543" lon="-1.67163">
        <ele>19</ele>
        <time>2022-07-30T08:41:37+02:00</time>
      </trkpt>
      <trkpt lat="49.33541" lon="-1.67198">
        <ele>19</ele>
        <time>2022-07-30T08:41:37+02:00</time>
      </trkpt>
      <trkpt lat="49.33539" lon="-1.67232">
        <ele>20</ele>
        <time>2022-07-30T08:41:37+02:00</time>
      </trkpt>
      <trkpt lat="49.33542" lon="-1.67267">
        <ele>19</ele>
        <time>2022-07-30T08:41:37+02:00</time>
      </trkpt>
      <trkpt lat="49.33543" lon="-1.67307">
        <ele>20</ele>
        <time>2022-07-30T08:41:37+02:00</time>
      </trkpt>
      <trkpt lat="49.33542" lon="-1.67346">
        <ele>20</ele>
        <time>2022-07-30T08:41:37+02:00</time>
      </trkpt>
      <trkpt lat="49.33542" lon="-1.67387">
        <ele>21</ele>
        <time>2022-07-30T08:41:37+02:00</time>
      </trkpt>
      <trkpt lat="49.33542" lon="-1.67425">
        <ele>20</ele>
        <time>2022-07-30T08:41:37+02:00</time>
      </trkpt>
      <trkpt lat="49.33537" lon="-1.67465">
        <ele>20</ele>
        <time>2022-07-30T08:41:37+02:00</time>
      </trkpt>
      <trkpt lat="49.33536" lon="-1.67501">
        <ele>20</ele>
        <time>2022-07-30T08:41:37+02:00</time>
      </trkpt>
      <trkpt lat="49.3354" lon="-1.6754">
        <ele>18</ele>
        <time>2022-07-30T08:41:37+02:00</time>
      </trkpt>
      <trkpt lat="49.33536" lon="-1.6758">
        <ele>16</ele>
        <time>2022-07-30T08:41:37+02:00</time>
      </trkpt>
      <trkpt lat="49.33536" lon="-1.67619">
        <ele>16</ele>
        <time>2022-07-30T08:41:37+02:00</time>
      </trkpt>
      <trkpt lat="49.33535" lon="-1.67656">
        <ele>15</ele>
        <time>2022-07-30T08:41:37+02:00</time>
      </trkpt>
      <trkpt lat="49.33535" lon="-1.6769">
        <ele>16</ele>
        <time>2022-07-30T08:41:37+02:00</time>
      </trkpt>
      <trkpt lat="49.33534" lon="-1.67728">
        <ele>15</ele>
        <time>2022-07-30T08:41:37+02:00</time>
      </trkpt>
      <trkpt lat="49.33532" lon="-1.67768">
        <ele>15</ele>
        <time>2022-07-30T08:41:37+02:00</time>
      </trkpt>
      <trkpt lat="49.33532" lon="-1.67804">
        <ele>15</ele>
        <time>2022-07-30T08:41:37+02:00</time>
      </trkpt>
      <trkpt lat="49.33531" lon="-1.67838">
        <ele>15</ele>
        <time>2022-07-30T08:41:37+02:00</time>
      </trkpt>
      <trkpt lat="49.3353" lon="-1.67882">
        <ele>14</ele>
        <time>2022-07-30T08:41:37+02:00</time>
      </trkpt>
      <trkpt lat="49.3353" lon="-1.67926">
        <ele>12</ele>
        <time>2022-07-30T08:41:37+02:00</time>
      </trkpt>
      <trkpt lat="49.33529" lon="-1.67963">
        <ele>12</ele>
        <time>2022-07-30T08:41:37+02:00</time>
      </trkpt>
      <trkpt lat="49.33529" lon="-1.68">
        <ele>16</ele>
        <time>2022-07-30T08:41:37+02:00</time>
      </trkpt>
      <trkpt lat="49.33528" lon="-1.68039">
        <ele>16</ele>
        <time>2022-07-30T08:41:37+02:00</time>
      </trkpt>
      <trkpt lat="49.33526" lon="-1.68074">
        <ele>17</ele>
        <time>2022-07-30T08:41:37+02:00</time>
      </trkpt>
      <trkpt lat="49.33527" lon="-1.68111">
        <ele>17</ele>
        <time>2022-07-30T08:41:37+02:00</time>
      </trkpt>
      <trkpt lat="49.33526" lon="-1.68149">
        <ele>18</ele>
        <time>2022-07-30T08:41:37+02:00</time>
      </trkpt>
      <trkpt lat="49.33526" lon="-1.68187">
        <ele>19</ele>
        <time>2022-07-30T08:41:37+02:00</time>
      </trkpt>
      <trkpt lat="49.33529" lon="-1.68226">
        <ele>18</ele>
        <time>2022-07-30T08:41:37+02:00</time>
      </trkpt>
      <trkpt lat="49.3353" lon="-1.68261">
        <ele>18</ele>
        <time>2022-07-30T08:41:37+02:00</time>
      </trkpt>
      <trkpt lat="49.33533" lon="-1.68299">
        <ele>18</ele>
        <time>2022-07-30T08:41:37+02:00</time>
      </trkpt>
      <trkpt lat="49.33533" lon="-1.68336">
        <ele>19</ele>
        <time>2022-07-30T08:41:37+02:00</time>
      </trkpt>
      <trkpt lat="49.33537" lon="-1.68373">
        <ele>19</ele>
        <time>2022-07-30T08:41:37+02:00</time>
      </trkpt>
      <trkpt lat="49.3354" lon="-1.68408">
        <ele>18</ele>
        <time>2022-07-30T08:41:37+02:00</time>
      </trkpt>
      <trkpt lat="49.33529" lon="-1.6844">
        <ele>18</ele>
        <time>2022-07-30T08:41:37+02:00</time>
      </trkpt>
      <trkpt lat="49.33513" lon="-1.6847">
        <ele>18</ele>
        <time>2022-07-30T08:41:37+02:00</time>
      </trkpt>
      <trkpt lat="49.33494" lon="-1.68491">
        <ele>18</ele>
        <time>2022-07-30T08:41:37+02:00</time>
      </trkpt>
      <trkpt lat="49.33469" lon="-1.68496">
        <ele>18</ele>
        <time>2022-07-30T08:41:37+02:00</time>
      </trkpt>
      <trkpt lat="49.33443" lon="-1.68509">
        <ele>18</ele>
        <time>2022-07-30T08:41:37+02:00</time>
      </trkpt>
      <trkpt lat="49.33418" lon="-1.68517">
        <ele>16</ele>
        <time>2022-07-30T08:41:37+02:00</time>
      </trkpt>
      <trkpt lat="49.33394" lon="-1.68518">
        <ele>16</ele>
        <time>2022-07-30T08:41:37+02:00</time>
      </trkpt>
      <trkpt lat="49.3337" lon="-1.6853">
        <ele>15</ele>
        <time>2022-07-30T08:41:37+02:00</time>
      </trkpt>
      <trkpt lat="49.33351" lon="-1.68561">
        <ele>15</ele>
        <time>2022-07-30T08:41:37+02:00</time>
      </trkpt>
      <trkpt lat="49.33339" lon="-1.68593">
        <ele>16</ele>
        <time>2022-07-30T08:41:37+02:00</time>
      </trkpt>
      <trkpt lat="49.33325" lon="-1.68628">
        <ele>17</ele>
        <time>2022-07-30T08:41:37+02:00</time>
      </trkpt>
      <trkpt lat="49.33309" lon="-1.68663">
        <ele>16</ele>
        <time>2022-07-30T08:41:37+02:00</time>
      </trkpt>
      <trkpt lat="49.33295" lon="-1.6869">
        <ele>15</ele>
        <time>2022-07-30T08:41:37+02:00</time>
      </trkpt>
      <trkpt lat="49.33272" lon="-1.68704">
        <ele>13</ele>
        <time>2022-07-30T08:41:37+02:00</time>
      </trkpt>
      <trkpt lat="49.33248" lon="-1.68692">
        <ele>14</ele>
        <time>2022-07-30T08:41:37+02:00</time>
      </trkpt>
      <trkpt lat="49.33224" lon="-1.68676">
        <ele>15</ele>
        <time>2022-07-30T08:41:37+02:00</time>
      </trkpt>
      <trkpt lat="49.33198" lon="-1.68659">
        <ele>14</ele>
        <time>2022-07-30T08:41:37+02:00</time>
      </trkpt>
      <trkpt lat="49.33177" lon="-1.68644">
        <ele>14</ele>
        <time>2022-07-30T08:41:37+02:00</time>
      </trkpt>
      <trkpt lat="49.33154" lon="-1.6863">
        <ele>13</ele>
        <time>2022-07-30T08:41:37+02:00</time>
      </trkpt>
      <trkpt lat="49.33133" lon="-1.68615">
        <ele>12</ele>
        <time>2022-07-30T08:41:37+02:00</time>
      </trkpt>
      <trkpt lat="49.33111" lon="-1.68601">
        <ele>10</ele>
        <time>2022-07-30T08:41:37+02:00</time>
      </trkpt>
      <trkpt lat="49.3309" lon="-1.68589">
        <ele>9</ele>
        <time>2022-07-30T08:41:37+02:00</time>
      </trkpt>
      <trkpt lat="49.33072" lon="-1.68612">
        <ele>8</ele>
        <time>2022-07-30T08:41:37+02:00</time>
      </trkpt>
      <trkpt lat="49.33075" lon="-1.68648">
        <ele>6</ele>
        <time>2022-07-30T08:41:37+02:00</time>
      </trkpt>
      <trkpt lat="49.33062" lon="-1.6868">
        <ele>6</ele>
        <time>2022-07-30T08:41:37+02:00</time>
      </trkpt>
      <trkpt lat="49.33059" lon="-1.68715">
        <ele>5</ele>
        <time>2022-07-30T08:41:37+02:00</time>
      </trkpt>
      <trkpt lat="49.33057" lon="-1.68751">
        <ele>5</ele>
        <time>2022-07-30T08:41:37+02:00</time>
      </trkpt>
      <trkpt lat="49.33043" lon="-1.68779">
        <ele>5</ele>
        <time>2022-07-30T08:41:37+02:00</time>
      </trkpt>
      <trkpt lat="49.33029" lon="-1.68808">
        <ele>5</ele>
        <time>2022-07-30T08:41:37+02:00</time>
      </trkpt>
      <trkpt lat="49.33022" lon="-1.68844">
        <ele>5</ele>
        <time>2022-07-30T08:41:37+02:00</time>
      </trkpt>
      <trkpt lat="49.33018" lon="-1.68881">
        <ele>5</ele>
        <time>2022-07-30T08:41:37+02:00</time>
      </trkpt>
      <trkpt lat="49.33009" lon="-1.68916">
        <ele>6</ele>
        <time>2022-07-30T08:41:37+02:00</time>
      </trkpt>
      <trkpt lat="49.32997" lon="-1.68947">
        <ele>7</ele>
        <time>2022-07-30T08:41:37+02:00</time>
      </trkpt>
      <trkpt lat="49.3299" lon="-1.68984">
        <ele>7</ele>
        <time>2022-07-30T08:41:37+02:00</time>
      </trkpt>
      <trkpt lat="49.32988" lon="-1.69019">
        <ele>7</ele>
        <time>2022-07-30T08:41:37+02:00</time>
      </trkpt>
      <trkpt lat="49.32992" lon="-1.69054">
        <ele>6</ele>
        <time>2022-07-30T08:41:37+02:00</time>
      </trkpt>
      <trkpt lat="49.32992" lon="-1.6909">
        <ele>6</ele>
        <time>2022-07-30T08:41:37+02:00</time>
      </trkpt>
      <trkpt lat="49.32995" lon="-1.69125">
        <ele>5</ele>
        <time>2022-07-30T08:41:37+02:00</time>
      </trkpt>
      <trkpt lat="49.32997" lon="-1.69162">
        <ele>6</ele>
        <time>2022-07-30T08:41:37+02:00</time>
      </trkpt>
      <trkpt lat="49.32998" lon="-1.69199">
        <ele>5</ele>
        <time>2022-07-30T08:41:37+02:00</time>
      </trkpt>
      <trkpt lat="49.32999" lon="-1.69237">
        <ele>5</ele>
        <time>2022-07-30T08:41:37+02:00</time>
      </trkpt>
      <trkpt lat="49.33015" lon="-1.69262">
        <ele>6</ele>
        <time>2022-07-30T08:41:37+02:00</time>
      </trkpt>
      <trkpt lat="49.33035" lon="-1.69283">
        <ele>6</ele>
        <time>2022-07-30T08:41:37+02:00</time>
      </trkpt>
      <trkpt lat="49.33051" lon="-1.69308">
        <ele>7</ele>
        <time>2022-07-30T08:41:37+02:00</time>
      </trkpt>
      <trkpt lat="49.33064" lon="-1.69338">
        <ele>6</ele>
        <time>2022-07-30T08:41:37+02:00</time>
      </trkpt>
      <trkpt lat="49.33072" lon="-1.69375">
        <ele>8</ele>
        <time>2022-07-30T08:41:37+02:00</time>
      </trkpt>
      <trkpt lat="49.33075" lon="-1.69411">
        <ele>8</ele>
        <time>2022-07-30T08:41:37+02:00</time>
      </trkpt>
      <trkpt lat="49.33081" lon="-1.69445">
        <ele>8</ele>
        <time>2022-07-30T08:41:37+02:00</time>
      </trkpt>
      <trkpt lat="49.33087" lon="-1.69481">
        <ele>8</ele>
        <time>2022-07-30T08:41:37+02:00</time>
      </trkpt>
      <trkpt lat="49.33093" lon="-1.69514">
        <ele>7</ele>
        <time>2022-07-30T08:41:37+02:00</time>
      </trkpt>
      <trkpt lat="49.33103" lon="-1.69548">
        <ele>8</ele>
        <time>2022-07-30T08:41:37+02:00</time>
      </trkpt>
      <trkpt lat="49.3312" lon="-1.69576">
        <ele>7</ele>
        <time>2022-07-30T08:41:37+02:00</time>
      </trkpt>
      <trkpt lat="49.33137" lon="-1.69604">
        <ele>8</ele>
        <time>2022-07-30T08:41:37+02:00</time>
      </trkpt>
      <trkpt lat="49.33154" lon="-1.6963">
        <ele>8</ele>
        <time>2022-07-30T08:41:37+02:00</time>
      </trkpt>
      <trkpt lat="49.33172" lon="-1.69653">
        <ele>8</ele>
        <time>2022-07-30T08:41:37+02:00</time>
      </trkpt>
      <trkpt lat="49.33189" lon="-1.69676">
        <ele>7</ele>
        <time>2022-07-30T08:41:37+02:00</time>
      </trkpt>
      <trkpt lat="49.33207" lon="-1.69699">
        <ele>7</ele>
        <time>2022-07-30T08:41:37+02:00</time>
      </trkpt>
      <trkpt lat="49.33229" lon="-1.6972">
        <ele>7</ele>
        <time>2022-07-30T08:41:37+02:00</time>
      </trkpt>
      <trkpt lat="49.33249" lon="-1.69737">
        <ele>7</ele>
        <time>2022-07-30T08:41:37+02:00</time>
      </trkpt>
      <trkpt lat="49.33269" lon="-1.69754">
        <ele>7</ele>
        <time>2022-07-30T08:41:37+02:00</time>
      </trkpt>
      <trkpt lat="49.33289" lon="-1.69771">
        <ele>7</ele>
        <time>2022-07-30T08:41:37+02:00</time>
      </trkpt>
      <trkpt lat="49.3331" lon="-1.69789">
        <ele>7</ele>
        <time>2022-07-30T08:41:37+02:00</time>
      </trkpt>
      <trkpt lat="49.33333" lon="-1.69806">
        <ele>6</ele>
        <time>2022-07-30T08:41:37+02:00</time>
      </trkpt>
      <trkpt lat="49.33354" lon="-1.69822">
        <ele>6</ele>
        <time>2022-07-30T08:41:37+02:00</time>
      </trkpt>
      <trkpt lat="49.33373" lon="-1.69847">
        <ele>7</ele>
        <time>2022-07-30T08:41:37+02:00</time>
      </trkpt>
      <trkpt lat="49.33391" lon="-1.69871">
        <ele>8</ele>
        <time>2022-07-30T08:41:37+02:00</time>
      </trkpt>
      <trkpt lat="49.33405" lon="-1.69897">
        <ele>7</ele>
        <time>2022-07-30T08:41:37+02:00</time>
      </trkpt>
      <trkpt lat="49.33422" lon="-1.69923">
        <ele>6</ele>
        <time>2022-07-30T08:41:37+02:00</time>
      </trkpt>
      <trkpt lat="49.33445" lon="-1.69941">
        <ele>6</ele>
        <time>2022-07-30T08:41:37+02:00</time>
      </trkpt>
      <trkpt lat="49.33465" lon="-1.69959">
        <ele>8</ele>
        <time>2022-07-30T08:41:37+02:00</time>
      </trkpt>
      <trkpt lat="49.33459" lon="-1.69996">
        <ele>7</ele>
        <time>2022-07-30T08:41:37+02:00</time>
      </trkpt>
      <trkpt lat="49.33475" lon="-1.70019">
        <ele>6</ele>
        <time>2022-07-30T08:41:37+02:00</time>
      </trkpt>
      <trkpt lat="49.33484" lon="-1.70052">
        <ele>5</ele>
        <time>2022-07-30T08:41:37+02:00</time>
      </trkpt>
      <trkpt lat="49.33486" lon="-1.70018">
        <ele>6</ele>
        <time>2022-07-30T08:41:37+02:00</time>
      </trkpt>
      <trkpt lat="49.33496" lon="-1.69987">
        <ele>8</ele>
        <time>2022-07-30T08:41:37+02:00</time>
      </trkpt>
      <trkpt lat="49.33484" lon="-1.69954">
        <ele>9</ele>
        <time>2022-07-30T08:41:37+02:00</time>
      </trkpt>
      <trkpt lat="49.33483" lon="-1.69916">
        <ele>10</ele>
        <time>2022-07-30T08:41:37+02:00</time>
      </trkpt>
      <trkpt lat="49.33495" lon="-1.69885">
        <ele>11</ele>
        <time>2022-07-30T08:41:37+02:00</time>
      </trkpt>
      <trkpt lat="49.33508" lon="-1.69856">
        <ele>13</ele>
        <time>2022-07-30T08:41:37+02:00</time>
      </trkpt>
      <trkpt lat="49.33513" lon="-1.6982">
        <ele>13</ele>
        <time>2022-07-30T08:41:37+02:00</time>
      </trkpt>
      <trkpt lat="49.33521" lon="-1.69785">
        <ele>13</ele>
        <time>2022-07-30T08:41:37+02:00</time>
      </trkpt>
      <trkpt lat="49.33529" lon="-1.69751">
        <ele>13</ele>
        <time>2022-07-30T08:41:37+02:00</time>
      </trkpt>
      <trkpt lat="49.33537" lon="-1.69718">
        <ele>13</ele>
        <time>2022-07-30T08:41:37+02:00</time>
      </trkpt>
      <trkpt lat="49.33543" lon="-1.69684">
        <ele>13</ele>
        <time>2022-07-30T08:41:37+02:00</time>
      </trkpt>
      <trkpt lat="49.33546" lon="-1.69644">
        <ele>14</ele>
        <time>2022-07-30T08:41:37+02:00</time>
      </trkpt>
      <trkpt lat="49.33542" lon="-1.69605">
        <ele>14</ele>
        <time>2022-07-30T08:41:37+02:00</time>
      </trkpt>
      <trkpt lat="49.3354" lon="-1.69569">
        <ele>13</ele>
        <time>2022-07-30T08:41:37+02:00</time>
      </trkpt>
      <trkpt lat="49.33541" lon="-1.69532">
        <ele>14</ele>
        <time>2022-07-30T08:41:37+02:00</time>
      </trkpt>
      <trkpt lat="49.33538" lon="-1.69496">
        <ele>14</ele>
        <time>2022-07-30T08:41:37+02:00</time>
      </trkpt>
      <trkpt lat="49.33536" lon="-1.69457">
        <ele>14</ele>
        <time>2022-07-30T08:41:37+02:00</time>
      </trkpt>
      <trkpt lat="49.33535" lon="-1.69418">
        <ele>15</ele>
        <time>2022-07-30T08:41:37+02:00</time>
      </trkpt>
      <trkpt lat="49.33534" lon="-1.69383">
        <ele>17</ele>
        <time>2022-07-30T08:41:37+02:00</time>
      </trkpt>
      <trkpt lat="49.33532" lon="-1.69348">
        <ele>15</ele>
        <time>2022-07-30T08:41:37+02:00</time>
      </trkpt>
      <trkpt lat="49.33529" lon="-1.69313">
        <ele>15</ele>
        <time>2022-07-30T08:41:37+02:00</time>
      </trkpt>
      <trkpt lat="49.33526" lon="-1.69275">
        <ele>15</ele>
        <time>2022-07-30T08:41:37+02:00</time>
      </trkpt>
      <trkpt lat="49.33523" lon="-1.69233">
        <ele>15</ele>
        <time>2022-07-30T08:41:37+02:00</time>
      </trkpt>
      <trkpt lat="49.3352" lon="-1.69193">
        <ele>15</ele>
        <time>2022-07-30T08:41:37+02:00</time>
      </trkpt>
      <trkpt lat="49.33518" lon="-1.69151">
        <ele>15</ele>
        <time>2022-07-30T08:41:37+02:00</time>
      </trkpt>
      <trkpt lat="49.33516" lon="-1.6911">
        <ele>15</ele>
        <time>2022-07-30T08:41:37+02:00</time>
      </trkpt>
      <trkpt lat="49.33514" lon="-1.69067">
        <ele>15</ele>
        <time>2022-07-30T08:41:37+02:00</time>
      </trkpt>
      <trkpt lat="49.33512" lon="-1.69025">
        <ele>16</ele>
        <time>2022-07-30T08:41:37+02:00</time>
      </trkpt>
      <trkpt lat="49.33511" lon="-1.68985">
        <ele>16</ele>
        <time>2022-07-30T08:41:37+02:00</time>
      </trkpt>
      <trkpt lat="49.33508" lon="-1.68944">
        <ele>16</ele>
        <time>2022-07-30T08:41:37+02:00</time>
      </trkpt>
      <trkpt lat="49.33505" lon="-1.68902">
        <ele>16</ele>
        <time>2022-07-30T08:41:37+02:00</time>
      </trkpt>
      <trkpt lat="49.33502" lon="-1.68867">
        <ele>16</ele>
        <time>2022-07-30T08:41:37+02:00</time>
      </trkpt>
      <trkpt lat="49.335" lon="-1.68827">
        <ele>15</ele>
        <time>2022-07-30T08:41:37+02:00</time>
      </trkpt>
      <trkpt lat="49.33498" lon="-1.68786">
        <ele>16</ele>
        <time>2022-07-30T08:41:37+02:00</time>
      </trkpt>
      <trkpt lat="49.33495" lon="-1.68747">
        <ele>16</ele>
        <time>2022-07-30T08:41:37+02:00</time>
      </trkpt>
      <trkpt lat="49.33493" lon="-1.68708">
        <ele>17</ele>
        <time>2022-07-30T08:41:37+02:00</time>
      </trkpt>
      <trkpt lat="49.3349" lon="-1.68667">
        <ele>17</ele>
        <time>2022-07-30T08:41:37+02:00</time>
      </trkpt>
      <trkpt lat="49.33489" lon="-1.68627">
        <ele>17</ele>
        <time>2022-07-30T08:41:37+02:00</time>
      </trkpt>
      <trkpt lat="49.33485" lon="-1.68587">
        <ele>17</ele>
        <time>2022-07-30T08:41:37+02:00</time>
      </trkpt>
      <trkpt lat="49.33484" lon="-1.68545">
        <ele>17</ele>
        <time>2022-07-30T08:41:37+02:00</time>
      </trkpt>
      <trkpt lat="49.33482" lon="-1.68508">
        <ele>18</ele>
        <time>2022-07-30T08:41:37+02:00</time>
      </trkpt>
      <trkpt lat="49.335" lon="-1.68485">
        <ele>18</ele>
        <time>2022-07-30T08:41:37+02:00</time>
      </trkpt>
      <trkpt lat="49.33518" lon="-1.68454">
        <ele>17</ele>
        <time>2022-07-30T08:41:37+02:00</time>
      </trkpt>
      <trkpt lat="49.33535" lon="-1.68424">
        <ele>17</ele>
        <time>2022-07-30T08:41:37+02:00</time>
      </trkpt>
      <trkpt lat="49.33538" lon="-1.68386">
        <ele>18</ele>
        <time>2022-07-30T08:41:37+02:00</time>
      </trkpt>
      <trkpt lat="49.33535" lon="-1.68351">
        <ele>18</ele>
        <time>2022-07-30T08:41:37+02:00</time>
      </trkpt>
      <trkpt lat="49.33532" lon="-1.68309">
        <ele>18</ele>
        <time>2022-07-30T08:41:37+02:00</time>
      </trkpt>
      <trkpt lat="49.33531" lon="-1.68271">
        <ele>18</ele>
        <time>2022-07-30T08:41:37+02:00</time>
      </trkpt>
      <trkpt lat="49.33529" lon="-1.68234">
        <ele>17</ele>
        <time>2022-07-30T08:41:37+02:00</time>
      </trkpt>
      <trkpt lat="49.33528" lon="-1.68198">
        <ele>18</ele>
        <time>2022-07-30T08:41:37+02:00</time>
      </trkpt>
      <trkpt lat="49.33527" lon="-1.68158">
        <ele>18</ele>
        <time>2022-07-30T08:41:37+02:00</time>
      </trkpt>
      <trkpt lat="49.33526" lon="-1.68119">
        <ele>17</ele>
        <time>2022-07-30T08:41:37+02:00</time>
      </trkpt>
      <trkpt lat="49.33526" lon="-1.6808">
        <ele>17</ele>
        <time>2022-07-30T08:41:37+02:00</time>
      </trkpt>
      <trkpt lat="49.33528" lon="-1.68043">
        <ele>14</ele>
        <time>2022-07-30T08:41:37+02:00</time>
      </trkpt>
      <trkpt lat="49.33528" lon="-1.68005">
        <ele>12</ele>
        <time>2022-07-30T08:41:37+02:00</time>
      </trkpt>
      <trkpt lat="49.33526" lon="-1.67966">
        <ele>13</ele>
        <time>2022-07-30T08:41:37+02:00</time>
      </trkpt>
      <trkpt lat="49.33526" lon="-1.6793">
        <ele>15</ele>
        <time>2022-07-30T08:41:37+02:00</time>
      </trkpt>
      <trkpt lat="49.33527" lon="-1.67894">
        <ele>16</ele>
        <time>2022-07-30T08:41:37+02:00</time>
      </trkpt>
      <trkpt lat="49.33528" lon="-1.67854">
        <ele>16</ele>
        <time>2022-07-30T08:41:37+02:00</time>
      </trkpt>
      <trkpt lat="49.3353" lon="-1.67813">
        <ele>16</ele>
        <time>2022-07-30T08:41:37+02:00</time>
      </trkpt>
      <trkpt lat="49.33531" lon="-1.67772">
        <ele>17</ele>
        <time>2022-07-30T08:41:37+02:00</time>
      </trkpt>
      <trkpt lat="49.33532" lon="-1.67731">
        <ele>17</ele>
        <time>2022-07-30T08:41:37+02:00</time>
      </trkpt>
      <trkpt lat="49.33534" lon="-1.67694">
        <ele>17</ele>
        <time>2022-07-30T08:41:37+02:00</time>
      </trkpt>
      <trkpt lat="49.33534" lon="-1.67658">
        <ele>16</ele>
        <time>2022-07-30T08:41:37+02:00</time>
      </trkpt>
      <trkpt lat="49.33537" lon="-1.67619">
        <ele>16</ele>
        <time>2022-07-30T08:41:37+02:00</time>
      </trkpt>
      <trkpt lat="49.33537" lon="-1.67585">
        <ele>16</ele>
        <time>2022-07-30T08:41:37+02:00</time>
      </trkpt>
      <trkpt lat="49.3354" lon="-1.67549">
        <ele>16</ele>
        <time>2022-07-30T08:41:37+02:00</time>
      </trkpt>
      <trkpt lat="49.33537" lon="-1.67515">
        <ele>16</ele>
        <time>2022-07-30T08:41:37+02:00</time>
      </trkpt>
      <trkpt lat="49.3354" lon="-1.6748">
        <ele>18</ele>
        <time>2022-07-30T08:41:37+02:00</time>
      </trkpt>
      <trkpt lat="49.33542" lon="-1.67437">
        <ele>20</ele>
        <time>2022-07-30T08:41:37+02:00</time>
      </trkpt>
      <trkpt lat="49.33543" lon="-1.674">
        <ele>19</ele>
        <time>2022-07-30T08:41:37+02:00</time>
      </trkpt>
      <trkpt lat="49.33543" lon="-1.67359">
        <ele>20</ele>
        <time>2022-07-30T08:41:37+02:00</time>
      </trkpt>
      <trkpt lat="49.33544" lon="-1.6732">
        <ele>20</ele>
        <time>2022-07-30T08:41:37+02:00</time>
      </trkpt>
      <trkpt lat="49.33545" lon="-1.67279">
        <ele>18</ele>
        <time>2022-07-30T08:41:37+02:00</time>
      </trkpt>
      <trkpt lat="49.33544" lon="-1.67244">
        <ele>18</ele>
        <time>2022-07-30T08:41:37+02:00</time>
      </trkpt>
      <trkpt lat="49.33543" lon="-1.67203">
        <ele>20</ele>
        <time>2022-07-30T08:41:37+02:00</time>
      </trkpt>
      <trkpt lat="49.33544" lon="-1.67164">
        <ele>18</ele>
        <time>2022-07-30T08:41:37+02:00</time>
      </trkpt>
      <trkpt lat="49.33546" lon="-1.67124">
        <ele>18</ele>
        <time>2022-07-30T08:41:37+02:00</time>
      </trkpt>
      <trkpt lat="49.33549" lon="-1.67083">
        <ele>18</ele>
        <time>2022-07-30T08:41:37+02:00</time>
      </trkpt>
      <trkpt lat="49.33548" lon="-1.67048">
        <ele>18</ele>
        <time>2022-07-30T08:41:37+02:00</time>
      </trkpt>
      <trkpt lat="49.33547" lon="-1.67013">
        <ele>18</ele>
        <time>2022-07-30T08:41:37+02:00</time>
      </trkpt>
      <trkpt lat="49.33548" lon="-1.66978">
        <ele>18</ele>
        <time>2022-07-30T08:41:37+02:00</time>
      </trkpt>
      <trkpt lat="49.3355" lon="-1.66937">
        <ele>18</ele>
        <time>2022-07-30T08:41:37+02:00</time>
      </trkpt>
      <trkpt lat="49.33551" lon="-1.66901">
        <ele>18</ele>
        <time>2022-07-30T08:41:37+02:00</time>
      </trkpt>
      <trkpt lat="49.33552" lon="-1.66865">
        <ele>17</ele>
        <time>2022-07-30T08:41:37+02:00</time>
      </trkpt>
      <trkpt lat="49.33551" lon="-1.6683">
        <ele>17</ele>
        <time>2022-07-30T08:41:37+02:00</time>
      </trkpt>
      <trkpt lat="49.3355" lon="-1.6679">
        <ele>17</ele>
        <time>2022-07-30T08:41:37+02:00</time>
      </trkpt>
      <trkpt lat="49.33548" lon="-1.66756">
        <ele>17</ele>
        <time>2022-07-30T08:41:37+02:00</time>
      </trkpt>
      <trkpt lat="49.33546" lon="-1.66716">
        <ele>17</ele>
        <time>2022-07-30T08:41:37+02:00</time>
      </trkpt>
      <trkpt lat="49.33543" lon="-1.66681">
        <ele>17</ele>
        <time>2022-07-30T08:41:37+02:00</time>
      </trkpt>
      <trkpt lat="49.33539" lon="-1.66646">
        <ele>17</ele>
        <time>2022-07-30T08:41:37+02:00</time>
      </trkpt>
      <trkpt lat="49.33522" lon="-1.66619">
        <ele>16</ele>
        <time>2022-07-30T08:41:37+02:00</time>
      </trkpt>
      <trkpt lat="49.33533" lon="-1.66584">
        <ele>16</ele>
        <time>2022-07-30T08:41:37+02:00</time>
      </trkpt>
      <trkpt lat="49.33526" lon="-1.66551">
        <ele>17</ele>
        <time>2022-07-30T08:41:37+02:00</time>
      </trkpt>
      <trkpt lat="49.33521" lon="-1.66509">
        <ele>16</ele>
        <time>2022-07-30T08:41:37+02:00</time>
      </trkpt>
      <trkpt lat="49.33514" lon="-1.66472">
        <ele>16</ele>
        <time>2022-07-30T08:41:37+02:00</time>
      </trkpt>
      <trkpt lat="49.33506" lon="-1.66433">
        <ele>16</ele>
        <time>2022-07-30T08:41:37+02:00</time>
      </trkpt>
      <trkpt lat="49.33499" lon="-1.66399">
        <ele>16</ele>
        <time>2022-07-30T08:41:37+02:00</time>
      </trkpt>
      <trkpt lat="49.33491" lon="-1.66366">
        <ele>15</ele>
        <time>2022-07-30T08:41:37+02:00</time>
      </trkpt>
      <trkpt lat="49.33482" lon="-1.6633">
        <ele>14</ele>
        <time>2022-07-30T08:41:37+02:00</time>
      </trkpt>
      <trkpt lat="49.33474" lon="-1.66296">
        <ele>14</ele>
        <time>2022-07-30T08:41:37+02:00</time>
      </trkpt>
      <trkpt lat="49.33466" lon="-1.66261">
        <ele>14</ele>
        <time>2022-07-30T08:41:37+02:00</time>
      </trkpt>
      <trkpt lat="49.33457" lon="-1.66219">
        <ele>12</ele>
        <time>2022-07-30T08:41:37+02:00</time>
      </trkpt>
      <trkpt lat="49.33448" lon="-1.6618">
        <ele>11</ele>
        <time>2022-07-30T08:41:37+02:00</time>
      </trkpt>
      <trkpt lat="49.33441" lon="-1.66147">
        <ele>12</ele>
        <time>2022-07-30T08:41:37+02:00</time>
      </trkpt>
      <trkpt lat="49.33433" lon="-1.66113">
        <ele>11</ele>
        <time>2022-07-30T08:41:37+02:00</time>
      </trkpt>
      <trkpt lat="49.33424" lon="-1.66079">
        <ele>10</ele>
        <time>2022-07-30T08:41:37+02:00</time>
      </trkpt>
      <trkpt lat="49.33417" lon="-1.66045">
        <ele>11</ele>
        <time>2022-07-30T08:41:37+02:00</time>
      </trkpt>
      <trkpt lat="49.33408" lon="-1.66009">
        <ele>11</ele>
        <time>2022-07-30T08:41:37+02:00</time>
      </trkpt>
      <trkpt lat="49.33401" lon="-1.65975">
        <ele>11</ele>
        <time>2022-07-30T08:41:37+02:00</time>
      </trkpt>
      <trkpt lat="49.33393" lon="-1.6594">
        <ele>11</ele>
        <time>2022-07-30T08:41:37+02:00</time>
      </trkpt>
      <trkpt lat="49.33385" lon="-1.65906">
        <ele>11</ele>
        <time>2022-07-30T08:41:37+02:00</time>
      </trkpt>
      <trkpt lat="49.33378" lon="-1.65872">
        <ele>11</ele>
        <time>2022-07-30T08:41:37+02:00</time>
      </trkpt>
      <trkpt lat="49.33369" lon="-1.65834">
        <ele>10</ele>
        <time>2022-07-30T08:41:37+02:00</time>
      </trkpt>
      <trkpt lat="49.3336" lon="-1.65797">
        <ele>11</ele>
        <time>2022-07-30T08:41:37+02:00</time>
      </trkpt>
      <trkpt lat="49.33351" lon="-1.65759">
        <ele>11</ele>
        <time>2022-07-30T08:41:37+02:00</time>
      </trkpt>
      <trkpt lat="49.33341" lon="-1.6572">
        <ele>11</ele>
        <time>2022-07-30T08:41:37+02:00</time>
      </trkpt>
      <trkpt lat="49.33333" lon="-1.65685">
        <ele>12</ele>
        <time>2022-07-30T08:41:37+02:00</time>
      </trkpt>
      <trkpt lat="49.33326" lon="-1.65648">
        <ele>13</ele>
        <time>2022-07-30T08:41:37+02:00</time>
      </trkpt>
      <trkpt lat="49.33317" lon="-1.65611">
        <ele>13</ele>
        <time>2022-07-30T08:41:37+02:00</time>
      </trkpt>
      <trkpt lat="49.33308" lon="-1.65576">
        <ele>15</ele>
        <time>2022-07-30T08:41:37+02:00</time>
      </trkpt>
      <trkpt lat="49.33302" lon="-1.6554">
        <ele>16</ele>
        <time>2022-07-30T08:41:37+02:00</time>
      </trkpt>
      <trkpt lat="49.33295" lon="-1.655">
        <ele>16</ele>
        <time>2022-07-30T08:41:37+02:00</time>
      </trkpt>
      <trkpt lat="49.3329" lon="-1.65465">
        <ele>15</ele>
        <time>2022-07-30T08:41:37+02:00</time>
      </trkpt>
      <trkpt lat="49.33285" lon="-1.65431">
        <ele>16</ele>
        <time>2022-07-30T08:41:37+02:00</time>
      </trkpt>
      <trkpt lat="49.3328" lon="-1.65392">
        <ele>16</ele>
        <time>2022-07-30T08:41:37+02:00</time>
      </trkpt>
      <trkpt lat="49.33276" lon="-1.65355">
        <ele>15</ele>
        <time>2022-07-30T08:41:37+02:00</time>
      </trkpt>
      <trkpt lat="49.33271" lon="-1.65317">
        <ele>16</ele>
        <time>2022-07-30T08:41:37+02:00</time>
      </trkpt>
      <trkpt lat="49.33266" lon="-1.65279">
        <ele>16</ele>
        <time>2022-07-30T08:41:37+02:00</time>
      </trkpt>
      <trkpt lat="49.33263" lon="-1.65245">
        <ele>16</ele>
        <time>2022-07-30T08:41:37+02:00</time>
      </trkpt>
      <trkpt lat="49.33261" lon="-1.65206">
        <ele>17</ele>
        <time>2022-07-30T08:41:37+02:00</time>
      </trkpt>
      <trkpt lat="49.33257" lon="-1.65169">
        <ele>18</ele>
        <time>2022-07-30T08:41:37+02:00</time>
      </trkpt>
      <trkpt lat="49.33254" lon="-1.65129">
        <ele>18</ele>
        <time>2022-07-30T08:41:37+02:00</time>
      </trkpt>
      <trkpt lat="49.3325" lon="-1.6509">
        <ele>19</ele>
        <time>2022-07-30T08:41:37+02:00</time>
      </trkpt>
      <trkpt lat="49.33245" lon="-1.65053">
        <ele>20</ele>
        <time>2022-07-30T08:41:37+02:00</time>
      </trkpt>
      <trkpt lat="49.33241" lon="-1.65017">
        <ele>19</ele>
        <time>2022-07-30T08:41:37+02:00</time>
      </trkpt>
      <trkpt lat="49.33238" lon="-1.64977">
        <ele>20</ele>
        <time>2022-07-30T08:41:37+02:00</time>
      </trkpt>
      <trkpt lat="49.33233" lon="-1.64938">
        <ele>21</ele>
        <time>2022-07-30T08:41:37+02:00</time>
      </trkpt>
      <trkpt lat="49.3323" lon="-1.64902">
        <ele>22</ele>
        <time>2022-07-30T08:41:37+02:00</time>
      </trkpt>
      <trkpt lat="49.33227" lon="-1.64866">
        <ele>22</ele>
        <time>2022-07-30T08:41:37+02:00</time>
      </trkpt>
      <trkpt lat="49.33224" lon="-1.64829">
        <ele>23</ele>
        <time>2022-07-30T08:41:37+02:00</time>
      </trkpt>
      <trkpt lat="49.33219" lon="-1.64794">
        <ele>24</ele>
        <time>2022-07-30T08:41:37+02:00</time>
      </trkpt>
      <trkpt lat="49.33214" lon="-1.64755">
        <ele>24</ele>
        <time>2022-07-30T08:41:37+02:00</time>
      </trkpt>
      <trkpt lat="49.3321" lon="-1.64716">
        <ele>25</ele>
        <time>2022-07-30T08:41:37+02:00</time>
      </trkpt>
      <trkpt lat="49.33207" lon="-1.64676">
        <ele>25</ele>
        <time>2022-07-30T08:41:37+02:00</time>
      </trkpt>
      <trkpt lat="49.33204" lon="-1.64634">
        <ele>26</ele>
        <time>2022-07-30T08:41:37+02:00</time>
      </trkpt>
      <trkpt lat="49.33202" lon="-1.646">
        <ele>26</ele>
        <time>2022-07-30T08:41:37+02:00</time>
      </trkpt>
      <trkpt lat="49.33199" lon="-1.64561">
        <ele>27</ele>
        <time>2022-07-30T08:41:37+02:00</time>
      </trkpt>
      <trkpt lat="49.33195" lon="-1.64521">
        <ele>28</ele>
        <time>2022-07-30T08:41:37+02:00</time>
      </trkpt>
      <trkpt lat="49.3319" lon="-1.64482">
        <ele>27</ele>
        <time>2022-07-30T08:41:37+02:00</time>
      </trkpt>
      <trkpt lat="49.33184" lon="-1.64445">
        <ele>27</ele>
        <time>2022-07-30T08:41:37+02:00</time>
      </trkpt>
      <trkpt lat="49.33177" lon="-1.64411">
        <ele>27</ele>
        <time>2022-07-30T08:41:37+02:00</time>
      </trkpt>
      <trkpt lat="49.33174" lon="-1.64377">
        <ele>26</ele>
        <time>2022-07-30T08:41:37+02:00</time>
      </trkpt>
      <trkpt lat="49.33169" lon="-1.64341">
        <ele>26</ele>
        <time>2022-07-30T08:41:37+02:00</time>
      </trkpt>
      <trkpt lat="49.33163" lon="-1.643">
        <ele>26</ele>
        <time>2022-07-30T08:41:37+02:00</time>
      </trkpt>
      <trkpt lat="49.33156" lon="-1.64267">
        <ele>24</ele>
        <time>2022-07-30T08:41:37+02:00</time>
      </trkpt>
      <trkpt lat="49.33148" lon="-1.64232">
        <ele>23</ele>
        <time>2022-07-30T08:41:37+02:00</time>
      </trkpt>
      <trkpt lat="49.33139" lon="-1.64193">
        <ele>22</ele>
        <time>2022-07-30T08:41:37+02:00</time>
      </trkpt>
      <trkpt lat="49.33132" lon="-1.64158">
        <ele>22</ele>
        <time>2022-07-30T08:41:37+02:00</time>
      </trkpt>
      <trkpt lat="49.33124" lon="-1.64124">
        <ele>20</ele>
        <time>2022-07-30T08:41:37+02:00</time>
      </trkpt>
      <trkpt lat="49.33114" lon="-1.64089">
        <ele>20</ele>
        <time>2022-07-30T08:41:37+02:00</time>
      </trkpt>
      <trkpt lat="49.33108" lon="-1.64055">
        <ele>19</ele>
        <time>2022-07-30T08:41:37+02:00</time>
      </trkpt>
      <trkpt lat="49.33119" lon="-1.64024">
        <ele>19</ele>
        <time>2022-07-30T08:41:37+02:00</time>
      </trkpt>
      <trkpt lat="49.33118" lon="-1.63983">
        <ele>19</ele>
        <time>2022-07-30T08:41:37+02:00</time>
      </trkpt>
      <trkpt lat="49.33107" lon="-1.63951">
        <ele>17</ele>
        <time>2022-07-30T08:41:37+02:00</time>
      </trkpt>
      <trkpt lat="49.33097" lon="-1.63919">
        <ele>17</ele>
        <time>2022-07-30T08:41:37+02:00</time>
      </trkpt>
      <trkpt lat="49.33081" lon="-1.63888">
        <ele>18</ele>
        <time>2022-07-30T08:41:37+02:00</time>
      </trkpt>
      <trkpt lat="49.33064" lon="-1.63861">
        <ele>17</ele>
        <time>2022-07-30T08:41:37+02:00</time>
      </trkpt>
      <trkpt lat="49.33047" lon="-1.63838">
        <ele>18</ele>
        <time>2022-07-30T08:41:37+02:00</time>
      </trkpt>
      <trkpt lat="49.33025" lon="-1.63815">
        <ele>18</ele>
        <time>2022-07-30T08:41:37+02:00</time>
      </trkpt>
      <trkpt lat="49.33011" lon="-1.63783">
        <ele>18</ele>
        <time>2022-07-30T08:41:37+02:00</time>
      </trkpt>
      <trkpt lat="49.32996" lon="-1.63748">
        <ele>16</ele>
        <time>2022-07-30T08:41:37+02:00</time>
      </trkpt>
      <trkpt lat="49.32983" lon="-1.63713">
        <ele>17</ele>
        <time>2022-07-30T08:41:37+02:00</time>
      </trkpt>
      <trkpt lat="49.3297" lon="-1.63679">
        <ele>17</ele>
        <time>2022-07-30T08:41:37+02:00</time>
      </trkpt>
      <trkpt lat="49.32958" lon="-1.63648">
        <ele>17</ele>
        <time>2022-07-30T08:41:37+02:00</time>
      </trkpt>
      <trkpt lat="49.32944" lon="-1.63613">
        <ele>17</ele>
        <time>2022-07-30T08:41:37+02:00</time>
      </trkpt>
      <trkpt lat="49.3293" lon="-1.63578">
        <ele>16</ele>
        <time>2022-07-30T08:41:37+02:00</time>
      </trkpt>
      <trkpt lat="49.32919" lon="-1.63547">
        <ele>16</ele>
        <time>2022-07-30T08:41:37+02:00</time>
      </trkpt>
      <trkpt lat="49.32905" lon="-1.63515">
        <ele>16</ele>
        <time>2022-07-30T08:41:37+02:00</time>
      </trkpt>
      <trkpt lat="49.32893" lon="-1.63486">
        <ele>16</ele>
        <time>2022-07-30T08:41:37+02:00</time>
      </trkpt>
      <trkpt lat="49.32882" lon="-1.63455">
        <ele>17</ele>
        <time>2022-07-30T08:41:37+02:00</time>
      </trkpt>
      <trkpt lat="49.3287" lon="-1.63426">
        <ele>17</ele>
        <time>2022-07-30T08:41:37+02:00</time>
      </trkpt>
      <trkpt lat="49.32858" lon="-1.63395">
        <ele>17</ele>
        <time>2022-07-30T08:41:37+02:00</time>
      </trkpt>
      <trkpt lat="49.32846" lon="-1.63363">
        <ele>16</ele>
        <time>2022-07-30T08:41:37+02:00</time>
      </trkpt>
      <trkpt lat="49.32833" lon="-1.63333">
        <ele>16</ele>
        <time>2022-07-30T08:41:37+02:00</time>
      </trkpt>
      <trkpt lat="49.32821" lon="-1.633">
        <ele>16</ele>
        <time>2022-07-30T08:41:37+02:00</time>
      </trkpt>
      <trkpt lat="49.32808" lon="-1.6327">
        <ele>17</ele>
        <time>2022-07-30T08:41:37+02:00</time>
      </trkpt>
      <trkpt lat="49.32797" lon="-1.63238">
        <ele>17</ele>
        <time>2022-07-30T08:41:37+02:00</time>
      </trkpt>
      <trkpt lat="49.32784" lon="-1.63204">
        <ele>17</ele>
        <time>2022-07-30T08:41:37+02:00</time>
      </trkpt>
      <trkpt lat="49.32772" lon="-1.63174">
        <ele>17</ele>
        <time>2022-07-30T08:41:37+02:00</time>
      </trkpt>
      <trkpt lat="49.32762" lon="-1.63143">
        <ele>17</ele>
        <time>2022-07-30T08:41:37+02:00</time>
      </trkpt>
      <trkpt lat="49.32748" lon="-1.63108">
        <ele>18</ele>
        <time>2022-07-30T08:41:37+02:00</time>
      </trkpt>
      <trkpt lat="49.32734" lon="-1.63073">
        <ele>18</ele>
        <time>2022-07-30T08:41:37+02:00</time>
      </trkpt>
      <trkpt lat="49.32724" lon="-1.63042">
        <ele>18</ele>
        <time>2022-07-30T08:41:37+02:00</time>
      </trkpt>
      <trkpt lat="49.32709" lon="-1.63011">
        <ele>17</ele>
        <time>2022-07-30T08:41:37+02:00</time>
      </trkpt>
      <trkpt lat="49.32697" lon="-1.62981">
        <ele>17</ele>
        <time>2022-07-30T08:41:37+02:00</time>
      </trkpt>
      <trkpt lat="49.32683" lon="-1.62948">
        <ele>17</ele>
        <time>2022-07-30T08:41:37+02:00</time>
      </trkpt>
      <trkpt lat="49.32671" lon="-1.62916">
        <ele>17</ele>
        <time>2022-07-30T08:41:37+02:00</time>
      </trkpt>
      <trkpt lat="49.32659" lon="-1.62885">
        <ele>17</ele>
        <time>2022-07-30T08:41:37+02:00</time>
      </trkpt>
      <trkpt lat="49.32646" lon="-1.62848">
        <ele>17</ele>
        <time>2022-07-30T08:41:37+02:00</time>
      </trkpt>
      <trkpt lat="49.32633" lon="-1.62817">
        <ele>18</ele>
        <time>2022-07-30T08:41:37+02:00</time>
      </trkpt>
      <trkpt lat="49.32621" lon="-1.62785">
        <ele>18</ele>
        <time>2022-07-30T08:41:37+02:00</time>
      </trkpt>
      <trkpt lat="49.32608" lon="-1.62752">
        <ele>17</ele>
        <time>2022-07-30T08:41:37+02:00</time>
      </trkpt>
      <trkpt lat="49.32595" lon="-1.62723">
        <ele>16</ele>
        <time>2022-07-30T08:41:37+02:00</time>
      </trkpt>
      <trkpt lat="49.32584" lon="-1.62693">
        <ele>17</ele>
        <time>2022-07-30T08:41:37+02:00</time>
      </trkpt>
      <trkpt lat="49.32571" lon="-1.6266">
        <ele>15</ele>
        <time>2022-07-30T08:41:37+02:00</time>
      </trkpt>
      <trkpt lat="49.32557" lon="-1.62629">
        <ele>14</ele>
        <time>2022-07-30T08:41:37+02:00</time>
      </trkpt>
      <trkpt lat="49.32544" lon="-1.62596">
        <ele>13</ele>
        <time>2022-07-30T08:41:37+02:00</time>
      </trkpt>
      <trkpt lat="49.32532" lon="-1.62565">
        <ele>13</ele>
        <time>2022-07-30T08:41:37+02:00</time>
      </trkpt>
      <trkpt lat="49.3252" lon="-1.62533">
        <ele>12</ele>
        <time>2022-07-30T08:41:37+02:00</time>
      </trkpt>
      <trkpt lat="49.32508" lon="-1.62502">
        <ele>11</ele>
        <time>2022-07-30T08:41:37+02:00</time>
      </trkpt>
      <trkpt lat="49.32496" lon="-1.62472">
        <ele>11</ele>
        <time>2022-07-30T08:41:37+02:00</time>
      </trkpt>
      <trkpt lat="49.32484" lon="-1.62439">
        <ele>11</ele>
        <time>2022-07-30T08:41:37+02:00</time>
      </trkpt>
      <trkpt lat="49.3247" lon="-1.62406">
        <ele>11</ele>
        <time>2022-07-30T08:41:37+02:00</time>
      </trkpt>
      <trkpt lat="49.32458" lon="-1.62376">
        <ele>11</ele>
        <time>2022-07-30T08:41:37+02:00</time>
      </trkpt>
      <trkpt lat="49.32444" lon="-1.62339">
        <ele>11</ele>
        <time>2022-07-30T08:41:37+02:00</time>
      </trkpt>
      <trkpt lat="49.32432" lon="-1.62309">
        <ele>12</ele>
        <time>2022-07-30T08:41:37+02:00</time>
      </trkpt>
      <trkpt lat="49.32421" lon="-1.62278">
        <ele>12</ele>
        <time>2022-07-30T08:41:37+02:00</time>
      </trkpt>
      <trkpt lat="49.32409" lon="-1.62249">
        <ele>12</ele>
        <time>2022-07-30T08:41:37+02:00</time>
      </trkpt>
      <trkpt lat="49.32397" lon="-1.62219">
        <ele>12</ele>
        <time>2022-07-30T08:41:37+02:00</time>
      </trkpt>
      <trkpt lat="49.32385" lon="-1.62189">
        <ele>13</ele>
        <time>2022-07-30T08:41:37+02:00</time>
      </trkpt>
      <trkpt lat="49.32373" lon="-1.62159">
        <ele>13</ele>
        <time>2022-07-30T08:41:37+02:00</time>
      </trkpt>
      <trkpt lat="49.32359" lon="-1.62123">
        <ele>13</ele>
        <time>2022-07-30T08:41:37+02:00</time>
      </trkpt>
      <trkpt lat="49.32347" lon="-1.62093">
        <ele>13</ele>
        <time>2022-07-30T08:41:37+02:00</time>
      </trkpt>
      <trkpt lat="49.32336" lon="-1.62063">
        <ele>13</ele>
        <time>2022-07-30T08:41:37+02:00</time>
      </trkpt>
      <trkpt lat="49.32322" lon="-1.62027">
        <ele>13</ele>
        <time>2022-07-30T08:41:37+02:00</time>
      </trkpt>
      <trkpt lat="49.32309" lon="-1.61997">
        <ele>13</ele>
        <time>2022-07-30T08:41:37+02:00</time>
      </trkpt>
      <trkpt lat="49.32295" lon="-1.61961">
        <ele>13</ele>
        <time>2022-07-30T08:41:37+02:00</time>
      </trkpt>
      <trkpt lat="49.32281" lon="-1.61923">
        <ele>13</ele>
        <time>2022-07-30T08:41:37+02:00</time>
      </trkpt>
      <trkpt lat="49.32268" lon="-1.61888">
        <ele>13</ele>
        <time>2022-07-30T08:41:37+02:00</time>
      </trkpt>
      <trkpt lat="49.32256" lon="-1.61858">
        <ele>13</ele>
        <time>2022-07-30T08:41:37+02:00</time>
      </trkpt>
      <trkpt lat="49.32243" lon="-1.61821">
        <ele>13</ele>
        <time>2022-07-30T08:41:37+02:00</time>
      </trkpt>
      <trkpt lat="49.3223" lon="-1.61793">
        <ele>14</ele>
        <time>2022-07-30T08:41:37+02:00</time>
      </trkpt>
      <trkpt lat="49.32219" lon="-1.61762">
        <ele>13</ele>
        <time>2022-07-30T08:41:37+02:00</time>
      </trkpt>
      <trkpt lat="49.32206" lon="-1.6173">
        <ele>13</ele>
        <time>2022-07-30T08:41:37+02:00</time>
      </trkpt>
      <trkpt lat="49.32193" lon="-1.61701">
        <ele>13</ele>
        <time>2022-07-30T08:41:37+02:00</time>
      </trkpt>
      <trkpt lat="49.32182" lon="-1.61669">
        <ele>13</ele>
        <time>2022-07-30T08:41:37+02:00</time>
      </trkpt>
      <trkpt lat="49.32167" lon="-1.61634">
        <ele>12</ele>
        <time>2022-07-30T08:41:37+02:00</time>
      </trkpt>
      <trkpt lat="49.32154" lon="-1.61596">
        <ele>12</ele>
        <time>2022-07-30T08:41:37+02:00</time>
      </trkpt>
      <trkpt lat="49.32139" lon="-1.61561">
        <ele>12</ele>
        <time>2022-07-30T08:41:37+02:00</time>
      </trkpt>
      <trkpt lat="49.32127" lon="-1.61531">
        <ele>12</ele>
        <time>2022-07-30T08:41:37+02:00</time>
      </trkpt>
      <trkpt lat="49.32113" lon="-1.61494">
        <ele>12</ele>
        <time>2022-07-30T08:41:37+02:00</time>
      </trkpt>
      <trkpt lat="49.32102" lon="-1.61463">
        <ele>11</ele>
        <time>2022-07-30T08:41:37+02:00</time>
      </trkpt>
      <trkpt lat="49.32091" lon="-1.61425">
        <ele>12</ele>
        <time>2022-07-30T08:41:37+02:00</time>
      </trkpt>
      <trkpt lat="49.32081" lon="-1.61391">
        <ele>12</ele>
        <time>2022-07-30T08:41:37+02:00</time>
      </trkpt>
      <trkpt lat="49.32068" lon="-1.61354">
        <ele>12</ele>
        <time>2022-07-30T08:41:37+02:00</time>
      </trkpt>
      <trkpt lat="49.32057" lon="-1.61316">
        <ele>12</ele>
        <time>2022-07-30T08:41:37+02:00</time>
      </trkpt>
      <trkpt lat="49.32046" lon="-1.61279">
        <ele>12</ele>
        <time>2022-07-30T08:41:37+02:00</time>
      </trkpt>
      <trkpt lat="49.32035" lon="-1.61245">
        <ele>12</ele>
        <time>2022-07-30T08:41:37+02:00</time>
      </trkpt>
      <trkpt lat="49.32024" lon="-1.61208">
        <ele>12</ele>
        <time>2022-07-30T08:41:37+02:00</time>
      </trkpt>
      <trkpt lat="49.32013" lon="-1.61173">
        <ele>12</ele>
        <time>2022-07-30T08:41:37+02:00</time>
      </trkpt>
      <trkpt lat="49.32002" lon="-1.61137">
        <ele>13</ele>
        <time>2022-07-30T08:41:37+02:00</time>
      </trkpt>
      <trkpt lat="49.31989" lon="-1.61104">
        <ele>13</ele>
        <time>2022-07-30T08:41:37+02:00</time>
      </trkpt>
      <trkpt lat="49.31979" lon="-1.61068">
        <ele>13</ele>
        <time>2022-07-30T08:41:37+02:00</time>
      </trkpt>
      <trkpt lat="49.31968" lon="-1.61034">
        <ele>13</ele>
        <time>2022-07-30T08:41:37+02:00</time>
      </trkpt>
      <trkpt lat="49.3196" lon="-1.61001">
        <ele>13</ele>
        <time>2022-07-30T08:41:37+02:00</time>
      </trkpt>
      <trkpt lat="49.31948" lon="-1.60967">
        <ele>14</ele>
        <time>2022-07-30T08:41:37+02:00</time>
      </trkpt>
      <trkpt lat="49.31939" lon="-1.60933">
        <ele>14</ele>
        <time>2022-07-30T08:41:37+02:00</time>
      </trkpt>
      <trkpt lat="49.31929" lon="-1.609">
        <ele>15</ele>
        <time>2022-07-30T08:41:37+02:00</time>
      </trkpt>
      <trkpt lat="49.31921" lon="-1.60867">
        <ele>15</ele>
        <time>2022-07-30T08:41:37+02:00</time>
      </trkpt>
      <trkpt lat="49.31912" lon="-1.60835">
        <ele>16</ele>
        <time>2022-07-30T08:41:37+02:00</time>
      </trkpt>
      <trkpt lat="49.31899" lon="-1.60799">
        <ele>17</ele>
        <time>2022-07-30T08:41:37+02:00</time>
      </trkpt>
      <trkpt lat="49.3189" lon="-1.60766">
        <ele>18</ele>
        <time>2022-07-30T08:41:37+02:00</time>
      </trkpt>
      <trkpt lat="49.3188" lon="-1.60733">
        <ele>18</ele>
        <time>2022-07-30T08:41:37+02:00</time>
      </trkpt>
      <trkpt lat="49.31869" lon="-1.60698">
        <ele>18</ele>
        <time>2022-07-30T08:41:37+02:00</time>
      </trkpt>
      <trkpt lat="49.31859" lon="-1.60661">
        <ele>20</ele>
        <time>2022-07-30T08:41:37+02:00</time>
      </trkpt>
      <trkpt lat="49.31849" lon="-1.60625">
        <ele>20</ele>
        <time>2022-07-30T08:41:37+02:00</time>
      </trkpt>
      <trkpt lat="49.31839" lon="-1.60594">
        <ele>21</ele>
        <time>2022-07-30T08:41:37+02:00</time>
      </trkpt>
      <trkpt lat="49.31829" lon="-1.60557">
        <ele>21</ele>
        <time>2022-07-30T08:41:37+02:00</time>
      </trkpt>
      <trkpt lat="49.31819" lon="-1.60522">
        <ele>22</ele>
        <time>2022-07-30T08:41:37+02:00</time>
      </trkpt>
      <trkpt lat="49.31809" lon="-1.6049">
        <ele>22</ele>
        <time>2022-07-30T08:41:37+02:00</time>
      </trkpt>
      <trkpt lat="49.318" lon="-1.60458">
        <ele>23</ele>
        <time>2022-07-30T08:41:37+02:00</time>
      </trkpt>
      <trkpt lat="49.31791" lon="-1.60425">
        <ele>23</ele>
        <time>2022-07-30T08:41:37+02:00</time>
      </trkpt>
      <trkpt lat="49.31781" lon="-1.60393">
        <ele>24</ele>
        <time>2022-07-30T08:41:37+02:00</time>
      </trkpt>
      <trkpt lat="49.3177" lon="-1.60359">
        <ele>24</ele>
        <time>2022-07-30T08:41:37+02:00</time>
      </trkpt>
      <trkpt lat="49.31761" lon="-1.60325">
        <ele>23</ele>
        <time>2022-07-30T08:41:37+02:00</time>
      </trkpt>
      <trkpt lat="49.31752" lon="-1.60294">
        <ele>24</ele>
        <time>2022-07-30T08:41:37+02:00</time>
      </trkpt>
      <trkpt lat="49.31742" lon="-1.60259">
        <ele>24</ele>
        <time>2022-07-30T08:41:37+02:00</time>
      </trkpt>
      <trkpt lat="49.31732" lon="-1.60225">
        <ele>24</ele>
        <time>2022-07-30T08:41:37+02:00</time>
      </trkpt>
      <trkpt lat="49.31722" lon="-1.60192">
        <ele>26</ele>
        <time>2022-07-30T08:41:37+02:00</time>
      </trkpt>
      <trkpt lat="49.31713" lon="-1.60159">
        <ele>26</ele>
        <time>2022-07-30T08:41:37+02:00</time>
      </trkpt>
      <trkpt lat="49.31703" lon="-1.60127">
        <ele>27</ele>
        <time>2022-07-30T08:41:37+02:00</time>
      </trkpt>
      <trkpt lat="49.31693" lon="-1.60094">
        <ele>26</ele>
        <time>2022-07-30T08:41:37+02:00</time>
      </trkpt>
      <trkpt lat="49.31685" lon="-1.6006">
        <ele>28</ele>
        <time>2022-07-30T08:41:37+02:00</time>
      </trkpt>
      <trkpt lat="49.31674" lon="-1.60028">
        <ele>29</ele>
        <time>2022-07-30T08:41:37+02:00</time>
      </trkpt>
      <trkpt lat="49.31663" lon="-1.59996">
        <ele>29</ele>
        <time>2022-07-30T08:41:37+02:00</time>
      </trkpt>
      <trkpt lat="49.31655" lon="-1.59963">
        <ele>29</ele>
        <time>2022-07-30T08:41:37+02:00</time>
      </trkpt>
      <trkpt lat="49.31644" lon="-1.59932">
        <ele>29</ele>
        <time>2022-07-30T08:41:37+02:00</time>
      </trkpt>
      <trkpt lat="49.31634" lon="-1.59901">
        <ele>30</ele>
        <time>2022-07-30T08:41:37+02:00</time>
      </trkpt>
      <trkpt lat="49.31624" lon="-1.5987">
        <ele>30</ele>
        <time>2022-07-30T08:41:37+02:00</time>
      </trkpt>
      <trkpt lat="49.31612" lon="-1.59834">
        <ele>30</ele>
        <time>2022-07-30T08:41:37+02:00</time>
      </trkpt>
      <trkpt lat="49.31599" lon="-1.59802">
        <ele>30</ele>
        <time>2022-07-30T08:41:37+02:00</time>
      </trkpt>
      <trkpt lat="49.31585" lon="-1.59768">
        <ele>30</ele>
        <time>2022-07-30T08:41:37+02:00</time>
      </trkpt>
      <trkpt lat="49.31573" lon="-1.59733">
        <ele>30</ele>
        <time>2022-07-30T08:41:37+02:00</time>
      </trkpt>
      <trkpt lat="49.31559" lon="-1.59699">
        <ele>30</ele>
        <time>2022-07-30T08:41:37+02:00</time>
      </trkpt>
      <trkpt lat="49.31546" lon="-1.59666">
        <ele>30</ele>
        <time>2022-07-30T08:41:37+02:00</time>
      </trkpt>
      <trkpt lat="49.31531" lon="-1.5963">
        <ele>29</ele>
        <time>2022-07-30T08:41:37+02:00</time>
      </trkpt>
      <trkpt lat="49.31518" lon="-1.596">
        <ele>30</ele>
        <time>2022-07-30T08:41:37+02:00</time>
      </trkpt>
      <trkpt lat="49.31504" lon="-1.59569">
        <ele>29</ele>
        <time>2022-07-30T08:41:37+02:00</time>
      </trkpt>
      <trkpt lat="49.31492" lon="-1.59539">
        <ele>30</ele>
        <time>2022-07-30T08:41:37+02:00</time>
      </trkpt>
      <trkpt lat="49.31479" lon="-1.5951">
        <ele>29</ele>
        <time>2022-07-30T08:41:37+02:00</time>
      </trkpt>
      <trkpt lat="49.31466" lon="-1.59479">
        <ele>30</ele>
        <time>2022-07-30T08:41:37+02:00</time>
      </trkpt>
      <trkpt lat="49.31452" lon="-1.59449">
        <ele>31</ele>
        <time>2022-07-30T08:41:37+02:00</time>
      </trkpt>
      <trkpt lat="49.31438" lon="-1.59416">
        <ele>30</ele>
        <time>2022-07-30T08:41:37+02:00</time>
      </trkpt>
      <trkpt lat="49.31425" lon="-1.59386">
        <ele>31</ele>
        <time>2022-07-30T08:41:37+02:00</time>
      </trkpt>
      <trkpt lat="49.3141" lon="-1.59353">
        <ele>31</ele>
        <time>2022-07-30T08:41:37+02:00</time>
      </trkpt>
      <trkpt lat="49.31398" lon="-1.59322">
        <ele>31</ele>
        <time>2022-07-30T08:41:37+02:00</time>
      </trkpt>
      <trkpt lat="49.31383" lon="-1.59291">
        <ele>31</ele>
        <time>2022-07-30T08:41:37+02:00</time>
      </trkpt>
      <trkpt lat="49.31369" lon="-1.59258">
        <ele>31</ele>
        <time>2022-07-30T08:41:37+02:00</time>
      </trkpt>
      <trkpt lat="49.31356" lon="-1.59229">
        <ele>32</ele>
        <time>2022-07-30T08:41:37+02:00</time>
      </trkpt>
      <trkpt lat="49.31342" lon="-1.59194">
        <ele>32</ele>
        <time>2022-07-30T08:41:37+02:00</time>
      </trkpt>
      <trkpt lat="49.31327" lon="-1.59162">
        <ele>32</ele>
        <time>2022-07-30T08:41:37+02:00</time>
      </trkpt>
      <trkpt lat="49.31313" lon="-1.5913">
        <ele>32</ele>
        <time>2022-07-30T08:41:37+02:00</time>
      </trkpt>
      <trkpt lat="49.313" lon="-1.591">
        <ele>32</ele>
        <time>2022-07-30T08:41:37+02:00</time>
      </trkpt>
      <trkpt lat="49.31288" lon="-1.59071">
        <ele>31</ele>
        <time>2022-07-30T08:41:37+02:00</time>
      </trkpt>
      <trkpt lat="49.31276" lon="-1.59034">
        <ele>33</ele>
        <time>2022-07-30T08:41:37+02:00</time>
      </trkpt>
      <trkpt lat="49.31265" lon="-1.59004">
        <ele>34</ele>
        <time>2022-07-30T08:41:37+02:00</time>
      </trkpt>
      <trkpt lat="49.31254" lon="-1.58973">
        <ele>34</ele>
        <time>2022-07-30T08:41:37+02:00</time>
      </trkpt>
      <trkpt lat="49.31241" lon="-1.58938">
        <ele>35</ele>
        <time>2022-07-30T08:41:37+02:00</time>
      </trkpt>
      <trkpt lat="49.31229" lon="-1.58902">
        <ele>35</ele>
        <time>2022-07-30T08:41:37+02:00</time>
      </trkpt>
      <trkpt lat="49.31217" lon="-1.5887">
        <ele>36</ele>
        <time>2022-07-30T08:41:37+02:00</time>
      </trkpt>
      <trkpt lat="49.31203" lon="-1.58834">
        <ele>37</ele>
        <time>2022-07-30T08:41:37+02:00</time>
      </trkpt>
      <trkpt lat="49.31192" lon="-1.58803">
        <ele>38</ele>
        <time>2022-07-30T08:41:37+02:00</time>
      </trkpt>
      <trkpt lat="49.31181" lon="-1.58773">
        <ele>38</ele>
        <time>2022-07-30T08:41:37+02:00</time>
      </trkpt>
      <trkpt lat="49.31168" lon="-1.58738">
        <ele>38</ele>
        <time>2022-07-30T08:41:37+02:00</time>
      </trkpt>
      <trkpt lat="49.31158" lon="-1.58703">
        <ele>39</ele>
        <time>2022-07-30T08:41:37+02:00</time>
      </trkpt>
      <trkpt lat="49.31146" lon="-1.58673">
        <ele>39</ele>
        <time>2022-07-30T08:41:37+02:00</time>
      </trkpt>
      <trkpt lat="49.31132" lon="-1.58638">
        <ele>40</ele>
        <time>2022-07-30T08:41:37+02:00</time>
      </trkpt>
      <trkpt lat="49.31121" lon="-1.58607">
        <ele>40</ele>
        <time>2022-07-30T08:41:37+02:00</time>
      </trkpt>
      <trkpt lat="49.31108" lon="-1.58575">
        <ele>41</ele>
        <time>2022-07-30T08:41:37+02:00</time>
      </trkpt>
      <trkpt lat="49.31095" lon="-1.58539">
        <ele>41</ele>
        <time>2022-07-30T08:41:37+02:00</time>
      </trkpt>
      <trkpt lat="49.31081" lon="-1.58508">
        <ele>41</ele>
        <time>2022-07-30T08:41:37+02:00</time>
      </trkpt>
      <trkpt lat="49.31071" lon="-1.58475">
        <ele>40</ele>
        <time>2022-07-30T08:41:37+02:00</time>
      </trkpt>
      <trkpt lat="49.31058" lon="-1.58439">
        <ele>40</ele>
        <time>2022-07-30T08:41:37+02:00</time>
      </trkpt>
      <trkpt lat="49.31046" lon="-1.58404">
        <ele>40</ele>
        <time>2022-07-30T08:41:37+02:00</time>
      </trkpt>
      <trkpt lat="49.31034" lon="-1.58371">
        <ele>39</ele>
        <time>2022-07-30T08:41:37+02:00</time>
      </trkpt>
      <trkpt lat="49.3102" lon="-1.58335">
        <ele>39</ele>
        <time>2022-07-30T08:41:37+02:00</time>
      </trkpt>
      <trkpt lat="49.31009" lon="-1.58305">
        <ele>38</ele>
        <time>2022-07-30T08:41:37+02:00</time>
      </trkpt>
      <trkpt lat="49.30997" lon="-1.58274">
        <ele>38</ele>
        <time>2022-07-30T08:41:37+02:00</time>
      </trkpt>
      <trkpt lat="49.30986" lon="-1.58241">
        <ele>38</ele>
        <time>2022-07-30T08:41:37+02:00</time>
      </trkpt>
      <trkpt lat="49.30975" lon="-1.58209">
        <ele>36</ele>
        <time>2022-07-30T08:41:37+02:00</time>
      </trkpt>
      <trkpt lat="49.30964" lon="-1.58178">
        <ele>37</ele>
        <time>2022-07-30T08:41:37+02:00</time>
      </trkpt>
      <trkpt lat="49.30951" lon="-1.58147">
        <ele>37</ele>
        <time>2022-07-30T08:41:37+02:00</time>
      </trkpt>
      <trkpt lat="49.30937" lon="-1.58108">
        <ele>36</ele>
        <time>2022-07-30T08:41:37+02:00</time>
      </trkpt>
      <trkpt lat="49.30924" lon="-1.58075">
        <ele>35</ele>
        <time>2022-07-30T08:41:37+02:00</time>
      </trkpt>
      <trkpt lat="49.30913" lon="-1.58043">
        <ele>35</ele>
        <time>2022-07-30T08:41:37+02:00</time>
      </trkpt>
      <trkpt lat="49.30901" lon="-1.5801">
        <ele>34</ele>
        <time>2022-07-30T08:41:37+02:00</time>
      </trkpt>
      <trkpt lat="49.30889" lon="-1.57976">
        <ele>35</ele>
        <time>2022-07-30T08:41:37+02:00</time>
      </trkpt>
      <trkpt lat="49.30877" lon="-1.57945">
        <ele>34</ele>
        <time>2022-07-30T08:41:37+02:00</time>
      </trkpt>
      <trkpt lat="49.30865" lon="-1.57913">
        <ele>34</ele>
        <time>2022-07-30T08:41:37+02:00</time>
      </trkpt>
      <trkpt lat="49.30854" lon="-1.57881">
        <ele>34</ele>
        <time>2022-07-30T08:41:37+02:00</time>
      </trkpt>
      <trkpt lat="49.3084" lon="-1.57849">
        <ele>34</ele>
        <time>2022-07-30T08:41:37+02:00</time>
      </trkpt>
      <trkpt lat="49.30826" lon="-1.57813">
        <ele>34</ele>
        <time>2022-07-30T08:41:37+02:00</time>
      </trkpt>
      <trkpt lat="49.30814" lon="-1.57782">
        <ele>34</ele>
        <time>2022-07-30T08:41:37+02:00</time>
      </trkpt>
      <trkpt lat="49.30799" lon="-1.57749">
        <ele>34</ele>
        <time>2022-07-30T08:41:37+02:00</time>
      </trkpt>
      <trkpt lat="49.30786" lon="-1.57717">
        <ele>34</ele>
        <time>2022-07-30T08:41:37+02:00</time>
      </trkpt>
      <trkpt lat="49.3077" lon="-1.57684">
        <ele>34</ele>
        <time>2022-07-30T08:41:37+02:00</time>
      </trkpt>
      <trkpt lat="49.30756" lon="-1.57655">
        <ele>33</ele>
        <time>2022-07-30T08:41:37+02:00</time>
      </trkpt>
      <trkpt lat="49.30741" lon="-1.57624">
        <ele>33</ele>
        <time>2022-07-30T08:41:37+02:00</time>
      </trkpt>
      <trkpt lat="49.30725" lon="-1.57597">
        <ele>33</ele>
        <time>2022-07-30T08:41:37+02:00</time>
      </trkpt>
      <trkpt lat="49.30709" lon="-1.57569">
        <ele>32</ele>
        <time>2022-07-30T08:41:37+02:00</time>
      </trkpt>
      <trkpt lat="49.30694" lon="-1.57543">
        <ele>30</ele>
        <time>2022-07-30T08:41:37+02:00</time>
      </trkpt>
      <trkpt lat="49.30678" lon="-1.57518">
        <ele>29</ele>
        <time>2022-07-30T08:41:37+02:00</time>
      </trkpt>
      <trkpt lat="49.30661" lon="-1.5749">
        <ele>27</ele>
        <time>2022-07-30T08:41:37+02:00</time>
      </trkpt>
      <trkpt lat="49.30645" lon="-1.57464">
        <ele>26</ele>
        <time>2022-07-30T08:41:37+02:00</time>
      </trkpt>
      <trkpt lat="49.30626" lon="-1.57437">
        <ele>28</ele>
        <time>2022-07-30T08:41:37+02:00</time>
      </trkpt>
      <trkpt lat="49.30611" lon="-1.5741">
        <ele>28</ele>
        <time>2022-07-30T08:41:37+02:00</time>
      </trkpt>
      <trkpt lat="49.30595" lon="-1.57386">
        <ele>28</ele>
        <time>2022-07-30T08:41:37+02:00</time>
      </trkpt>
      <trkpt lat="49.30577" lon="-1.57359">
        <ele>27</ele>
        <time>2022-07-30T08:41:37+02:00</time>
      </trkpt>
      <trkpt lat="49.30559" lon="-1.57328">
        <ele>27</ele>
        <time>2022-07-30T08:41:37+02:00</time>
      </trkpt>
      <trkpt lat="49.3054" lon="-1.57299">
        <ele>26</ele>
        <time>2022-07-30T08:41:37+02:00</time>
      </trkpt>
      <trkpt lat="49.30524" lon="-1.57272">
        <ele>26</ele>
        <time>2022-07-30T08:41:37+02:00</time>
      </trkpt>
      <trkpt lat="49.30505" lon="-1.57242">
        <ele>27</ele>
        <time>2022-07-30T08:41:37+02:00</time>
      </trkpt>
      <trkpt lat="49.30489" lon="-1.57217">
        <ele>26</ele>
        <time>2022-07-30T08:41:37+02:00</time>
      </trkpt>
      <trkpt lat="49.30472" lon="-1.57191">
        <ele>26</ele>
        <time>2022-07-30T08:41:37+02:00</time>
      </trkpt>
      <trkpt lat="49.30456" lon="-1.57164">
        <ele>26</ele>
        <time>2022-07-30T08:41:37+02:00</time>
      </trkpt>
      <trkpt lat="49.3044" lon="-1.57139">
        <ele>25</ele>
        <time>2022-07-30T08:41:37+02:00</time>
      </trkpt>
      <trkpt lat="49.30424" lon="-1.57114">
        <ele>25</ele>
        <time>2022-07-30T08:41:37+02:00</time>
      </trkpt>
      <trkpt lat="49.30406" lon="-1.57086">
        <ele>24</ele>
        <time>2022-07-30T08:41:37+02:00</time>
      </trkpt>
      <trkpt lat="49.30387" lon="-1.57056">
        <ele>24</ele>
        <time>2022-07-30T08:41:37+02:00</time>
      </trkpt>
      <trkpt lat="49.30369" lon="-1.57029">
        <ele>24</ele>
        <time>2022-07-30T08:41:37+02:00</time>
      </trkpt>
      <trkpt lat="49.30352" lon="-1.57002">
        <ele>26</ele>
        <time>2022-07-30T08:41:37+02:00</time>
      </trkpt>
      <trkpt lat="49.30333" lon="-1.56973">
        <ele>25</ele>
        <time>2022-07-30T08:41:37+02:00</time>
      </trkpt>
      <trkpt lat="49.30316" lon="-1.56945">
        <ele>26</ele>
        <time>2022-07-30T08:41:37+02:00</time>
      </trkpt>
      <trkpt lat="49.30298" lon="-1.56918">
        <ele>26</ele>
        <time>2022-07-30T08:41:37+02:00</time>
      </trkpt>
      <trkpt lat="49.30279" lon="-1.5689">
        <ele>26</ele>
        <time>2022-07-30T08:41:37+02:00</time>
      </trkpt>
      <trkpt lat="49.30262" lon="-1.56863">
        <ele>26</ele>
        <time>2022-07-30T08:41:37+02:00</time>
      </trkpt>
      <trkpt lat="49.30247" lon="-1.56837">
        <ele>26</ele>
        <time>2022-07-30T08:41:37+02:00</time>
      </trkpt>
      <trkpt lat="49.30233" lon="-1.56807">
        <ele>26</ele>
        <time>2022-07-30T08:41:37+02:00</time>
      </trkpt>
      <trkpt lat="49.30218" lon="-1.5678">
        <ele>26</ele>
        <time>2022-07-30T08:41:37+02:00</time>
      </trkpt>
      <trkpt lat="49.30203" lon="-1.56752">
        <ele>26</ele>
        <time>2022-07-30T08:41:37+02:00</time>
      </trkpt>
      <trkpt lat="49.30189" lon="-1.56725">
        <ele>26</ele>
        <time>2022-07-30T08:41:37+02:00</time>
      </trkpt>
      <trkpt lat="49.30175" lon="-1.56698">
        <ele>25</ele>
        <time>2022-07-30T08:41:37+02:00</time>
      </trkpt>
      <trkpt lat="49.3016" lon="-1.5667">
        <ele>26</ele>
        <time>2022-07-30T08:41:37+02:00</time>
      </trkpt>
      <trkpt lat="49.30145" lon="-1.56638">
        <ele>25</ele>
        <time>2022-07-30T08:41:37+02:00</time>
      </trkpt>
      <trkpt lat="49.30131" lon="-1.56607">
        <ele>26</ele>
        <time>2022-07-30T08:41:37+02:00</time>
      </trkpt>
      <trkpt lat="49.30117" lon="-1.56575">
        <ele>25</ele>
        <time>2022-07-30T08:41:37+02:00</time>
      </trkpt>
      <trkpt lat="49.30104" lon="-1.56547">
        <ele>25</ele>
        <time>2022-07-30T08:41:37+02:00</time>
      </trkpt>
      <trkpt lat="49.3009" lon="-1.56515">
        <ele>25</ele>
        <time>2022-07-30T08:41:37+02:00</time>
      </trkpt>
      <trkpt lat="49.30078" lon="-1.56483">
        <ele>26</ele>
        <time>2022-07-30T08:41:37+02:00</time>
      </trkpt>
      <trkpt lat="49.30067" lon="-1.56452">
        <ele>26</ele>
        <time>2022-07-30T08:41:37+02:00</time>
      </trkpt>
      <trkpt lat="49.30055" lon="-1.5642">
        <ele>26</ele>
        <time>2022-07-30T08:41:37+02:00</time>
      </trkpt>
      <trkpt lat="49.30043" lon="-1.56389">
        <ele>25</ele>
        <time>2022-07-30T08:41:37+02:00</time>
      </trkpt>
      <trkpt lat="49.30029" lon="-1.56356">
        <ele>25</ele>
        <time>2022-07-30T08:41:37+02:00</time>
      </trkpt>
      <trkpt lat="49.30018" lon="-1.56324">
        <ele>25</ele>
        <time>2022-07-30T08:41:37+02:00</time>
      </trkpt>
      <trkpt lat="49.30008" lon="-1.56291">
        <ele>26</ele>
        <time>2022-07-30T08:41:37+02:00</time>
      </trkpt>
      <trkpt lat="49.29997" lon="-1.5626">
        <ele>26</ele>
        <time>2022-07-30T08:41:37+02:00</time>
      </trkpt>
      <trkpt lat="49.29987" lon="-1.56228">
        <ele>26</ele>
        <time>2022-07-30T08:41:37+02:00</time>
      </trkpt>
      <trkpt lat="49.30008" lon="-1.56214">
        <ele>26</ele>
        <time>2022-07-30T08:41:37+02:00</time>
      </trkpt>
      <trkpt lat="49.3003" lon="-1.56225">
        <ele>26</ele>
        <time>2022-07-30T08:41:37+02:00</time>
      </trkpt>
      <trkpt lat="49.30054" lon="-1.56223">
        <ele>26</ele>
        <time>2022-07-30T08:41:37+02:00</time>
      </trkpt>
      <trkpt lat="49.30076" lon="-1.56209">
        <ele>27</ele>
        <time>2022-07-30T08:41:37+02:00</time>
      </trkpt>
      <trkpt lat="49.30097" lon="-1.56194">
        <ele>29</ele>
        <time>2022-07-30T08:41:37+02:00</time>
      </trkpt>
      <trkpt lat="49.30119" lon="-1.5618">
        <ele>30</ele>
        <time>2022-07-30T08:41:37+02:00</time>
      </trkpt>
      <trkpt lat="49.3014" lon="-1.56165">
        <ele>31</ele>
        <time>2022-07-30T08:41:37+02:00</time>
      </trkpt>
      <trkpt lat="49.30145" lon="-1.56129">
        <ele>33</ele>
        <time>2022-07-30T08:41:37+02:00</time>
      </trkpt>
      <trkpt lat="49.30142" lon="-1.56094">
        <ele>34</ele>
        <time>2022-07-30T08:41:37+02:00</time>
      </trkpt>
      <trkpt lat="49.30142" lon="-1.56059">
        <ele>33</ele>
        <time>2022-07-30T08:41:37+02:00</time>
      </trkpt>
      <trkpt lat="49.30151" lon="-1.56024">
        <ele>33</ele>
        <time>2022-07-30T08:41:37+02:00</time>
      </trkpt>
      <trkpt lat="49.30159" lon="-1.55986">
        <ele>33</ele>
        <time>2022-07-30T08:41:37+02:00</time>
      </trkpt>
      <trkpt lat="49.30163" lon="-1.55946">
        <ele>33</ele>
        <time>2022-07-30T08:41:37+02:00</time>
      </trkpt>
      <trkpt lat="49.30163" lon="-1.5591">
        <ele>33</ele>
        <time>2022-07-30T08:41:37+02:00</time>
      </trkpt>
      <trkpt lat="49.30162" lon="-1.55873">
        <ele>34</ele>
        <time>2022-07-30T08:41:37+02:00</time>
      </trkpt>
      <trkpt lat="49.30162" lon="-1.55837">
        <ele>36</ele>
        <time>2022-07-30T08:41:37+02:00</time>
      </trkpt>
      <trkpt lat="49.3016" lon="-1.55801">
        <ele>38</ele>
        <time>2022-07-30T08:41:37+02:00</time>
      </trkpt>
      <trkpt lat="49.30156" lon="-1.55763">
        <ele>37</ele>
        <time>2022-07-30T08:41:37+02:00</time>
      </trkpt>
      <trkpt lat="49.30153" lon="-1.55727">
        <ele>37</ele>
        <time>2022-07-30T08:41:37+02:00</time>
      </trkpt>
      <trkpt lat="49.30145" lon="-1.55686">
        <ele>36</ele>
        <time>2022-07-30T08:41:37+02:00</time>
      </trkpt>
      <trkpt lat="49.30138" lon="-1.55651">
        <ele>36</ele>
        <time>2022-07-30T08:41:37+02:00</time>
      </trkpt>
      <trkpt lat="49.30127" lon="-1.55612">
        <ele>36</ele>
        <time>2022-07-30T08:41:37+02:00</time>
      </trkpt>
      <trkpt lat="49.30118" lon="-1.55579">
        <ele>36</ele>
        <time>2022-07-30T08:41:37+02:00</time>
      </trkpt>
      <trkpt lat="49.30111" lon="-1.55537">
        <ele>35</ele>
        <time>2022-07-30T08:41:37+02:00</time>
      </trkpt>
      <trkpt lat="49.30099" lon="-1.55497">
        <ele>33</ele>
        <time>2022-07-30T08:41:37+02:00</time>
      </trkpt>
      <trkpt lat="49.30095" lon="-1.55463">
        <ele>33</ele>
        <time>2022-07-30T08:41:37+02:00</time>
      </trkpt>
      <trkpt lat="49.30092" lon="-1.5542">
        <ele>33</ele>
        <time>2022-07-30T08:41:37+02:00</time>
      </trkpt>
      <trkpt lat="49.30088" lon="-1.55377">
        <ele>33</ele>
        <time>2022-07-30T08:41:37+02:00</time>
      </trkpt>
      <trkpt lat="49.30088" lon="-1.55332">
        <ele>32</ele>
        <time>2022-07-30T08:41:37+02:00</time>
      </trkpt>
      <trkpt lat="49.30086" lon="-1.55293">
        <ele>33</ele>
        <time>2022-07-30T08:41:37+02:00</time>
      </trkpt>
      <trkpt lat="49.30086" lon="-1.55255">
        <ele>32</ele>
        <time>2022-07-30T08:41:37+02:00</time>
      </trkpt>
      <trkpt lat="49.30087" lon="-1.55219">
        <ele>31</ele>
        <time>2022-07-30T08:41:37+02:00</time>
      </trkpt>
      <trkpt lat="49.30087" lon="-1.55178">
        <ele>32</ele>
        <time>2022-07-30T08:41:37+02:00</time>
      </trkpt>
      <trkpt lat="49.30088" lon="-1.55137">
        <ele>33</ele>
        <time>2022-07-30T08:41:37+02:00</time>
      </trkpt>
      <trkpt lat="49.30088" lon="-1.551">
        <ele>32</ele>
        <time>2022-07-30T08:41:37+02:00</time>
      </trkpt>
      <trkpt lat="49.30089" lon="-1.55062">
        <ele>33</ele>
        <time>2022-07-30T08:41:37+02:00</time>
      </trkpt>
      <trkpt lat="49.3009" lon="-1.55027">
        <ele>32</ele>
        <time>2022-07-30T08:41:37+02:00</time>
      </trkpt>
      <trkpt lat="49.3009" lon="-1.54991">
        <ele>33</ele>
        <time>2022-07-30T08:41:37+02:00</time>
      </trkpt>
      <trkpt lat="49.3009" lon="-1.54956">
        <ele>33</ele>
        <time>2022-07-30T08:41:37+02:00</time>
      </trkpt>
      <trkpt lat="49.30089" lon="-1.54918">
        <ele>33</ele>
        <time>2022-07-30T08:41:37+02:00</time>
      </trkpt>
      <trkpt lat="49.30065" lon="-1.54905">
        <ele>32</ele>
        <time>2022-07-30T08:41:37+02:00</time>
      </trkpt>
      <trkpt lat="49.30041" lon="-1.54912">
        <ele>31</ele>
        <time>2022-07-30T08:41:37+02:00</time>
      </trkpt>
      <trkpt lat="49.30019" lon="-1.54904">
        <ele>32</ele>
        <time>2022-07-30T08:41:37+02:00</time>
      </trkpt>
      <trkpt lat="49.29995" lon="-1.54884">
        <ele>31</ele>
        <time>2022-07-30T08:41:37+02:00</time>
      </trkpt>
      <trkpt lat="49.2997" lon="-1.54866">
        <ele>31</ele>
        <time>2022-07-30T08:41:37+02:00</time>
      </trkpt>
      <trkpt lat="49.29947" lon="-1.54853">
        <ele>32</ele>
        <time>2022-07-30T08:41:37+02:00</time>
      </trkpt>
      <trkpt lat="49.29925" lon="-1.54842">
        <ele>32</ele>
        <time>2022-07-30T08:41:37+02:00</time>
      </trkpt>
      <trkpt lat="49.29901" lon="-1.5483">
        <ele>33</ele>
        <time>2022-07-30T08:41:37+02:00</time>
      </trkpt>
      <trkpt lat="49.29879" lon="-1.5481">
        <ele>32</ele>
        <time>2022-07-30T08:41:37+02:00</time>
      </trkpt>
      <trkpt lat="49.29857" lon="-1.54825">
        <ele>31</ele>
        <time>2022-07-30T08:41:37+02:00</time>
      </trkpt>
      <trkpt lat="49.2984" lon="-1.54855">
        <ele>30</ele>
        <time>2022-07-30T08:41:37+02:00</time>
      </trkpt>
      <trkpt lat="49.29823" lon="-1.5489">
        <ele>30</ele>
        <time>2022-07-30T08:41:37+02:00</time>
      </trkpt>
      <trkpt lat="49.29808" lon="-1.54921">
        <ele>30</ele>
        <time>2022-07-30T08:41:37+02:00</time>
      </trkpt>
      <trkpt lat="49.29797" lon="-1.54957">
        <ele>31</ele>
        <time>2022-07-30T08:41:37+02:00</time>
      </trkpt>
      <trkpt lat="49.29788" lon="-1.54991">
        <ele>31</ele>
        <time>2022-07-30T08:41:37+02:00</time>
      </trkpt>
      <trkpt lat="49.29772" lon="-1.55014">
        <ele>31</ele>
        <time>2022-07-30T08:41:37+02:00</time>
      </trkpt>
      <trkpt lat="49.29752" lon="-1.55033">
        <ele>32</ele>
        <time>2022-07-30T08:41:37+02:00</time>
      </trkpt>
      <trkpt lat="49.29729" lon="-1.55054">
        <ele>32</ele>
        <time>2022-07-30T08:41:37+02:00</time>
      </trkpt>
      <trkpt lat="49.29707" lon="-1.55075">
        <ele>32</ele>
        <time>2022-07-30T08:41:37+02:00</time>
      </trkpt>
      <trkpt lat="49.29685" lon="-1.55096">
        <ele>33</ele>
        <time>2022-07-30T08:41:37+02:00</time>
      </trkpt>
      <trkpt lat="49.29679" lon="-1.55133">
        <ele>34</ele>
        <time>2022-07-30T08:41:37+02:00</time>
      </trkpt>
      <trkpt lat="49.29689" lon="-1.5517">
        <ele>33</ele>
        <time>2022-07-30T08:41:37+02:00</time>
      </trkpt>
      <trkpt lat="49.29697" lon="-1.55207">
        <ele>33</ele>
        <time>2022-07-30T08:41:37+02:00</time>
      </trkpt>
      <trkpt lat="49.29701" lon="-1.55244">
        <ele>34</ele>
        <time>2022-07-30T08:41:37+02:00</time>
      </trkpt>
      <trkpt lat="49.29683" lon="-1.55269">
        <ele>34</ele>
        <time>2022-07-30T08:41:37+02:00</time>
      </trkpt>
      <trkpt lat="49.29667" lon="-1.5524">
        <ele>35</ele>
        <time>2022-07-30T08:41:37+02:00</time>
      </trkpt>
      <trkpt lat="49.29652" lon="-1.5521">
        <ele>34</ele>
        <time>2022-07-30T08:41:37+02:00</time>
      </trkpt>
      <trkpt lat="49.29634" lon="-1.55181">
        <ele>35</ele>
        <time>2022-07-30T08:41:37+02:00</time>
      </trkpt>
      <trkpt lat="49.29609" lon="-1.55165">
        <ele>34</ele>
        <time>2022-07-30T08:41:37+02:00</time>
      </trkpt>
      <trkpt lat="49.2959" lon="-1.55139">
        <ele>35</ele>
        <time>2022-07-30T08:41:37+02:00</time>
      </trkpt>
      <trkpt lat="49.2958" lon="-1.55103">
        <ele>35</ele>
        <time>2022-07-30T08:41:37+02:00</time>
      </trkpt>
      <trkpt lat="49.2957" lon="-1.55071">
        <ele>36</ele>
        <time>2022-07-30T08:41:37+02:00</time>
      </trkpt>
      <trkpt lat="49.2956" lon="-1.55039">
        <ele>36</ele>
        <time>2022-07-30T08:41:37+02:00</time>
      </trkpt>
      <trkpt lat="49.29551" lon="-1.55007">
        <ele>35</ele>
        <time>2022-07-30T08:41:37+02:00</time>
      </trkpt>
      <trkpt lat="49.29557" lon="-1.54969">
        <ele>36</ele>
        <time>2022-07-30T08:41:37+02:00</time>
      </trkpt>
      <trkpt lat="49.29558" lon="-1.54934">
        <ele>36</ele>
        <time>2022-07-30T08:41:37+02:00</time>
      </trkpt>
      <trkpt lat="49.2955" lon="-1.54895">
        <ele>36</ele>
        <time>2022-07-30T08:41:37+02:00</time>
      </trkpt>
      <trkpt lat="49.29546" lon="-1.54857">
        <ele>36</ele>
        <time>2022-07-30T08:41:37+02:00</time>
      </trkpt>
      <trkpt lat="49.29543" lon="-1.54819">
        <ele>36</ele>
        <time>2022-07-30T08:41:37+02:00</time>
      </trkpt>
      <trkpt lat="49.29541" lon="-1.54783">
        <ele>35</ele>
        <time>2022-07-30T08:41:37+02:00</time>
      </trkpt>
      <trkpt lat="49.29538" lon="-1.54746">
        <ele>35</ele>
        <time>2022-07-30T08:41:37+02:00</time>
      </trkpt>
      <trkpt lat="49.29535" lon="-1.54709">
        <ele>35</ele>
        <time>2022-07-30T08:41:37+02:00</time>
      </trkpt>
      <trkpt lat="49.29533" lon="-1.54669">
        <ele>35</ele>
        <time>2022-07-30T08:41:37+02:00</time>
      </trkpt>
      <trkpt lat="49.2953" lon="-1.54633">
        <ele>35</ele>
        <time>2022-07-30T08:41:37+02:00</time>
      </trkpt>
      <trkpt lat="49.29527" lon="-1.54597">
        <ele>34</ele>
        <time>2022-07-30T08:41:37+02:00</time>
      </trkpt>
      <trkpt lat="49.29526" lon="-1.54562">
        <ele>34</ele>
        <time>2022-07-30T08:41:37+02:00</time>
      </trkpt>
      <trkpt lat="49.29524" lon="-1.54522">
        <ele>34</ele>
        <time>2022-07-30T08:41:37+02:00</time>
      </trkpt>
      <trkpt lat="49.2952" lon="-1.54482">
        <ele>34</ele>
        <time>2022-07-30T08:41:37+02:00</time>
      </trkpt>
      <trkpt lat="49.29516" lon="-1.54446">
        <ele>34</ele>
        <time>2022-07-30T08:41:37+02:00</time>
      </trkpt>
      <trkpt lat="49.29512" lon="-1.54408">
        <ele>35</ele>
        <time>2022-07-30T08:41:37+02:00</time>
      </trkpt>
      <trkpt lat="49.29507" lon="-1.54372">
        <ele>35</ele>
        <time>2022-07-30T08:41:37+02:00</time>
      </trkpt>
      <trkpt lat="49.29506" lon="-1.54335">
        <ele>36</ele>
        <time>2022-07-30T08:41:37+02:00</time>
      </trkpt>
      <trkpt lat="49.29503" lon="-1.543">
        <ele>36</ele>
        <time>2022-07-30T08:41:37+02:00</time>
      </trkpt>
      <trkpt lat="49.29501" lon="-1.54264">
        <ele>37</ele>
        <time>2022-07-30T08:41:37+02:00</time>
      </trkpt>
      <trkpt lat="49.29498" lon="-1.5423">
        <ele>36</ele>
        <time>2022-07-30T08:41:37+02:00</time>
      </trkpt>
      <trkpt lat="49.29497" lon="-1.54195">
        <ele>36</ele>
        <time>2022-07-30T08:41:37+02:00</time>
      </trkpt>
      <trkpt lat="49.29496" lon="-1.54157">
        <ele>36</ele>
        <time>2022-07-30T08:41:37+02:00</time>
      </trkpt>
      <trkpt lat="49.29496" lon="-1.54122">
        <ele>37</ele>
        <time>2022-07-30T08:41:37+02:00</time>
      </trkpt>
      <trkpt lat="49.29496" lon="-1.54084">
        <ele>38</ele>
        <time>2022-07-30T08:41:37+02:00</time>
      </trkpt>
      <trkpt lat="49.29497" lon="-1.54045">
        <ele>38</ele>
        <time>2022-07-30T08:41:37+02:00</time>
      </trkpt>
      <trkpt lat="49.29498" lon="-1.5401">
        <ele>37</ele>
        <time>2022-07-30T08:41:37+02:00</time>
      </trkpt>
      <trkpt lat="49.29497" lon="-1.53969">
        <ele>37</ele>
        <time>2022-07-30T08:41:37+02:00</time>
      </trkpt>
      <trkpt lat="49.29495" lon="-1.53932">
        <ele>36</ele>
        <time>2022-07-30T08:41:37+02:00</time>
      </trkpt>
      <trkpt lat="49.29494" lon="-1.53891">
        <ele>36</ele>
        <time>2022-07-30T08:41:37+02:00</time>
      </trkpt>
      <trkpt lat="49.29493" lon="-1.53851">
        <ele>36</ele>
        <time>2022-07-30T08:41:37+02:00</time>
      </trkpt>
      <trkpt lat="49.29489" lon="-1.53812">
        <ele>36</ele>
        <time>2022-07-30T08:41:37+02:00</time>
      </trkpt>
      <trkpt lat="49.29487" lon="-1.53772">
        <ele>35</ele>
        <time>2022-07-30T08:41:37+02:00</time>
      </trkpt>
      <trkpt lat="49.29486" lon="-1.53736">
        <ele>37</ele>
        <time>2022-07-30T08:41:37+02:00</time>
      </trkpt>
      <trkpt lat="49.29481" lon="-1.53696">
        <ele>37</ele>
        <time>2022-07-30T08:41:37+02:00</time>
      </trkpt>
      <trkpt lat="49.2948" lon="-1.53656">
        <ele>37</ele>
        <time>2022-07-30T08:41:37+02:00</time>
      </trkpt>
      <trkpt lat="49.29476" lon="-1.53618">
        <ele>36</ele>
        <time>2022-07-30T08:41:37+02:00</time>
      </trkpt>
      <trkpt lat="49.29476" lon="-1.53578">
        <ele>37</ele>
        <time>2022-07-30T08:41:37+02:00</time>
      </trkpt>
      <trkpt lat="49.29472" lon="-1.53537">
        <ele>38</ele>
        <time>2022-07-30T08:41:37+02:00</time>
      </trkpt>
      <trkpt lat="49.29468" lon="-1.53501">
        <ele>39</ele>
        <time>2022-07-30T08:41:37+02:00</time>
      </trkpt>
      <trkpt lat="49.29465" lon="-1.53466">
        <ele>39</ele>
        <time>2022-07-30T08:41:37+02:00</time>
      </trkpt>
      <trkpt lat="49.29463" lon="-1.53432">
        <ele>39</ele>
        <time>2022-07-30T08:41:37+02:00</time>
      </trkpt>
      <trkpt lat="49.2946" lon="-1.53391">
        <ele>40</ele>
        <time>2022-07-30T08:41:37+02:00</time>
      </trkpt>
      <trkpt lat="49.29458" lon="-1.53355">
        <ele>40</ele>
        <time>2022-07-30T08:41:37+02:00</time>
      </trkpt>
      <trkpt lat="49.29455" lon="-1.5332">
        <ele>40</ele>
        <time>2022-07-30T08:41:37+02:00</time>
      </trkpt>
      <trkpt lat="49.29453" lon="-1.53285">
        <ele>40</ele>
        <time>2022-07-30T08:41:37+02:00</time>
      </trkpt>
      <trkpt lat="49.29451" lon="-1.5325">
        <ele>40</ele>
        <time>2022-07-30T08:41:37+02:00</time>
      </trkpt>
      <trkpt lat="49.2945" lon="-1.53214">
        <ele>41</ele>
        <time>2022-07-30T08:41:37+02:00</time>
      </trkpt>
      <trkpt lat="49.29449" lon="-1.53177">
        <ele>41</ele>
        <time>2022-07-30T08:41:37+02:00</time>
      </trkpt>
      <trkpt lat="49.29446" lon="-1.53142">
        <ele>40</ele>
        <time>2022-07-30T08:41:37+02:00</time>
      </trkpt>
      <trkpt lat="49.29445" lon="-1.53105">
        <ele>40</ele>
        <time>2022-07-30T08:41:37+02:00</time>
      </trkpt>
      <trkpt lat="49.29443" lon="-1.53067">
        <ele>40</ele>
        <time>2022-07-30T08:41:37+02:00</time>
      </trkpt>
      <trkpt lat="49.29439" lon="-1.53033">
        <ele>40</ele>
        <time>2022-07-30T08:41:37+02:00</time>
      </trkpt>
      <trkpt lat="49.29435" lon="-1.52994">
        <ele>41</ele>
        <time>2022-07-30T08:41:37+02:00</time>
      </trkpt>
      <trkpt lat="49.29431" lon="-1.52955">
        <ele>41</ele>
        <time>2022-07-30T08:41:37+02:00</time>
      </trkpt>
      <trkpt lat="49.29428" lon="-1.52918">
        <ele>41</ele>
        <time>2022-07-30T08:41:37+02:00</time>
      </trkpt>
      <trkpt lat="49.29427" lon="-1.52879">
        <ele>40</ele>
        <time>2022-07-30T08:41:37+02:00</time>
      </trkpt>
      <trkpt lat="49.29424" lon="-1.52842">
        <ele>39</ele>
        <time>2022-07-30T08:41:37+02:00</time>
      </trkpt>
      <trkpt lat="49.29421" lon="-1.52806">
        <ele>39</ele>
        <time>2022-07-30T08:41:37+02:00</time>
      </trkpt>
      <trkpt lat="49.29417" lon="-1.52768">
        <ele>41</ele>
        <time>2022-07-30T08:41:37+02:00</time>
      </trkpt>
      <trkpt lat="49.29416" lon="-1.52732">
        <ele>40</ele>
        <time>2022-07-30T08:41:37+02:00</time>
      </trkpt>
      <trkpt lat="49.29412" lon="-1.52696">
        <ele>40</ele>
        <time>2022-07-30T08:41:37+02:00</time>
      </trkpt>
      <trkpt lat="49.2941" lon="-1.52659">
        <ele>39</ele>
        <time>2022-07-30T08:41:37+02:00</time>
      </trkpt>
      <trkpt lat="49.29407" lon="-1.52621">
        <ele>40</ele>
        <time>2022-07-30T08:41:37+02:00</time>
      </trkpt>
      <trkpt lat="49.29405" lon="-1.52583">
        <ele>41</ele>
        <time>2022-07-30T08:41:37+02:00</time>
      </trkpt>
      <trkpt lat="49.29403" lon="-1.52544">
        <ele>40</ele>
        <time>2022-07-30T08:41:37+02:00</time>
      </trkpt>
      <trkpt lat="49.294" lon="-1.52505">
        <ele>40</ele>
        <time>2022-07-30T08:41:37+02:00</time>
      </trkpt>
      <trkpt lat="49.29397" lon="-1.52468">
        <ele>40</ele>
        <time>2022-07-30T08:41:37+02:00</time>
      </trkpt>
      <trkpt lat="49.29397" lon="-1.52426">
        <ele>40</ele>
        <time>2022-07-30T08:41:37+02:00</time>
      </trkpt>
      <trkpt lat="49.29396" lon="-1.52388">
        <ele>40</ele>
        <time>2022-07-30T08:41:37+02:00</time>
      </trkpt>
      <trkpt lat="49.29393" lon="-1.52351">
        <ele>41</ele>
        <time>2022-07-30T08:41:37+02:00</time>
      </trkpt>
      <trkpt lat="49.29389" lon="-1.52312">
        <ele>42</ele>
        <time>2022-07-30T08:41:37+02:00</time>
      </trkpt>
      <trkpt lat="49.29386" lon="-1.52276">
        <ele>42</ele>
        <time>2022-07-30T08:41:37+02:00</time>
      </trkpt>
      <trkpt lat="49.29384" lon="-1.52242">
        <ele>41</ele>
        <time>2022-07-30T08:41:37+02:00</time>
      </trkpt>
      <trkpt lat="49.29381" lon="-1.52206">
        <ele>42</ele>
        <time>2022-07-30T08:41:37+02:00</time>
      </trkpt>
      <trkpt lat="49.2938" lon="-1.52171">
        <ele>42</ele>
        <time>2022-07-30T08:41:37+02:00</time>
      </trkpt>
      <trkpt lat="49.29377" lon="-1.52134">
        <ele>42</ele>
        <time>2022-07-30T08:41:37+02:00</time>
      </trkpt>
      <trkpt lat="49.29375" lon="-1.52098">
        <ele>42</ele>
        <time>2022-07-30T08:41:37+02:00</time>
      </trkpt>
      <trkpt lat="49.29371" lon="-1.52058">
        <ele>41</ele>
        <time>2022-07-30T08:41:37+02:00</time>
      </trkpt>
      <trkpt lat="49.29368" lon="-1.5202">
        <ele>41</ele>
        <time>2022-07-30T08:41:37+02:00</time>
      </trkpt>
      <trkpt lat="49.29366" lon="-1.51982">
        <ele>43</ele>
        <time>2022-07-30T08:41:37+02:00</time>
      </trkpt>
      <trkpt lat="49.29362" lon="-1.51946">
        <ele>44</ele>
        <time>2022-07-30T08:41:37+02:00</time>
      </trkpt>
      <trkpt lat="49.29358" lon="-1.51909">
        <ele>44</ele>
        <time>2022-07-30T08:41:37+02:00</time>
      </trkpt>
      <trkpt lat="49.29356" lon="-1.51874">
        <ele>45</ele>
        <time>2022-07-30T08:41:37+02:00</time>
      </trkpt>
      <trkpt lat="49.29354" lon="-1.51839">
        <ele>45</ele>
        <time>2022-07-30T08:41:37+02:00</time>
      </trkpt>
      <trkpt lat="49.29353" lon="-1.51798">
        <ele>43</ele>
        <time>2022-07-30T08:41:37+02:00</time>
      </trkpt>
      <trkpt lat="49.29351" lon="-1.51759">
        <ele>44</ele>
        <time>2022-07-30T08:41:37+02:00</time>
      </trkpt>
      <trkpt lat="49.29348" lon="-1.51717">
        <ele>44</ele>
        <time>2022-07-30T08:41:37+02:00</time>
      </trkpt>
      <trkpt lat="49.29345" lon="-1.51681">
        <ele>45</ele>
        <time>2022-07-30T08:41:37+02:00</time>
      </trkpt>
      <trkpt lat="49.29342" lon="-1.51645">
        <ele>44</ele>
        <time>2022-07-30T08:41:37+02:00</time>
      </trkpt>
      <trkpt lat="49.29342" lon="-1.51606">
        <ele>44</ele>
        <time>2022-07-30T08:41:37+02:00</time>
      </trkpt>
      <trkpt lat="49.29337" lon="-1.5157">
        <ele>44</ele>
        <time>2022-07-30T08:41:37+02:00</time>
      </trkpt>
      <trkpt lat="49.29334" lon="-1.51533">
        <ele>43</ele>
        <time>2022-07-30T08:41:37+02:00</time>
      </trkpt>
      <trkpt lat="49.2933" lon="-1.51495">
        <ele>43</ele>
        <time>2022-07-30T08:41:37+02:00</time>
      </trkpt>
      <trkpt lat="49.29334" lon="-1.5146">
        <ele>43</ele>
        <time>2022-07-30T08:41:37+02:00</time>
      </trkpt>
      <trkpt lat="49.29339" lon="-1.51422">
        <ele>43</ele>
        <time>2022-07-30T08:41:37+02:00</time>
      </trkpt>
      <trkpt lat="49.2934" lon="-1.51387">
        <ele>43</ele>
        <time>2022-07-30T08:41:37+02:00</time>
      </trkpt>
      <trkpt lat="49.29324" lon="-1.51361">
        <ele>42</ele>
        <time>2022-07-30T08:41:37+02:00</time>
      </trkpt>
      <trkpt lat="49.29319" lon="-1.51323">
        <ele>44</ele>
        <time>2022-07-30T08:41:37+02:00</time>
      </trkpt>
      <trkpt lat="49.29318" lon="-1.51286">
        <ele>45</ele>
        <time>2022-07-30T08:41:37+02:00</time>
      </trkpt>
      <trkpt lat="49.29317" lon="-1.51251">
        <ele>45</ele>
        <time>2022-07-30T08:41:37+02:00</time>
      </trkpt>
      <trkpt lat="49.29314" lon="-1.5121">
        <ele>46</ele>
        <time>2022-07-30T08:41:37+02:00</time>
      </trkpt>
      <trkpt lat="49.2931" lon="-1.51171">
        <ele>45</ele>
        <time>2022-07-30T08:41:37+02:00</time>
      </trkpt>
      <trkpt lat="49.29309" lon="-1.51133">
        <ele>45</ele>
        <time>2022-07-30T08:41:37+02:00</time>
      </trkpt>
      <trkpt lat="49.29306" lon="-1.51093">
        <ele>45</ele>
        <time>2022-07-30T08:41:37+02:00</time>
      </trkpt>
      <trkpt lat="49.29303" lon="-1.51054">
        <ele>46</ele>
        <time>2022-07-30T08:41:37+02:00</time>
      </trkpt>
      <trkpt lat="49.29301" lon="-1.51017">
        <ele>46</ele>
        <time>2022-07-30T08:41:37+02:00</time>
      </trkpt>
      <trkpt lat="49.29297" lon="-1.50976">
        <ele>46</ele>
        <time>2022-07-30T08:41:37+02:00</time>
      </trkpt>
      <trkpt lat="49.29294" lon="-1.50938">
        <ele>47</ele>
        <time>2022-07-30T08:41:37+02:00</time>
      </trkpt>
      <trkpt lat="49.2929" lon="-1.50902">
        <ele>47</ele>
        <time>2022-07-30T08:41:37+02:00</time>
      </trkpt>
      <trkpt lat="49.29289" lon="-1.50866">
        <ele>47</ele>
        <time>2022-07-30T08:41:37+02:00</time>
      </trkpt>
      <trkpt lat="49.29286" lon="-1.50831">
        <ele>47</ele>
        <time>2022-07-30T08:41:37+02:00</time>
      </trkpt>
      <trkpt lat="49.29284" lon="-1.50791">
        <ele>49</ele>
        <time>2022-07-30T08:41:37+02:00</time>
      </trkpt>
      <trkpt lat="49.29282" lon="-1.50756">
        <ele>48</ele>
        <time>2022-07-30T08:41:37+02:00</time>
      </trkpt>
      <trkpt lat="49.2928" lon="-1.50722">
        <ele>48</ele>
        <time>2022-07-30T08:41:37+02:00</time>
      </trkpt>
      <trkpt lat="49.29276" lon="-1.50686">
        <ele>48</ele>
        <time>2022-07-30T08:41:37+02:00</time>
      </trkpt>
      <trkpt lat="49.29273" lon="-1.50649">
        <ele>46</ele>
        <time>2022-07-30T08:41:37+02:00</time>
      </trkpt>
      <trkpt lat="49.2927" lon="-1.50615">
        <ele>47</ele>
        <time>2022-07-30T08:41:37+02:00</time>
      </trkpt>
      <trkpt lat="49.29267" lon="-1.50579">
        <ele>48</ele>
        <time>2022-07-30T08:41:37+02:00</time>
      </trkpt>
      <trkpt lat="49.29266" lon="-1.50541">
        <ele>47</ele>
        <time>2022-07-30T08:41:37+02:00</time>
      </trkpt>
      <trkpt lat="49.29264" lon="-1.50506">
        <ele>48</ele>
        <time>2022-07-30T08:41:37+02:00</time>
      </trkpt>
      <trkpt lat="49.29262" lon="-1.50468">
        <ele>49</ele>
        <time>2022-07-30T08:41:37+02:00</time>
      </trkpt>
      <trkpt lat="49.29265" lon="-1.5043">
        <ele>45</ele>
        <time>2022-07-30T08:41:37+02:00</time>
      </trkpt>
      <trkpt lat="49.29265" lon="-1.50395">
        <ele>44</ele>
        <time>2022-07-30T08:41:37+02:00</time>
      </trkpt>
      <trkpt lat="49.29266" lon="-1.50356">
        <ele>43</ele>
        <time>2022-07-30T08:41:37+02:00</time>
      </trkpt>
      <trkpt lat="49.29268" lon="-1.50317">
        <ele>44</ele>
        <time>2022-07-30T08:41:37+02:00</time>
      </trkpt>
      <trkpt lat="49.2927" lon="-1.5028">
        <ele>45</ele>
        <time>2022-07-30T08:41:37+02:00</time>
      </trkpt>
      <trkpt lat="49.29273" lon="-1.50244">
        <ele>43</ele>
        <time>2022-07-30T08:41:37+02:00</time>
      </trkpt>
      <trkpt lat="49.29276" lon="-1.50207">
        <ele>43</ele>
        <time>2022-07-30T08:41:37+02:00</time>
      </trkpt>
      <trkpt lat="49.29282" lon="-1.50173">
        <ele>42</ele>
        <time>2022-07-30T08:41:37+02:00</time>
      </trkpt>
      <trkpt lat="49.29287" lon="-1.50133">
        <ele>43</ele>
        <time>2022-07-30T08:41:37+02:00</time>
      </trkpt>
      <trkpt lat="49.29291" lon="-1.50093">
        <ele>43</ele>
        <time>2022-07-30T08:41:37+02:00</time>
      </trkpt>
      <trkpt lat="49.29298" lon="-1.50058">
        <ele>42</ele>
        <time>2022-07-30T08:41:37+02:00</time>
      </trkpt>
      <trkpt lat="49.29305" lon="-1.50018">
        <ele>41</ele>
        <time>2022-07-30T08:41:37+02:00</time>
      </trkpt>
      <trkpt lat="49.29311" lon="-1.49978">
        <ele>40</ele>
        <time>2022-07-30T08:41:37+02:00</time>
      </trkpt>
      <trkpt lat="49.29317" lon="-1.49938">
        <ele>41</ele>
        <time>2022-07-30T08:41:37+02:00</time>
      </trkpt>
      <trkpt lat="49.29324" lon="-1.49902">
        <ele>41</ele>
        <time>2022-07-30T08:41:37+02:00</time>
      </trkpt>
      <trkpt lat="49.29329" lon="-1.49865">
        <ele>41</ele>
        <time>2022-07-30T08:41:37+02:00</time>
      </trkpt>
      <trkpt lat="49.29336" lon="-1.49825">
        <ele>41</ele>
        <time>2022-07-30T08:41:37+02:00</time>
      </trkpt>
      <trkpt lat="49.29342" lon="-1.49787">
        <ele>41</ele>
        <time>2022-07-30T08:41:37+02:00</time>
      </trkpt>
      <trkpt lat="49.2935" lon="-1.49749">
        <ele>41</ele>
        <time>2022-07-30T08:41:37+02:00</time>
      </trkpt>
      <trkpt lat="49.29356" lon="-1.49709">
        <ele>41</ele>
        <time>2022-07-30T08:41:37+02:00</time>
      </trkpt>
      <trkpt lat="49.29362" lon="-1.49672">
        <ele>41</ele>
        <time>2022-07-30T08:41:37+02:00</time>
      </trkpt>
      <trkpt lat="49.29368" lon="-1.49637">
        <ele>40</ele>
        <time>2022-07-30T08:41:37+02:00</time>
      </trkpt>
      <trkpt lat="49.29372" lon="-1.496">
        <ele>40</ele>
        <time>2022-07-30T08:41:37+02:00</time>
      </trkpt>
      <trkpt lat="49.29379" lon="-1.49564">
        <ele>40</ele>
        <time>2022-07-30T08:41:37+02:00</time>
      </trkpt>
      <trkpt lat="49.29385" lon="-1.49529">
        <ele>42</ele>
        <time>2022-07-30T08:41:37+02:00</time>
      </trkpt>
      <trkpt lat="49.29388" lon="-1.49489">
        <ele>40</ele>
        <time>2022-07-30T08:41:37+02:00</time>
      </trkpt>
      <trkpt lat="49.29393" lon="-1.49456">
        <ele>41</ele>
        <time>2022-07-30T08:41:37+02:00</time>
      </trkpt>
      <trkpt lat="49.29398" lon="-1.49419">
        <ele>42</ele>
        <time>2022-07-30T08:41:37+02:00</time>
      </trkpt>
      <trkpt lat="49.29405" lon="-1.4938">
        <ele>43</ele>
        <time>2022-07-30T08:41:37+02:00</time>
      </trkpt>
      <trkpt lat="49.29412" lon="-1.49346">
        <ele>42</ele>
        <time>2022-07-30T08:41:37+02:00</time>
      </trkpt>
      <trkpt lat="49.29419" lon="-1.49313">
        <ele>43</ele>
        <time>2022-07-30T08:41:37+02:00</time>
      </trkpt>
      <trkpt lat="49.29423" lon="-1.49276">
        <ele>43</ele>
        <time>2022-07-30T08:41:37+02:00</time>
      </trkpt>
      <trkpt lat="49.2943" lon="-1.49236">
        <ele>43</ele>
        <time>2022-07-30T08:41:37+02:00</time>
      </trkpt>
      <trkpt lat="49.29437" lon="-1.49201">
        <ele>42</ele>
        <time>2022-07-30T08:41:37+02:00</time>
      </trkpt>
      <trkpt lat="49.29442" lon="-1.49165">
        <ele>44</ele>
        <time>2022-07-30T08:41:37+02:00</time>
      </trkpt>
      <trkpt lat="49.29448" lon="-1.49127">
        <ele>44</ele>
        <time>2022-07-30T08:41:37+02:00</time>
      </trkpt>
      <trkpt lat="49.29454" lon="-1.49091">
        <ele>43</ele>
        <time>2022-07-30T08:41:37+02:00</time>
      </trkpt>
      <trkpt lat="49.29461" lon="-1.49053">
        <ele>42</ele>
        <time>2022-07-30T08:41:37+02:00</time>
      </trkpt>
      <trkpt lat="49.29466" lon="-1.49015">
        <ele>42</ele>
        <time>2022-07-30T08:41:37+02:00</time>
      </trkpt>
      <trkpt lat="49.29472" lon="-1.48973">
        <ele>41</ele>
        <time>2022-07-30T08:41:37+02:00</time>
      </trkpt>
      <trkpt lat="49.29477" lon="-1.48933">
        <ele>42</ele>
        <time>2022-07-30T08:41:37+02:00</time>
      </trkpt>
      <trkpt lat="49.29484" lon="-1.48899">
        <ele>41</ele>
        <time>2022-07-30T08:41:37+02:00</time>
      </trkpt>
      <trkpt lat="49.2949" lon="-1.48863">
        <ele>40</ele>
        <time>2022-07-30T08:41:37+02:00</time>
      </trkpt>
      <trkpt lat="49.29496" lon="-1.48827">
        <ele>40</ele>
        <time>2022-07-30T08:41:37+02:00</time>
      </trkpt>
      <trkpt lat="49.29503" lon="-1.48792">
        <ele>39</ele>
        <time>2022-07-30T08:41:37+02:00</time>
      </trkpt>
      <trkpt lat="49.29509" lon="-1.48758">
        <ele>40</ele>
        <time>2022-07-30T08:41:37+02:00</time>
      </trkpt>
      <trkpt lat="49.29515" lon="-1.48717">
        <ele>40</ele>
        <time>2022-07-30T08:41:37+02:00</time>
      </trkpt>
      <trkpt lat="49.29521" lon="-1.48683">
        <ele>40</ele>
        <time>2022-07-30T08:41:37+02:00</time>
      </trkpt>
      <trkpt lat="49.29527" lon="-1.48641">
        <ele>39</ele>
        <time>2022-07-30T08:41:37+02:00</time>
      </trkpt>
      <trkpt lat="49.29534" lon="-1.48602">
        <ele>40</ele>
        <time>2022-07-30T08:41:37+02:00</time>
      </trkpt>
      <trkpt lat="49.29539" lon="-1.48563">
        <ele>40</ele>
        <time>2022-07-30T08:41:37+02:00</time>
      </trkpt>
      <trkpt lat="49.29546" lon="-1.48524">
        <ele>41</ele>
        <time>2022-07-30T08:41:37+02:00</time>
      </trkpt>
      <trkpt lat="49.29552" lon="-1.48484">
        <ele>40</ele>
        <time>2022-07-30T08:41:37+02:00</time>
      </trkpt>
      <trkpt lat="49.29558" lon="-1.48451">
        <ele>39</ele>
        <time>2022-07-30T08:41:37+02:00</time>
      </trkpt>
      <trkpt lat="49.29563" lon="-1.48413">
        <ele>39</ele>
        <time>2022-07-30T08:41:37+02:00</time>
      </trkpt>
      <trkpt lat="49.29568" lon="-1.48376">
        <ele>39</ele>
        <time>2022-07-30T08:41:37+02:00</time>
      </trkpt>
      <trkpt lat="49.29573" lon="-1.4834">
        <ele>40</ele>
        <time>2022-07-30T08:41:37+02:00</time>
      </trkpt>
      <trkpt lat="49.2958" lon="-1.48301">
        <ele>40</ele>
        <time>2022-07-30T08:41:37+02:00</time>
      </trkpt>
      <trkpt lat="49.29584" lon="-1.48264">
        <ele>40</ele>
        <time>2022-07-30T08:41:37+02:00</time>
      </trkpt>
      <trkpt lat="49.29591" lon="-1.48226">
        <ele>40</ele>
        <time>2022-07-30T08:41:37+02:00</time>
      </trkpt>
      <trkpt lat="49.29596" lon="-1.48189">
        <ele>41</ele>
        <time>2022-07-30T08:41:37+02:00</time>
      </trkpt>
      <trkpt lat="49.29602" lon="-1.48153">
        <ele>41</ele>
        <time>2022-07-30T08:41:37+02:00</time>
      </trkpt>
      <trkpt lat="49.29609" lon="-1.48119">
        <ele>42</ele>
        <time>2022-07-30T08:41:37+02:00</time>
      </trkpt>
      <trkpt lat="49.29616" lon="-1.48081">
        <ele>43</ele>
        <time>2022-07-30T08:41:37+02:00</time>
      </trkpt>
      <trkpt lat="49.29622" lon="-1.48045">
        <ele>43</ele>
        <time>2022-07-30T08:41:37+02:00</time>
      </trkpt>
      <trkpt lat="49.29628" lon="-1.48008">
        <ele>43</ele>
        <time>2022-07-30T08:41:37+02:00</time>
      </trkpt>
      <trkpt lat="49.29633" lon="-1.4797">
        <ele>44</ele>
        <time>2022-07-30T08:41:37+02:00</time>
      </trkpt>
      <trkpt lat="49.29639" lon="-1.47932">
        <ele>43</ele>
        <time>2022-07-30T08:41:37+02:00</time>
      </trkpt>
      <trkpt lat="49.29644" lon="-1.47896">
        <ele>44</ele>
        <time>2022-07-30T08:41:37+02:00</time>
      </trkpt>
      <trkpt lat="49.2965" lon="-1.47862">
        <ele>45</ele>
        <time>2022-07-30T08:41:37+02:00</time>
      </trkpt>
      <trkpt lat="49.29656" lon="-1.47826">
        <ele>44</ele>
        <time>2022-07-30T08:41:37+02:00</time>
      </trkpt>
      <trkpt lat="49.29662" lon="-1.47793">
        <ele>44</ele>
        <time>2022-07-30T08:41:37+02:00</time>
      </trkpt>
      <trkpt lat="49.29667" lon="-1.47757">
        <ele>45</ele>
        <time>2022-07-30T08:41:37+02:00</time>
      </trkpt>
      <trkpt lat="49.29675" lon="-1.47722">
        <ele>45</ele>
        <time>2022-07-30T08:41:37+02:00</time>
      </trkpt>
      <trkpt lat="49.2968" lon="-1.47686">
        <ele>44</ele>
        <time>2022-07-30T08:41:37+02:00</time>
      </trkpt>
      <trkpt lat="49.29686" lon="-1.47649">
        <ele>45</ele>
        <time>2022-07-30T08:41:37+02:00</time>
      </trkpt>
      <trkpt lat="49.29692" lon="-1.47614">
        <ele>45</ele>
        <time>2022-07-30T08:41:37+02:00</time>
      </trkpt>
      <trkpt lat="49.297" lon="-1.47581">
        <ele>45</ele>
        <time>2022-07-30T08:41:37+02:00</time>
      </trkpt>
      <trkpt lat="49.29707" lon="-1.47547">
        <ele>44</ele>
        <time>2022-07-30T08:41:37+02:00</time>
      </trkpt>
      <trkpt lat="49.29714" lon="-1.47509">
        <ele>43</ele>
        <time>2022-07-30T08:41:37+02:00</time>
      </trkpt>
      <trkpt lat="49.29718" lon="-1.47471">
        <ele>44</ele>
        <time>2022-07-30T08:41:37+02:00</time>
      </trkpt>
      <trkpt lat="49.29722" lon="-1.47434">
        <ele>44</ele>
        <time>2022-07-30T08:41:37+02:00</time>
      </trkpt>
      <trkpt lat="49.29726" lon="-1.47395">
        <ele>43</ele>
        <time>2022-07-30T08:41:37+02:00</time>
      </trkpt>
      <trkpt lat="49.29727" lon="-1.47358">
        <ele>44</ele>
        <time>2022-07-30T08:41:37+02:00</time>
      </trkpt>
      <trkpt lat="49.29728" lon="-1.47323">
        <ele>44</ele>
        <time>2022-07-30T08:41:37+02:00</time>
      </trkpt>
      <trkpt lat="49.29727" lon="-1.47285">
        <ele>44</ele>
        <time>2022-07-30T08:41:37+02:00</time>
      </trkpt>
      <trkpt lat="49.29729" lon="-1.47247">
        <ele>44</ele>
        <time>2022-07-30T08:41:37+02:00</time>
      </trkpt>
      <trkpt lat="49.2973" lon="-1.47209">
        <ele>45</ele>
        <time>2022-07-30T08:41:37+02:00</time>
      </trkpt>
      <trkpt lat="49.2973" lon="-1.47168">
        <ele>45</ele>
        <time>2022-07-30T08:41:37+02:00</time>
      </trkpt>
      <trkpt lat="49.29731" lon="-1.47129">
        <ele>45</ele>
        <time>2022-07-30T08:41:37+02:00</time>
      </trkpt>
      <trkpt lat="49.29731" lon="-1.4709">
        <ele>44</ele>
        <time>2022-07-30T08:41:37+02:00</time>
      </trkpt>
      <trkpt lat="49.2973" lon="-1.47053">
        <ele>45</ele>
        <time>2022-07-30T08:41:37+02:00</time>
      </trkpt>
      <trkpt lat="49.2973" lon="-1.47011">
        <ele>44</ele>
        <time>2022-07-30T08:41:37+02:00</time>
      </trkpt>
      <trkpt lat="49.29729" lon="-1.46976">
        <ele>43</ele>
        <time>2022-07-30T08:41:37+02:00</time>
      </trkpt>
      <trkpt lat="49.29727" lon="-1.46936">
        <ele>42</ele>
        <time>2022-07-30T08:41:37+02:00</time>
      </trkpt>
      <trkpt lat="49.29726" lon="-1.46893">
        <ele>42</ele>
        <time>2022-07-30T08:41:37+02:00</time>
      </trkpt>
      <trkpt lat="49.29726" lon="-1.46854">
        <ele>41</ele>
        <time>2022-07-30T08:41:37+02:00</time>
      </trkpt>
      <trkpt lat="49.29726" lon="-1.46814">
        <ele>41</ele>
        <time>2022-07-30T08:41:37+02:00</time>
      </trkpt>
      <trkpt lat="49.29725" lon="-1.46778">
        <ele>40</ele>
        <time>2022-07-30T08:41:37+02:00</time>
      </trkpt>
      <trkpt lat="49.29725" lon="-1.46742">
        <ele>39</ele>
        <time>2022-07-30T08:41:37+02:00</time>
      </trkpt>
      <trkpt lat="49.29724" lon="-1.46704">
        <ele>37</ele>
        <time>2022-07-30T08:41:37+02:00</time>
      </trkpt>
      <trkpt lat="49.29724" lon="-1.46661">
        <ele>37</ele>
        <time>2022-07-30T08:41:37+02:00</time>
      </trkpt>
      <trkpt lat="49.29723" lon="-1.46621">
        <ele>39</ele>
        <time>2022-07-30T08:41:37+02:00</time>
      </trkpt>
      <trkpt lat="49.29721" lon="-1.4658">
        <ele>40</ele>
        <time>2022-07-30T08:41:37+02:00</time>
      </trkpt>
      <trkpt lat="49.29721" lon="-1.46536">
        <ele>41</ele>
        <time>2022-07-30T08:41:37+02:00</time>
      </trkpt>
      <trkpt lat="49.2972" lon="-1.46498">
        <ele>41</ele>
        <time>2022-07-30T08:41:37+02:00</time>
      </trkpt>
      <trkpt lat="49.2972" lon="-1.4646">
        <ele>41</ele>
        <time>2022-07-30T08:41:37+02:00</time>
      </trkpt>
      <trkpt lat="49.2972" lon="-1.4642">
        <ele>40</ele>
        <time>2022-07-30T08:41:37+02:00</time>
      </trkpt>
      <trkpt lat="49.29721" lon="-1.46383">
        <ele>40</ele>
        <time>2022-07-30T08:41:37+02:00</time>
      </trkpt>
      <trkpt lat="49.2972" lon="-1.46342">
        <ele>40</ele>
        <time>2022-07-30T08:41:37+02:00</time>
      </trkpt>
      <trkpt lat="49.29718" lon="-1.46302">
        <ele>41</ele>
        <time>2022-07-30T08:41:37+02:00</time>
      </trkpt>
      <trkpt lat="49.29717" lon="-1.46258">
        <ele>40</ele>
        <time>2022-07-30T08:41:37+02:00</time>
      </trkpt>
      <trkpt lat="49.29718" lon="-1.46217">
        <ele>40</ele>
        <time>2022-07-30T08:41:37+02:00</time>
      </trkpt>
      <trkpt lat="49.29718" lon="-1.4618">
        <ele>40</ele>
        <time>2022-07-30T08:41:37+02:00</time>
      </trkpt>
      <trkpt lat="49.29717" lon="-1.46145">
        <ele>39</ele>
        <time>2022-07-30T08:41:37+02:00</time>
      </trkpt>
      <trkpt lat="49.29717" lon="-1.4611">
        <ele>39</ele>
        <time>2022-07-30T08:41:37+02:00</time>
      </trkpt>
      <trkpt lat="49.29715" lon="-1.46075">
        <ele>39</ele>
        <time>2022-07-30T08:41:37+02:00</time>
      </trkpt>
      <trkpt lat="49.29715" lon="-1.46034">
        <ele>39</ele>
        <time>2022-07-30T08:41:37+02:00</time>
      </trkpt>
      <trkpt lat="49.29714" lon="-1.45993">
        <ele>39</ele>
        <time>2022-07-30T08:41:37+02:00</time>
      </trkpt>
      <trkpt lat="49.29714" lon="-1.45953">
        <ele>40</ele>
        <time>2022-07-30T08:41:37+02:00</time>
      </trkpt>
      <trkpt lat="49.29713" lon="-1.45911">
        <ele>39</ele>
        <time>2022-07-30T08:41:37+02:00</time>
      </trkpt>
      <trkpt lat="49.29714" lon="-1.45875">
        <ele>38</ele>
        <time>2022-07-30T08:41:37+02:00</time>
      </trkpt>
      <trkpt lat="49.29715" lon="-1.45838">
        <ele>39</ele>
        <time>2022-07-30T08:41:37+02:00</time>
      </trkpt>
      <trkpt lat="49.29716" lon="-1.45797">
        <ele>37</ele>
        <time>2022-07-30T08:41:37+02:00</time>
      </trkpt>
      <trkpt lat="49.29717" lon="-1.4576">
        <ele>36</ele>
        <time>2022-07-30T08:41:37+02:00</time>
      </trkpt>
      <trkpt lat="49.2972" lon="-1.45723">
        <ele>35</ele>
        <time>2022-07-30T08:41:37+02:00</time>
      </trkpt>
      <trkpt lat="49.29722" lon="-1.45687">
        <ele>33</ele>
        <time>2022-07-30T08:41:37+02:00</time>
      </trkpt>
      <trkpt lat="49.29724" lon="-1.45651">
        <ele>32</ele>
        <time>2022-07-30T08:41:37+02:00</time>
      </trkpt>
      <trkpt lat="49.29727" lon="-1.45616">
        <ele>31</ele>
        <time>2022-07-30T08:41:37+02:00</time>
      </trkpt>
      <trkpt lat="49.2973" lon="-1.45581">
        <ele>33</ele>
        <time>2022-07-30T08:41:37+02:00</time>
      </trkpt>
      <trkpt lat="49.29735" lon="-1.45545">
        <ele>32</ele>
        <time>2022-07-30T08:41:37+02:00</time>
      </trkpt>
      <trkpt lat="49.29738" lon="-1.45508">
        <ele>34</ele>
        <time>2022-07-30T08:41:37+02:00</time>
      </trkpt>
      <trkpt lat="49.29744" lon="-1.4547">
        <ele>33</ele>
        <time>2022-07-30T08:41:37+02:00</time>
      </trkpt>
      <trkpt lat="49.29746" lon="-1.45434">
        <ele>32</ele>
        <time>2022-07-30T08:41:37+02:00</time>
      </trkpt>
      <trkpt lat="49.2975" lon="-1.45398">
        <ele>31</ele>
        <time>2022-07-30T08:41:37+02:00</time>
      </trkpt>
      <trkpt lat="49.29753" lon="-1.45363">
        <ele>33</ele>
        <time>2022-07-30T08:41:37+02:00</time>
      </trkpt>
      <trkpt lat="49.29755" lon="-1.45321">
        <ele>33</ele>
        <time>2022-07-30T08:41:37+02:00</time>
      </trkpt>
      <trkpt lat="49.29758" lon="-1.45283">
        <ele>33</ele>
        <time>2022-07-30T08:41:37+02:00</time>
      </trkpt>
      <trkpt lat="49.29763" lon="-1.45243">
        <ele>33</ele>
        <time>2022-07-30T08:41:37+02:00</time>
      </trkpt>
      <trkpt lat="49.29766" lon="-1.45202">
        <ele>34</ele>
        <time>2022-07-30T08:41:37+02:00</time>
      </trkpt>
      <trkpt lat="49.2977" lon="-1.45163">
        <ele>33</ele>
        <time>2022-07-30T08:41:37+02:00</time>
      </trkpt>
      <trkpt lat="49.29774" lon="-1.45125">
        <ele>33</ele>
        <time>2022-07-30T08:41:37+02:00</time>
      </trkpt>
      <trkpt lat="49.29779" lon="-1.45085">
        <ele>34</ele>
        <time>2022-07-30T08:41:37+02:00</time>
      </trkpt>
      <trkpt lat="49.29781" lon="-1.45046">
        <ele>35</ele>
        <time>2022-07-30T08:41:37+02:00</time>
      </trkpt>
      <trkpt lat="49.29785" lon="-1.45006">
        <ele>34</ele>
        <time>2022-07-30T08:41:37+02:00</time>
      </trkpt>
      <trkpt lat="49.29792" lon="-1.44971">
        <ele>33</ele>
        <time>2022-07-30T08:41:37+02:00</time>
      </trkpt>
      <trkpt lat="49.29794" lon="-1.44932">
        <ele>33</ele>
        <time>2022-07-30T08:41:37+02:00</time>
      </trkpt>
      <trkpt lat="49.29797" lon="-1.44897">
        <ele>33</ele>
        <time>2022-07-30T08:41:37+02:00</time>
      </trkpt>
      <trkpt lat="49.298" lon="-1.4486">
        <ele>33</ele>
        <time>2022-07-30T08:41:37+02:00</time>
      </trkpt>
      <trkpt lat="49.29803" lon="-1.44824">
        <ele>35</ele>
        <time>2022-07-30T08:41:37+02:00</time>
      </trkpt>
      <trkpt lat="49.29806" lon="-1.44787">
        <ele>37</ele>
        <time>2022-07-30T08:41:37+02:00</time>
      </trkpt>
      <trkpt lat="49.29811" lon="-1.44752">
        <ele>37</ele>
        <time>2022-07-30T08:41:37+02:00</time>
      </trkpt>
      <trkpt lat="49.29814" lon="-1.44714">
        <ele>37</ele>
        <time>2022-07-30T08:41:37+02:00</time>
      </trkpt>
      <trkpt lat="49.29819" lon="-1.44678">
        <ele>36</ele>
        <time>2022-07-30T08:41:37+02:00</time>
      </trkpt>
      <trkpt lat="49.29823" lon="-1.44637">
        <ele>35</ele>
        <time>2022-07-30T08:41:37+02:00</time>
      </trkpt>
      <trkpt lat="49.29828" lon="-1.44598">
        <ele>36</ele>
        <time>2022-07-30T08:41:37+02:00</time>
      </trkpt>
      <trkpt lat="49.29831" lon="-1.44558">
        <ele>37</ele>
        <time>2022-07-30T08:41:37+02:00</time>
      </trkpt>
      <trkpt lat="49.29835" lon="-1.44518">
        <ele>38</ele>
        <time>2022-07-30T08:41:37+02:00</time>
      </trkpt>
      <trkpt lat="49.29838" lon="-1.44483">
        <ele>40</ele>
        <time>2022-07-30T08:41:37+02:00</time>
      </trkpt>
      <trkpt lat="49.29841" lon="-1.44449">
        <ele>40</ele>
        <time>2022-07-30T08:41:37+02:00</time>
      </trkpt>
      <trkpt lat="49.29845" lon="-1.44409">
        <ele>41</ele>
        <time>2022-07-30T08:41:37+02:00</time>
      </trkpt>
      <trkpt lat="49.29849" lon="-1.44374">
        <ele>41</ele>
        <time>2022-07-30T08:41:37+02:00</time>
      </trkpt>
      <trkpt lat="49.29853" lon="-1.44334">
        <ele>41</ele>
        <time>2022-07-30T08:41:37+02:00</time>
      </trkpt>
      <trkpt lat="49.29855" lon="-1.44298">
        <ele>41</ele>
        <time>2022-07-30T08:41:37+02:00</time>
      </trkpt>
      <trkpt lat="49.29859" lon="-1.44259">
        <ele>42</ele>
        <time>2022-07-30T08:41:37+02:00</time>
      </trkpt>
      <trkpt lat="49.29864" lon="-1.44218">
        <ele>42</ele>
        <time>2022-07-30T08:41:37+02:00</time>
      </trkpt>
      <trkpt lat="49.29869" lon="-1.44182">
        <ele>42</ele>
        <time>2022-07-30T08:41:37+02:00</time>
      </trkpt>
      <trkpt lat="49.29872" lon="-1.44142">
        <ele>42</ele>
        <time>2022-07-30T08:41:37+02:00</time>
      </trkpt>
      <trkpt lat="49.29874" lon="-1.44103">
        <ele>43</ele>
        <time>2022-07-30T08:41:37+02:00</time>
      </trkpt>
      <trkpt lat="49.29878" lon="-1.44066">
        <ele>43</ele>
        <time>2022-07-30T08:41:37+02:00</time>
      </trkpt>
      <trkpt lat="49.29882" lon="-1.4403">
        <ele>43</ele>
        <time>2022-07-30T08:41:37+02:00</time>
      </trkpt>
      <trkpt lat="49.29886" lon="-1.43989">
        <ele>42</ele>
        <time>2022-07-30T08:41:37+02:00</time>
      </trkpt>
      <trkpt lat="49.2989" lon="-1.43953">
        <ele>41</ele>
        <time>2022-07-30T08:41:37+02:00</time>
      </trkpt>
      <trkpt lat="49.29895" lon="-1.43912">
        <ele>42</ele>
        <time>2022-07-30T08:41:37+02:00</time>
      </trkpt>
      <trkpt lat="49.29898" lon="-1.43877">
        <ele>42</ele>
        <time>2022-07-30T08:41:37+02:00</time>
      </trkpt>
      <trkpt lat="49.299" lon="-1.43836">
        <ele>43</ele>
        <time>2022-07-30T08:41:37+02:00</time>
      </trkpt>
      <trkpt lat="49.29903" lon="-1.43796">
        <ele>42</ele>
        <time>2022-07-30T08:41:37+02:00</time>
      </trkpt>
      <trkpt lat="49.29907" lon="-1.43762">
        <ele>42</ele>
        <time>2022-07-30T08:41:37+02:00</time>
      </trkpt>
      <trkpt lat="49.2991" lon="-1.43727">
        <ele>42</ele>
        <time>2022-07-30T08:41:37+02:00</time>
      </trkpt>
      <trkpt lat="49.29915" lon="-1.43686">
        <ele>41</ele>
        <time>2022-07-30T08:41:37+02:00</time>
      </trkpt>
      <trkpt lat="49.2992" lon="-1.43646">
        <ele>41</ele>
        <time>2022-07-30T08:41:37+02:00</time>
      </trkpt>
      <trkpt lat="49.29924" lon="-1.43606">
        <ele>41</ele>
        <time>2022-07-30T08:41:37+02:00</time>
      </trkpt>
      <trkpt lat="49.29927" lon="-1.43564">
        <ele>42</ele>
        <time>2022-07-30T08:41:37+02:00</time>
      </trkpt>
      <trkpt lat="49.29931" lon="-1.43522">
        <ele>41</ele>
        <time>2022-07-30T08:41:37+02:00</time>
      </trkpt>
      <trkpt lat="49.29936" lon="-1.43482">
        <ele>42</ele>
        <time>2022-07-30T08:41:37+02:00</time>
      </trkpt>
      <trkpt lat="49.2994" lon="-1.4344">
        <ele>41</ele>
        <time>2022-07-30T08:41:37+02:00</time>
      </trkpt>
      <trkpt lat="49.29943" lon="-1.434">
        <ele>42</ele>
        <time>2022-07-30T08:41:37+02:00</time>
      </trkpt>
      <trkpt lat="49.29947" lon="-1.43366">
        <ele>42</ele>
        <time>2022-07-30T08:41:37+02:00</time>
      </trkpt>
      <trkpt lat="49.29952" lon="-1.43325">
        <ele>42</ele>
        <time>2022-07-30T08:41:37+02:00</time>
      </trkpt>
      <trkpt lat="49.29956" lon="-1.43283">
        <ele>43</ele>
        <time>2022-07-30T08:41:37+02:00</time>
      </trkpt>
      <trkpt lat="49.29959" lon="-1.43247">
        <ele>40</ele>
        <time>2022-07-30T08:41:37+02:00</time>
      </trkpt>
      <trkpt lat="49.29963" lon="-1.43207">
        <ele>40</ele>
        <time>2022-07-30T08:41:37+02:00</time>
      </trkpt>
      <trkpt lat="49.29968" lon="-1.43167">
        <ele>40</ele>
        <time>2022-07-30T08:41:37+02:00</time>
      </trkpt>
      <trkpt lat="49.29971" lon="-1.43128">
        <ele>40</ele>
        <time>2022-07-30T08:41:37+02:00</time>
      </trkpt>
      <trkpt lat="49.29975" lon="-1.43089">
        <ele>40</ele>
        <time>2022-07-30T08:41:37+02:00</time>
      </trkpt>
      <trkpt lat="49.29978" lon="-1.4305">
        <ele>40</ele>
        <time>2022-07-30T08:41:37+02:00</time>
      </trkpt>
      <trkpt lat="49.29982" lon="-1.43012">
        <ele>40</ele>
        <time>2022-07-30T08:41:37+02:00</time>
      </trkpt>
      <trkpt lat="49.29986" lon="-1.42976">
        <ele>40</ele>
        <time>2022-07-30T08:41:37+02:00</time>
      </trkpt>
      <trkpt lat="49.2999" lon="-1.4294">
        <ele>40</ele>
        <time>2022-07-30T08:41:37+02:00</time>
      </trkpt>
      <trkpt lat="49.29993" lon="-1.42903">
        <ele>41</ele>
        <time>2022-07-30T08:41:37+02:00</time>
      </trkpt>
      <trkpt lat="49.29995" lon="-1.42868">
        <ele>41</ele>
        <time>2022-07-30T08:41:37+02:00</time>
      </trkpt>
      <trkpt lat="49.3" lon="-1.42831">
        <ele>43</ele>
        <time>2022-07-30T08:41:37+02:00</time>
      </trkpt>
      <trkpt lat="49.30003" lon="-1.42796">
        <ele>42</ele>
        <time>2022-07-30T08:41:37+02:00</time>
      </trkpt>
      <trkpt lat="49.30009" lon="-1.42761">
        <ele>42</ele>
        <time>2022-07-30T08:41:37+02:00</time>
      </trkpt>
      <trkpt lat="49.30011" lon="-1.42723">
        <ele>43</ele>
        <time>2022-07-30T08:41:37+02:00</time>
      </trkpt>
      <trkpt lat="49.30014" lon="-1.42682">
        <ele>43</ele>
        <time>2022-07-30T08:41:37+02:00</time>
      </trkpt>
      <trkpt lat="49.30017" lon="-1.42646">
        <ele>42</ele>
        <time>2022-07-30T08:41:37+02:00</time>
      </trkpt>
      <trkpt lat="49.3002" lon="-1.42609">
        <ele>41</ele>
        <time>2022-07-30T08:41:37+02:00</time>
      </trkpt>
      <trkpt lat="49.30025" lon="-1.42569">
        <ele>41</ele>
        <time>2022-07-30T08:41:37+02:00</time>
      </trkpt>
      <trkpt lat="49.30029" lon="-1.42529">
        <ele>40</ele>
        <time>2022-07-30T08:41:37+02:00</time>
      </trkpt>
      <trkpt lat="49.30032" lon="-1.42492">
        <ele>40</ele>
        <time>2022-07-30T08:41:37+02:00</time>
      </trkpt>
      <trkpt lat="49.30037" lon="-1.42452">
        <ele>40</ele>
        <time>2022-07-30T08:41:37+02:00</time>
      </trkpt>
      <trkpt lat="49.3004" lon="-1.42417">
        <ele>41</ele>
        <time>2022-07-30T08:41:37+02:00</time>
      </trkpt>
      <trkpt lat="49.30043" lon="-1.42375">
        <ele>40</ele>
        <time>2022-07-30T08:41:37+02:00</time>
      </trkpt>
      <trkpt lat="49.30048" lon="-1.4234">
        <ele>39</ele>
        <time>2022-07-30T08:41:37+02:00</time>
      </trkpt>
      <trkpt lat="49.30053" lon="-1.423">
        <ele>39</ele>
        <time>2022-07-30T08:41:37+02:00</time>
      </trkpt>
      <trkpt lat="49.30057" lon="-1.42261">
        <ele>39</ele>
        <time>2022-07-30T08:41:37+02:00</time>
      </trkpt>
      <trkpt lat="49.3006" lon="-1.42225">
        <ele>39</ele>
        <time>2022-07-30T08:41:37+02:00</time>
      </trkpt>
      <trkpt lat="49.30063" lon="-1.42191">
        <ele>39</ele>
        <time>2022-07-30T08:41:37+02:00</time>
      </trkpt>
      <trkpt lat="49.30067" lon="-1.42152">
        <ele>39</ele>
        <time>2022-07-30T08:41:37+02:00</time>
      </trkpt>
      <trkpt lat="49.30069" lon="-1.42116">
        <ele>40</ele>
        <time>2022-07-30T08:41:37+02:00</time>
      </trkpt>
      <trkpt lat="49.30074" lon="-1.42082">
        <ele>39</ele>
        <time>2022-07-30T08:41:37+02:00</time>
      </trkpt>
      <trkpt lat="49.30077" lon="-1.42044">
        <ele>39</ele>
        <time>2022-07-30T08:41:37+02:00</time>
      </trkpt>
      <trkpt lat="49.30082" lon="-1.42009">
        <ele>38</ele>
        <time>2022-07-30T08:41:37+02:00</time>
      </trkpt>
      <trkpt lat="49.30084" lon="-1.41974">
        <ele>39</ele>
        <time>2022-07-30T08:41:37+02:00</time>
      </trkpt>
      <trkpt lat="49.30088" lon="-1.41937">
        <ele>38</ele>
        <time>2022-07-30T08:41:37+02:00</time>
      </trkpt>
      <trkpt lat="49.30093" lon="-1.41902">
        <ele>38</ele>
        <time>2022-07-30T08:41:37+02:00</time>
      </trkpt>
      <trkpt lat="49.30094" lon="-1.41861">
        <ele>38</ele>
        <time>2022-07-30T08:41:37+02:00</time>
      </trkpt>
      <trkpt lat="49.30099" lon="-1.41821">
        <ele>38</ele>
        <time>2022-07-30T08:41:37+02:00</time>
      </trkpt>
      <trkpt lat="49.30101" lon="-1.41783">
        <ele>38</ele>
        <time>2022-07-30T08:41:37+02:00</time>
      </trkpt>
      <trkpt lat="49.30106" lon="-1.41743">
        <ele>37</ele>
        <time>2022-07-30T08:41:37+02:00</time>
      </trkpt>
      <trkpt lat="49.3011" lon="-1.41706">
        <ele>37</ele>
        <time>2022-07-30T08:41:37+02:00</time>
      </trkpt>
      <trkpt lat="49.30114" lon="-1.41672">
        <ele>38</ele>
        <time>2022-07-30T08:41:37+02:00</time>
      </trkpt>
      <trkpt lat="49.30116" lon="-1.41636">
        <ele>39</ele>
        <time>2022-07-30T08:41:37+02:00</time>
      </trkpt>
      <trkpt lat="49.3012" lon="-1.41594">
        <ele>38</ele>
        <time>2022-07-30T08:41:37+02:00</time>
      </trkpt>
      <trkpt lat="49.30122" lon="-1.41552">
        <ele>37</ele>
        <time>2022-07-30T08:41:37+02:00</time>
      </trkpt>
      <trkpt lat="49.30126" lon="-1.41513">
        <ele>36</ele>
        <time>2022-07-30T08:41:37+02:00</time>
      </trkpt>
      <trkpt lat="49.30131" lon="-1.41478">
        <ele>36</ele>
        <time>2022-07-30T08:41:37+02:00</time>
      </trkpt>
      <trkpt lat="49.30137" lon="-1.4144">
        <ele>36</ele>
        <time>2022-07-30T08:41:37+02:00</time>
      </trkpt>
      <trkpt lat="49.30141" lon="-1.41399">
        <ele>38</ele>
        <time>2022-07-30T08:41:37+02:00</time>
      </trkpt>
      <trkpt lat="49.30145" lon="-1.41363">
        <ele>37</ele>
        <time>2022-07-30T08:41:37+02:00</time>
      </trkpt>
      <trkpt lat="49.30148" lon="-1.41325">
        <ele>38</ele>
        <time>2022-07-30T08:41:37+02:00</time>
      </trkpt>
      <trkpt lat="49.3015" lon="-1.41289">
        <ele>37</ele>
        <time>2022-07-30T08:41:37+02:00</time>
      </trkpt>
      <trkpt lat="49.30152" lon="-1.41252">
        <ele>37</ele>
        <time>2022-07-30T08:41:37+02:00</time>
      </trkpt>
      <trkpt lat="49.30157" lon="-1.41217">
        <ele>38</ele>
        <time>2022-07-30T08:41:37+02:00</time>
      </trkpt>
      <trkpt lat="49.30161" lon="-1.41183">
        <ele>37</ele>
        <time>2022-07-30T08:41:37+02:00</time>
      </trkpt>
      <trkpt lat="49.30166" lon="-1.41142">
        <ele>36</ele>
        <time>2022-07-30T08:41:37+02:00</time>
      </trkpt>
      <trkpt lat="49.30169" lon="-1.41103">
        <ele>37</ele>
        <time>2022-07-30T08:41:37+02:00</time>
      </trkpt>
      <trkpt lat="49.30172" lon="-1.41068">
        <ele>37</ele>
        <time>2022-07-30T08:41:37+02:00</time>
      </trkpt>
      <trkpt lat="49.30175" lon="-1.4103">
        <ele>38</ele>
        <time>2022-07-30T08:41:37+02:00</time>
      </trkpt>
      <trkpt lat="49.30179" lon="-1.40992">
        <ele>37</ele>
        <time>2022-07-30T08:41:37+02:00</time>
      </trkpt>
      <trkpt lat="49.30181" lon="-1.40956">
        <ele>35</ele>
        <time>2022-07-30T08:41:37+02:00</time>
      </trkpt>
      <trkpt lat="49.30186" lon="-1.40918">
        <ele>36</ele>
        <time>2022-07-30T08:41:37+02:00</time>
      </trkpt>
      <trkpt lat="49.30189" lon="-1.40882">
        <ele>35</ele>
        <time>2022-07-30T08:41:37+02:00</time>
      </trkpt>
      <trkpt lat="49.30192" lon="-1.40848">
        <ele>36</ele>
        <time>2022-07-30T08:41:37+02:00</time>
      </trkpt>
      <trkpt lat="49.30196" lon="-1.4081">
        <ele>36</ele>
        <time>2022-07-30T08:41:37+02:00</time>
      </trkpt>
      <trkpt lat="49.30201" lon="-1.40776">
        <ele>36</ele>
        <time>2022-07-30T08:41:37+02:00</time>
      </trkpt>
      <trkpt lat="49.30206" lon="-1.40741">
        <ele>35</ele>
        <time>2022-07-30T08:41:37+02:00</time>
      </trkpt>
      <trkpt lat="49.3021" lon="-1.40704">
        <ele>34</ele>
        <time>2022-07-30T08:41:37+02:00</time>
      </trkpt>
      <trkpt lat="49.30213" lon="-1.40666">
        <ele>33</ele>
        <time>2022-07-30T08:41:37+02:00</time>
      </trkpt>
      <trkpt lat="49.30217" lon="-1.40631">
        <ele>33</ele>
        <time>2022-07-30T08:41:37+02:00</time>
      </trkpt>
      <trkpt lat="49.30219" lon="-1.40595">
        <ele>32</ele>
        <time>2022-07-30T08:41:37+02:00</time>
      </trkpt>
      <trkpt lat="49.30223" lon="-1.40555">
        <ele>32</ele>
        <time>2022-07-30T08:41:37+02:00</time>
      </trkpt>
      <trkpt lat="49.30227" lon="-1.40517">
        <ele>32</ele>
        <time>2022-07-30T08:41:37+02:00</time>
      </trkpt>
      <trkpt lat="49.30229" lon="-1.40476">
        <ele>32</ele>
        <time>2022-07-30T08:41:37+02:00</time>
      </trkpt>
      <trkpt lat="49.30235" lon="-1.40438">
        <ele>31</ele>
        <time>2022-07-30T08:41:37+02:00</time>
      </trkpt>
      <trkpt lat="49.30239" lon="-1.40401">
        <ele>31</ele>
        <time>2022-07-30T08:41:37+02:00</time>
      </trkpt>
      <trkpt lat="49.30244" lon="-1.4036">
        <ele>29</ele>
        <time>2022-07-30T08:41:37+02:00</time>
      </trkpt>
      <trkpt lat="49.30246" lon="-1.40319">
        <ele>29</ele>
        <time>2022-07-30T08:41:37+02:00</time>
      </trkpt>
      <trkpt lat="49.30249" lon="-1.40283">
        <ele>29</ele>
        <time>2022-07-30T08:41:37+02:00</time>
      </trkpt>
      <trkpt lat="49.30255" lon="-1.4025">
        <ele>29</ele>
        <time>2022-07-30T08:41:37+02:00</time>
      </trkpt>
      <trkpt lat="49.30257" lon="-1.40214">
        <ele>28</ele>
        <time>2022-07-30T08:41:37+02:00</time>
      </trkpt>
      <trkpt lat="49.30263" lon="-1.40177">
        <ele>29</ele>
        <time>2022-07-30T08:41:37+02:00</time>
      </trkpt>
      <trkpt lat="49.3027" lon="-1.40135">
        <ele>29</ele>
        <time>2022-07-30T08:41:37+02:00</time>
      </trkpt>
      <trkpt lat="49.3027" lon="-1.40094">
        <ele>29</ele>
        <time>2022-07-30T08:41:37+02:00</time>
      </trkpt>
      <trkpt lat="49.30273" lon="-1.40057">
        <ele>29</ele>
        <time>2022-07-30T08:41:37+02:00</time>
      </trkpt>
      <trkpt lat="49.30275" lon="-1.4002">
        <ele>28</ele>
        <time>2022-07-30T08:41:37+02:00</time>
      </trkpt>
      <trkpt lat="49.30279" lon="-1.39985">
        <ele>28</ele>
        <time>2022-07-30T08:41:37+02:00</time>
      </trkpt>
      <trkpt lat="49.30283" lon="-1.39946">
        <ele>27</ele>
        <time>2022-07-30T08:41:37+02:00</time>
      </trkpt>
      <trkpt lat="49.3029" lon="-1.39903">
        <ele>27</ele>
        <time>2022-07-30T08:41:37+02:00</time>
      </trkpt>
      <trkpt lat="49.30289" lon="-1.39867">
        <ele>28</ele>
        <time>2022-07-30T08:41:37+02:00</time>
      </trkpt>
      <trkpt lat="49.30292" lon="-1.39826">
        <ele>28</ele>
        <time>2022-07-30T08:41:37+02:00</time>
      </trkpt>
      <trkpt lat="49.30295" lon="-1.3979">
        <ele>28</ele>
        <time>2022-07-30T08:41:37+02:00</time>
      </trkpt>
      <trkpt lat="49.30298" lon="-1.3975">
        <ele>26</ele>
        <time>2022-07-30T08:41:37+02:00</time>
      </trkpt>
      <trkpt lat="49.30303" lon="-1.39709">
        <ele>26</ele>
        <time>2022-07-30T08:41:37+02:00</time>
      </trkpt>
      <trkpt lat="49.3031" lon="-1.39676">
        <ele>25</ele>
        <time>2022-07-30T08:41:37+02:00</time>
      </trkpt>
      <trkpt lat="49.30314" lon="-1.3964">
        <ele>24</ele>
        <time>2022-07-30T08:41:37+02:00</time>
      </trkpt>
      <trkpt lat="49.30317" lon="-1.39601">
        <ele>22</ele>
        <time>2022-07-30T08:41:37+02:00</time>
      </trkpt>
      <trkpt lat="49.30319" lon="-1.39565">
        <ele>21</ele>
        <time>2022-07-30T08:41:37+02:00</time>
      </trkpt>
      <trkpt lat="49.30324" lon="-1.39529">
        <ele>21</ele>
        <time>2022-07-30T08:41:37+02:00</time>
      </trkpt>
      <trkpt lat="49.30326" lon="-1.39492">
        <ele>20</ele>
        <time>2022-07-30T08:41:37+02:00</time>
      </trkpt>
      <trkpt lat="49.30334" lon="-1.39456">
        <ele>19</ele>
        <time>2022-07-30T08:41:37+02:00</time>
      </trkpt>
      <trkpt lat="49.30337" lon="-1.39418">
        <ele>18</ele>
        <time>2022-07-30T08:41:37+02:00</time>
      </trkpt>
      <trkpt lat="49.30342" lon="-1.39383">
        <ele>18</ele>
        <time>2022-07-30T08:41:37+02:00</time>
      </trkpt>
      <trkpt lat="49.30345" lon="-1.39343">
        <ele>17</ele>
        <time>2022-07-30T08:41:37+02:00</time>
      </trkpt>
      <trkpt lat="49.3035" lon="-1.39304">
        <ele>17</ele>
        <time>2022-07-30T08:41:37+02:00</time>
      </trkpt>
      <trkpt lat="49.30353" lon="-1.39268">
        <ele>16</ele>
        <time>2022-07-30T08:41:37+02:00</time>
      </trkpt>
      <trkpt lat="49.30358" lon="-1.39228">
        <ele>17</ele>
        <time>2022-07-30T08:41:37+02:00</time>
      </trkpt>
      <trkpt lat="49.30362" lon="-1.3919">
        <ele>16</ele>
        <time>2022-07-30T08:41:37+02:00</time>
      </trkpt>
      <trkpt lat="49.30365" lon="-1.39151">
        <ele>15</ele>
        <time>2022-07-30T08:41:37+02:00</time>
      </trkpt>
      <trkpt lat="49.30369" lon="-1.39115">
        <ele>15</ele>
        <time>2022-07-30T08:41:37+02:00</time>
      </trkpt>
      <trkpt lat="49.30372" lon="-1.39075">
        <ele>15</ele>
        <time>2022-07-30T08:41:37+02:00</time>
      </trkpt>
      <trkpt lat="49.30376" lon="-1.39033">
        <ele>14</ele>
        <time>2022-07-30T08:41:37+02:00</time>
      </trkpt>
      <trkpt lat="49.30381" lon="-1.38993">
        <ele>14</ele>
        <time>2022-07-30T08:41:37+02:00</time>
      </trkpt>
      <trkpt lat="49.30385" lon="-1.38955">
        <ele>12</ele>
        <time>2022-07-30T08:41:37+02:00</time>
      </trkpt>
      <trkpt lat="49.30388" lon="-1.38918">
        <ele>12</ele>
        <time>2022-07-30T08:41:37+02:00</time>
      </trkpt>
      <trkpt lat="49.30391" lon="-1.38878">
        <ele>12</ele>
        <time>2022-07-30T08:41:37+02:00</time>
      </trkpt>
      <trkpt lat="49.30396" lon="-1.38839">
        <ele>10</ele>
        <time>2022-07-30T08:41:37+02:00</time>
      </trkpt>
      <trkpt lat="49.30401" lon="-1.38802">
        <ele>10</ele>
        <time>2022-07-30T08:41:37+02:00</time>
      </trkpt>
      <trkpt lat="49.30404" lon="-1.38767">
        <ele>9</ele>
        <time>2022-07-30T08:41:37+02:00</time>
      </trkpt>
      <trkpt lat="49.30405" lon="-1.3873">
        <ele>8</ele>
        <time>2022-07-30T08:41:37+02:00</time>
      </trkpt>
      <trkpt lat="49.30408" lon="-1.38691">
        <ele>8</ele>
        <time>2022-07-30T08:41:37+02:00</time>
      </trkpt>
      <trkpt lat="49.30412" lon="-1.38652">
        <ele>9</ele>
        <time>2022-07-30T08:41:37+02:00</time>
      </trkpt>
      <trkpt lat="49.30417" lon="-1.38618">
        <ele>7</ele>
        <time>2022-07-30T08:41:37+02:00</time>
      </trkpt>
      <trkpt lat="49.30421" lon="-1.38583">
        <ele>7</ele>
        <time>2022-07-30T08:41:37+02:00</time>
      </trkpt>
      <trkpt lat="49.30424" lon="-1.38548">
        <ele>8</ele>
        <time>2022-07-30T08:41:37+02:00</time>
      </trkpt>
      <trkpt lat="49.30428" lon="-1.38512">
        <ele>7</ele>
        <time>2022-07-30T08:41:37+02:00</time>
      </trkpt>
      <trkpt lat="49.30431" lon="-1.38476">
        <ele>8</ele>
        <time>2022-07-30T08:41:37+02:00</time>
      </trkpt>
      <trkpt lat="49.30435" lon="-1.3844">
        <ele>7</ele>
        <time>2022-07-30T08:41:37+02:00</time>
      </trkpt>
      <trkpt lat="49.3044" lon="-1.38402">
        <ele>7</ele>
        <time>2022-07-30T08:41:37+02:00</time>
      </trkpt>
      <trkpt lat="49.30443" lon="-1.38364">
        <ele>8</ele>
        <time>2022-07-30T08:41:37+02:00</time>
      </trkpt>
      <trkpt lat="49.30447" lon="-1.38322">
        <ele>8</ele>
        <time>2022-07-30T08:41:37+02:00</time>
      </trkpt>
      <trkpt lat="49.3045" lon="-1.38286">
        <ele>9</ele>
        <time>2022-07-30T08:41:37+02:00</time>
      </trkpt>
      <trkpt lat="49.30452" lon="-1.38248">
        <ele>7</ele>
        <time>2022-07-30T08:41:37+02:00</time>
      </trkpt>
      <trkpt lat="49.30456" lon="-1.38212">
        <ele>7</ele>
        <time>2022-07-30T08:41:37+02:00</time>
      </trkpt>
      <trkpt lat="49.30461" lon="-1.38175">
        <ele>6</ele>
        <time>2022-07-30T08:41:37+02:00</time>
      </trkpt>
      <trkpt lat="49.30463" lon="-1.38137">
        <ele>5</ele>
        <time>2022-07-30T08:41:37+02:00</time>
      </trkpt>
      <trkpt lat="49.30468" lon="-1.38099">
        <ele>7</ele>
        <time>2022-07-30T08:41:37+02:00</time>
      </trkpt>
      <trkpt lat="49.30473" lon="-1.38063">
        <ele>7</ele>
        <time>2022-07-30T08:41:37+02:00</time>
      </trkpt>
      <trkpt lat="49.30477" lon="-1.38027">
        <ele>7</ele>
        <time>2022-07-30T08:41:37+02:00</time>
      </trkpt>
      <trkpt lat="49.30482" lon="-1.37991">
        <ele>7</ele>
        <time>2022-07-30T08:41:37+02:00</time>
      </trkpt>
      <trkpt lat="49.30485" lon="-1.37954">
        <ele>7</ele>
        <time>2022-07-30T08:41:37+02:00</time>
      </trkpt>
      <trkpt lat="49.30488" lon="-1.37919">
        <ele>9</ele>
        <time>2022-07-30T08:41:37+02:00</time>
      </trkpt>
      <trkpt lat="49.3049" lon="-1.37884">
        <ele>10</ele>
        <time>2022-07-30T08:41:37+02:00</time>
      </trkpt>
      <trkpt lat="49.30493" lon="-1.37847">
        <ele>10</ele>
        <time>2022-07-30T08:41:37+02:00</time>
      </trkpt>
      <trkpt lat="49.30495" lon="-1.37808">
        <ele>10</ele>
        <time>2022-07-30T08:41:37+02:00</time>
      </trkpt>
      <trkpt lat="49.305" lon="-1.37772">
        <ele>11</ele>
        <time>2022-07-30T08:41:37+02:00</time>
      </trkpt>
      <trkpt lat="49.30505" lon="-1.37735">
        <ele>9</ele>
        <time>2022-07-30T08:41:37+02:00</time>
      </trkpt>
      <trkpt lat="49.3051" lon="-1.37701">
        <ele>10</ele>
        <time>2022-07-30T08:41:37+02:00</time>
      </trkpt>
      <trkpt lat="49.30512" lon="-1.37663">
        <ele>11</ele>
        <time>2022-07-30T08:41:37+02:00</time>
      </trkpt>
      <trkpt lat="49.30517" lon="-1.37629">
        <ele>10</ele>
        <time>2022-07-30T08:41:37+02:00</time>
      </trkpt>
      <trkpt lat="49.30519" lon="-1.37591">
        <ele>9</ele>
        <time>2022-07-30T08:41:37+02:00</time>
      </trkpt>
      <trkpt lat="49.30523" lon="-1.37557">
        <ele>9</ele>
        <time>2022-07-30T08:41:37+02:00</time>
      </trkpt>
      <trkpt lat="49.30527" lon="-1.37522">
        <ele>5</ele>
        <time>2022-07-30T08:41:37+02:00</time>
      </trkpt>
      <trkpt lat="49.30531" lon="-1.37487">
        <ele>6</ele>
        <time>2022-07-30T08:41:37+02:00</time>
      </trkpt>
      <trkpt lat="49.30537" lon="-1.3745">
        <ele>8</ele>
        <time>2022-07-30T08:41:37+02:00</time>
      </trkpt>
      <trkpt lat="49.30553" lon="-1.37422">
        <ele>8</ele>
        <time>2022-07-30T08:41:37+02:00</time>
      </trkpt>
      <trkpt lat="49.30566" lon="-1.37393">
        <ele>7</ele>
        <time>2022-07-30T08:41:37+02:00</time>
      </trkpt>
      <trkpt lat="49.30565" lon="-1.37356">
        <ele>7</ele>
        <time>2022-07-30T08:41:37+02:00</time>
      </trkpt>
      <trkpt lat="49.30569" lon="-1.37318">
        <ele>6</ele>
        <time>2022-07-30T08:41:37+02:00</time>
      </trkpt>
      <trkpt lat="49.30572" lon="-1.37282">
        <ele>6</ele>
        <time>2022-07-30T08:41:37+02:00</time>
      </trkpt>
      <trkpt lat="49.30575" lon="-1.37246">
        <ele>6</ele>
        <time>2022-07-30T08:41:37+02:00</time>
      </trkpt>
      <trkpt lat="49.30584" lon="-1.37213">
        <ele>6</ele>
        <time>2022-07-30T08:41:37+02:00</time>
      </trkpt>
      <trkpt lat="49.30606" lon="-1.37192">
        <ele>6</ele>
        <time>2022-07-30T08:41:37+02:00</time>
      </trkpt>
      <trkpt lat="49.30627" lon="-1.37173">
        <ele>6</ele>
        <time>2022-07-30T08:41:37+02:00</time>
      </trkpt>
      <trkpt lat="49.30647" lon="-1.37155">
        <ele>7</ele>
        <time>2022-07-30T08:41:37+02:00</time>
      </trkpt>
      <trkpt lat="49.30667" lon="-1.37137">
        <ele>6</ele>
        <time>2022-07-30T08:41:37+02:00</time>
      </trkpt>
      <trkpt lat="49.30686" lon="-1.37118">
        <ele>6</ele>
        <time>2022-07-30T08:41:37+02:00</time>
      </trkpt>
      <trkpt lat="49.30707" lon="-1.37099">
        <ele>8</ele>
        <time>2022-07-30T08:41:37+02:00</time>
      </trkpt>
      <trkpt lat="49.30726" lon="-1.37071">
        <ele>7</ele>
        <time>2022-07-30T08:41:37+02:00</time>
      </trkpt>
      <trkpt lat="49.30729" lon="-1.37036">
        <ele>8</ele>
        <time>2022-07-30T08:41:37+02:00</time>
      </trkpt>
      <trkpt lat="49.30719" lon="-1.37004">
        <ele>10</ele>
        <time>2022-07-30T08:41:37+02:00</time>
      </trkpt>
      <trkpt lat="49.30703" lon="-1.36977">
        <ele>11</ele>
        <time>2022-07-30T08:41:37+02:00</time>
      </trkpt>
      <trkpt lat="49.30686" lon="-1.36949">
        <ele>11</ele>
        <time>2022-07-30T08:41:37+02:00</time>
      </trkpt>
      <trkpt lat="49.30667" lon="-1.36921">
        <ele>11</ele>
        <time>2022-07-30T08:41:37+02:00</time>
      </trkpt>
      <trkpt lat="49.3065" lon="-1.36896">
        <ele>9</ele>
        <time>2022-07-30T08:41:37+02:00</time>
      </trkpt>
      <trkpt lat="49.30635" lon="-1.36862">
        <ele>10</ele>
        <time>2022-07-30T08:41:37+02:00</time>
      </trkpt>
      <trkpt lat="49.30641" lon="-1.36824">
        <ele>11</ele>
        <time>2022-07-30T08:41:37+02:00</time>
      </trkpt>
      <trkpt lat="49.30648" lon="-1.36787">
        <ele>11</ele>
        <time>2022-07-30T08:41:37+02:00</time>
      </trkpt>
      <trkpt lat="49.30655" lon="-1.3675">
        <ele>11</ele>
        <time>2022-07-30T08:41:37+02:00</time>
      </trkpt>
      <trkpt lat="49.30662" lon="-1.36717">
        <ele>12</ele>
        <time>2022-07-30T08:41:37+02:00</time>
      </trkpt>
      <trkpt lat="49.30669" lon="-1.36684">
        <ele>12</ele>
        <time>2022-07-30T08:41:37+02:00</time>
      </trkpt>
      <trkpt lat="49.30674" lon="-1.36647">
        <ele>13</ele>
        <time>2022-07-30T08:41:37+02:00</time>
      </trkpt>
      <trkpt lat="49.30671" lon="-1.36607">
        <ele>13</ele>
        <time>2022-07-30T08:41:37+02:00</time>
      </trkpt>
      <trkpt lat="49.30668" lon="-1.36568">
        <ele>13</ele>
        <time>2022-07-30T08:41:37+02:00</time>
      </trkpt>
      <trkpt lat="49.30674" lon="-1.36534">
        <ele>13</ele>
        <time>2022-07-30T08:41:37+02:00</time>
      </trkpt>
      <trkpt lat="49.3068" lon="-1.36498">
        <ele>14</ele>
        <time>2022-07-30T08:41:37+02:00</time>
      </trkpt>
      <trkpt lat="49.30675" lon="-1.3646">
        <ele>13</ele>
        <time>2022-07-30T08:41:37+02:00</time>
      </trkpt>
      <trkpt lat="49.30656" lon="-1.36431">
        <ele>12</ele>
        <time>2022-07-30T08:41:37+02:00</time>
      </trkpt>
      <trkpt lat="49.30637" lon="-1.3641">
        <ele>11</ele>
        <time>2022-07-30T08:41:37+02:00</time>
      </trkpt>
      <trkpt lat="49.30618" lon="-1.36385">
        <ele>11</ele>
        <time>2022-07-30T08:41:37+02:00</time>
      </trkpt>
      <trkpt lat="49.30597" lon="-1.36361">
        <ele>9</ele>
        <time>2022-07-30T08:41:37+02:00</time>
      </trkpt>
      <trkpt lat="49.3058" lon="-1.36327">
        <ele>9</ele>
        <time>2022-07-30T08:41:37+02:00</time>
      </trkpt>
      <trkpt lat="49.30576" lon="-1.3629">
        <ele>8</ele>
        <time>2022-07-30T08:41:37+02:00</time>
      </trkpt>
      <trkpt lat="49.30573" lon="-1.36255">
        <ele>7</ele>
        <time>2022-07-30T08:41:37+02:00</time>
      </trkpt>
      <trkpt lat="49.30567" lon="-1.36219">
        <ele>6</ele>
        <time>2022-07-30T08:41:37+02:00</time>
      </trkpt>
      <trkpt lat="49.30557" lon="-1.36186">
        <ele>7</ele>
        <time>2022-07-30T08:41:37+02:00</time>
      </trkpt>
      <trkpt lat="49.30551" lon="-1.3615">
        <ele>6</ele>
        <time>2022-07-30T08:41:37+02:00</time>
      </trkpt>
      <trkpt lat="49.30547" lon="-1.36113">
        <ele>5</ele>
        <time>2022-07-30T08:41:37+02:00</time>
      </trkpt>
      <trkpt lat="49.30543" lon="-1.36075">
        <ele>5</ele>
        <time>2022-07-30T08:41:37+02:00</time>
      </trkpt>
      <trkpt lat="49.30539" lon="-1.36035">
        <ele>5</ele>
        <time>2022-07-30T08:41:37+02:00</time>
      </trkpt>
      <trkpt lat="49.30533" lon="-1.35997">
        <ele>5</ele>
        <time>2022-07-30T08:41:37+02:00</time>
      </trkpt>
      <trkpt lat="49.30529" lon="-1.3596">
        <ele>5</ele>
        <time>2022-07-30T08:41:37+02:00</time>
      </trkpt>
      <trkpt lat="49.30525" lon="-1.35923">
        <ele>5</ele>
        <time>2022-07-30T08:41:37+02:00</time>
      </trkpt>
      <trkpt lat="49.30521" lon="-1.35887">
        <ele>5</ele>
        <time>2022-07-30T08:41:37+02:00</time>
      </trkpt>
      <trkpt lat="49.30514" lon="-1.35851">
        <ele>4</ele>
        <time>2022-07-30T08:41:37+02:00</time>
      </trkpt>
      <trkpt lat="49.3051" lon="-1.35815">
        <ele>5</ele>
        <time>2022-07-30T08:41:37+02:00</time>
      </trkpt>
      <trkpt lat="49.30505" lon="-1.3578">
        <ele>4</ele>
        <time>2022-07-30T08:41:37+02:00</time>
      </trkpt>
      <trkpt lat="49.30501" lon="-1.35745">
        <ele>5</ele>
        <time>2022-07-30T08:41:37+02:00</time>
      </trkpt>
      <trkpt lat="49.30496" lon="-1.3571">
        <ele>5</ele>
        <time>2022-07-30T08:41:37+02:00</time>
      </trkpt>
      <trkpt lat="49.30489" lon="-1.35676">
        <ele>5</ele>
        <time>2022-07-30T08:41:37+02:00</time>
      </trkpt>
      <trkpt lat="49.30485" lon="-1.35638">
        <ele>4</ele>
        <time>2022-07-30T08:41:37+02:00</time>
      </trkpt>
      <trkpt lat="49.30482" lon="-1.35599">
        <ele>4</ele>
        <time>2022-07-30T08:41:37+02:00</time>
      </trkpt>
      <trkpt lat="49.30479" lon="-1.35562">
        <ele>4</ele>
        <time>2022-07-30T08:41:37+02:00</time>
      </trkpt>
      <trkpt lat="49.30472" lon="-1.35522">
        <ele>4</ele>
        <time>2022-07-30T08:41:37+02:00</time>
      </trkpt>
      <trkpt lat="49.30467" lon="-1.35484">
        <ele>4</ele>
        <time>2022-07-30T08:41:37+02:00</time>
      </trkpt>
      <trkpt lat="49.30463" lon="-1.3545">
        <ele>4</ele>
        <time>2022-07-30T08:41:37+02:00</time>
      </trkpt>
      <trkpt lat="49.30459" lon="-1.35412">
        <ele>4</ele>
        <time>2022-07-30T08:41:37+02:00</time>
      </trkpt>
      <trkpt lat="49.30455" lon="-1.35374">
        <ele>5</ele>
        <time>2022-07-30T08:41:37+02:00</time>
      </trkpt>
      <trkpt lat="49.30449" lon="-1.35338">
        <ele>5</ele>
        <time>2022-07-30T08:41:37+02:00</time>
      </trkpt>
      <trkpt lat="49.30445" lon="-1.35301">
        <ele>5</ele>
        <time>2022-07-30T08:41:37+02:00</time>
      </trkpt>
      <trkpt lat="49.30441" lon="-1.35265">
        <ele>4</ele>
        <time>2022-07-30T08:41:37+02:00</time>
      </trkpt>
      <trkpt lat="49.30435" lon="-1.35225">
        <ele>4</ele>
        <time>2022-07-30T08:41:37+02:00</time>
      </trkpt>
      <trkpt lat="49.30431" lon="-1.35185">
        <ele>4</ele>
        <time>2022-07-30T08:41:37+02:00</time>
      </trkpt>
      <trkpt lat="49.30429" lon="-1.35149">
        <ele>4</ele>
        <time>2022-07-30T08:41:37+02:00</time>
      </trkpt>
      <trkpt lat="49.30427" lon="-1.35108">
        <ele>4</ele>
        <time>2022-07-30T08:41:37+02:00</time>
      </trkpt>
      <trkpt lat="49.30424" lon="-1.35069">
        <ele>4</ele>
        <time>2022-07-30T08:41:37+02:00</time>
      </trkpt>
      <trkpt lat="49.30423" lon="-1.35029">
        <ele>5</ele>
        <time>2022-07-30T08:41:37+02:00</time>
      </trkpt>
      <trkpt lat="49.30423" lon="-1.34992">
        <ele>5</ele>
        <time>2022-07-30T08:41:37+02:00</time>
      </trkpt>
      <trkpt lat="49.30422" lon="-1.34955">
        <ele>6</ele>
        <time>2022-07-30T08:41:37+02:00</time>
      </trkpt>
      <trkpt lat="49.30423" lon="-1.34915">
        <ele>5</ele>
        <time>2022-07-30T08:41:37+02:00</time>
      </trkpt>
      <trkpt lat="49.30423" lon="-1.3488">
        <ele>5</ele>
        <time>2022-07-30T08:41:37+02:00</time>
      </trkpt>
      <trkpt lat="49.30424" lon="-1.3484">
        <ele>6</ele>
        <time>2022-07-30T08:41:37+02:00</time>
      </trkpt>
      <trkpt lat="49.30424" lon="-1.34804">
        <ele>6</ele>
        <time>2022-07-30T08:41:37+02:00</time>
      </trkpt>
      <trkpt lat="49.30425" lon="-1.34767">
        <ele>5</ele>
        <time>2022-07-30T08:41:37+02:00</time>
      </trkpt>
      <trkpt lat="49.30424" lon="-1.34726">
        <ele>6</ele>
        <time>2022-07-30T08:41:37+02:00</time>
      </trkpt>
      <trkpt lat="49.30424" lon="-1.34691">
        <ele>7</ele>
        <time>2022-07-30T08:41:37+02:00</time>
      </trkpt>
      <trkpt lat="49.30423" lon="-1.34656">
        <ele>7</ele>
        <time>2022-07-30T08:41:37+02:00</time>
      </trkpt>
      <trkpt lat="49.30423" lon="-1.34617">
        <ele>8</ele>
        <time>2022-07-30T08:41:37+02:00</time>
      </trkpt>
      <trkpt lat="49.30422" lon="-1.34582">
        <ele>8</ele>
        <time>2022-07-30T08:41:37+02:00</time>
      </trkpt>
      <trkpt lat="49.30422" lon="-1.34545">
        <ele>9</ele>
        <time>2022-07-30T08:41:37+02:00</time>
      </trkpt>
      <trkpt lat="49.3042" lon="-1.34505">
        <ele>10</ele>
        <time>2022-07-30T08:41:37+02:00</time>
      </trkpt>
      <trkpt lat="49.3042" lon="-1.34465">
        <ele>10</ele>
        <time>2022-07-30T08:41:37+02:00</time>
      </trkpt>
      <trkpt lat="49.3042" lon="-1.34429">
        <ele>11</ele>
        <time>2022-07-30T08:41:37+02:00</time>
      </trkpt>
      <trkpt lat="49.3042" lon="-1.34392">
        <ele>12</ele>
        <time>2022-07-30T08:41:37+02:00</time>
      </trkpt>
      <trkpt lat="49.30422" lon="-1.34353">
        <ele>12</ele>
        <time>2022-07-30T08:41:37+02:00</time>
      </trkpt>
      <trkpt lat="49.30421" lon="-1.34316">
        <ele>13</ele>
        <time>2022-07-30T08:41:37+02:00</time>
      </trkpt>
      <trkpt lat="49.30422" lon="-1.3428">
        <ele>13</ele>
        <time>2022-07-30T08:41:37+02:00</time>
      </trkpt>
      <trkpt lat="49.30422" lon="-1.34244">
        <ele>13</ele>
        <time>2022-07-30T08:41:37+02:00</time>
      </trkpt>
      <trkpt lat="49.30422" lon="-1.34207">
        <ele>13</ele>
        <time>2022-07-30T08:41:37+02:00</time>
      </trkpt>
      <trkpt lat="49.30421" lon="-1.34172">
        <ele>12</ele>
        <time>2022-07-30T08:41:37+02:00</time>
      </trkpt>
      <trkpt lat="49.30423" lon="-1.34134">
        <ele>12</ele>
        <time>2022-07-30T08:41:37+02:00</time>
      </trkpt>
      <trkpt lat="49.30423" lon="-1.34099">
        <ele>10</ele>
        <time>2022-07-30T08:41:37+02:00</time>
      </trkpt>
      <trkpt lat="49.30421" lon="-1.34064">
        <ele>11</ele>
        <time>2022-07-30T08:41:37+02:00</time>
      </trkpt>
      <trkpt lat="49.3042" lon="-1.34028">
        <ele>10</ele>
        <time>2022-07-30T08:41:37+02:00</time>
      </trkpt>
      <trkpt lat="49.30419" lon="-1.33991">
        <ele>8</ele>
        <time>2022-07-30T08:41:37+02:00</time>
      </trkpt>
      <trkpt lat="49.30417" lon="-1.33956">
        <ele>8</ele>
        <time>2022-07-30T08:41:37+02:00</time>
      </trkpt>
      <trkpt lat="49.30415" lon="-1.33917">
        <ele>8</ele>
        <time>2022-07-30T08:41:37+02:00</time>
      </trkpt>
      <trkpt lat="49.30413" lon="-1.33878">
        <ele>7</ele>
        <time>2022-07-30T08:41:37+02:00</time>
      </trkpt>
      <trkpt lat="49.30409" lon="-1.33844">
        <ele>7</ele>
        <time>2022-07-30T08:41:37+02:00</time>
      </trkpt>
      <trkpt lat="49.30407" lon="-1.33808">
        <ele>6</ele>
        <time>2022-07-30T08:41:37+02:00</time>
      </trkpt>
      <trkpt lat="49.30405" lon="-1.33772">
        <ele>6</ele>
        <time>2022-07-30T08:41:37+02:00</time>
      </trkpt>
      <trkpt lat="49.30403" lon="-1.33736">
        <ele>6</ele>
        <time>2022-07-30T08:41:37+02:00</time>
      </trkpt>
      <trkpt lat="49.304" lon="-1.33699">
        <ele>7</ele>
        <time>2022-07-30T08:41:37+02:00</time>
      </trkpt>
      <trkpt lat="49.30398" lon="-1.33661">
        <ele>7</ele>
        <time>2022-07-30T08:41:37+02:00</time>
      </trkpt>
      <trkpt lat="49.30395" lon="-1.33623">
        <ele>8</ele>
        <time>2022-07-30T08:41:37+02:00</time>
      </trkpt>
      <trkpt lat="49.30393" lon="-1.33584">
        <ele>8</ele>
        <time>2022-07-30T08:41:37+02:00</time>
      </trkpt>
      <trkpt lat="49.3039" lon="-1.33547">
        <ele>8</ele>
        <time>2022-07-30T08:41:37+02:00</time>
      </trkpt>
      <trkpt lat="49.30388" lon="-1.33512">
        <ele>7</ele>
        <time>2022-07-30T08:41:37+02:00</time>
      </trkpt>
      <trkpt lat="49.30387" lon="-1.33475">
        <ele>5</ele>
        <time>2022-07-30T08:41:37+02:00</time>
      </trkpt>
      <trkpt lat="49.30386" lon="-1.33434">
        <ele>5</ele>
        <time>2022-07-30T08:41:37+02:00</time>
      </trkpt>
      <trkpt lat="49.30383" lon="-1.33398">
        <ele>4</ele>
        <time>2022-07-30T08:41:37+02:00</time>
      </trkpt>
      <trkpt lat="49.3038" lon="-1.33357">
        <ele>4</ele>
        <time>2022-07-30T08:41:37+02:00</time>
      </trkpt>
      <trkpt lat="49.30378" lon="-1.3332">
        <ele>4</ele>
        <time>2022-07-30T08:41:37+02:00</time>
      </trkpt>
      <trkpt lat="49.30375" lon="-1.33279">
        <ele>3</ele>
        <time>2022-07-30T08:41:37+02:00</time>
      </trkpt>
      <trkpt lat="49.30373" lon="-1.33241">
        <ele>4</ele>
        <time>2022-07-30T08:41:37+02:00</time>
      </trkpt>
      <trkpt lat="49.3037" lon="-1.33205">
        <ele>4</ele>
        <time>2022-07-30T08:41:37+02:00</time>
      </trkpt>
      <trkpt lat="49.30367" lon="-1.33165">
        <ele>4</ele>
        <time>2022-07-30T08:41:37+02:00</time>
      </trkpt>
      <trkpt lat="49.30365" lon="-1.3313">
        <ele>4</ele>
        <time>2022-07-30T08:41:37+02:00</time>
      </trkpt>
      <trkpt lat="49.30363" lon="-1.33093">
        <ele>5</ele>
        <time>2022-07-30T08:41:37+02:00</time>
      </trkpt>
      <trkpt lat="49.30361" lon="-1.33058">
        <ele>5</ele>
        <time>2022-07-30T08:41:37+02:00</time>
      </trkpt>
      <trkpt lat="49.30359" lon="-1.33022">
        <ele>5</ele>
        <time>2022-07-30T08:41:37+02:00</time>
      </trkpt>
      <trkpt lat="49.30356" lon="-1.32987">
        <ele>4</ele>
        <time>2022-07-30T08:41:37+02:00</time>
      </trkpt>
      <trkpt lat="49.30354" lon="-1.32952">
        <ele>4</ele>
        <time>2022-07-30T08:41:37+02:00</time>
      </trkpt>
      <trkpt lat="49.30352" lon="-1.32911">
        <ele>5</ele>
        <time>2022-07-30T08:41:37+02:00</time>
      </trkpt>
      <trkpt lat="49.30351" lon="-1.32872">
        <ele>6</ele>
        <time>2022-07-30T08:41:37+02:00</time>
      </trkpt>
      <trkpt lat="49.30346" lon="-1.32833">
        <ele>6</ele>
        <time>2022-07-30T08:41:37+02:00</time>
      </trkpt>
      <trkpt lat="49.30343" lon="-1.32793">
        <ele>5</ele>
        <time>2022-07-30T08:41:37+02:00</time>
      </trkpt>
      <trkpt lat="49.30341" lon="-1.32758">
        <ele>5</ele>
        <time>2022-07-30T08:41:37+02:00</time>
      </trkpt>
      <trkpt lat="49.30339" lon="-1.32722">
        <ele>5</ele>
        <time>2022-07-30T08:41:37+02:00</time>
      </trkpt>
      <trkpt lat="49.30336" lon="-1.32687">
        <ele>5</ele>
        <time>2022-07-30T08:41:37+02:00</time>
      </trkpt>
      <trkpt lat="49.30335" lon="-1.32651">
        <ele>6</ele>
        <time>2022-07-30T08:41:37+02:00</time>
      </trkpt>
      <trkpt lat="49.30332" lon="-1.32615">
        <ele>7</ele>
        <time>2022-07-30T08:41:37+02:00</time>
      </trkpt>
      <trkpt lat="49.3033" lon="-1.3258">
        <ele>7</ele>
        <time>2022-07-30T08:41:37+02:00</time>
      </trkpt>
      <trkpt lat="49.30329" lon="-1.3254">
        <ele>8</ele>
        <time>2022-07-30T08:41:37+02:00</time>
      </trkpt>
      <trkpt lat="49.30326" lon="-1.32505">
        <ele>8</ele>
        <time>2022-07-30T08:41:37+02:00</time>
      </trkpt>
      <trkpt lat="49.30323" lon="-1.32467">
        <ele>9</ele>
        <time>2022-07-30T08:41:37+02:00</time>
      </trkpt>
      <trkpt lat="49.30321" lon="-1.32428">
        <ele>9</ele>
        <time>2022-07-30T08:41:37+02:00</time>
      </trkpt>
      <trkpt lat="49.3032" lon="-1.32391">
        <ele>10</ele>
        <time>2022-07-30T08:41:37+02:00</time>
      </trkpt>
      <trkpt lat="49.30317" lon="-1.32354">
        <ele>11</ele>
        <time>2022-07-30T08:41:37+02:00</time>
      </trkpt>
      <trkpt lat="49.30314" lon="-1.32316">
        <ele>11</ele>
        <time>2022-07-30T08:41:37+02:00</time>
      </trkpt>
      <trkpt lat="49.30312" lon="-1.32279">
        <ele>11</ele>
        <time>2022-07-30T08:41:37+02:00</time>
      </trkpt>
      <trkpt lat="49.3031" lon="-1.32242">
        <ele>11</ele>
        <time>2022-07-30T08:41:37+02:00</time>
      </trkpt>
      <trkpt lat="49.30308" lon="-1.32207">
        <ele>10</ele>
        <time>2022-07-30T08:41:37+02:00</time>
      </trkpt>
      <trkpt lat="49.30306" lon="-1.32166">
        <ele>11</ele>
        <time>2022-07-30T08:41:37+02:00</time>
      </trkpt>
      <trkpt lat="49.30303" lon="-1.32127">
        <ele>11</ele>
        <time>2022-07-30T08:41:37+02:00</time>
      </trkpt>
      <trkpt lat="49.303" lon="-1.32085">
        <ele>10</ele>
        <time>2022-07-30T08:41:37+02:00</time>
      </trkpt>
      <trkpt lat="49.30297" lon="-1.32046">
        <ele>11</ele>
        <time>2022-07-30T08:41:37+02:00</time>
      </trkpt>
      <trkpt lat="49.30294" lon="-1.32008">
        <ele>11</ele>
        <time>2022-07-30T08:41:37+02:00</time>
      </trkpt>
      <trkpt lat="49.30292" lon="-1.31968">
        <ele>11</ele>
        <time>2022-07-30T08:41:37+02:00</time>
      </trkpt>
      <trkpt lat="49.30291" lon="-1.3193">
        <ele>11</ele>
        <time>2022-07-30T08:41:37+02:00</time>
      </trkpt>
      <trkpt lat="49.30289" lon="-1.31891">
        <ele>12</ele>
        <time>2022-07-30T08:41:37+02:00</time>
      </trkpt>
      <trkpt lat="49.30288" lon="-1.31856">
        <ele>11</ele>
        <time>2022-07-30T08:41:37+02:00</time>
      </trkpt>
      <trkpt lat="49.30284" lon="-1.3182">
        <ele>12</ele>
        <time>2022-07-30T08:41:37+02:00</time>
      </trkpt>
      <trkpt lat="49.3028" lon="-1.31786">
        <ele>13</ele>
        <time>2022-07-30T08:41:37+02:00</time>
      </trkpt>
      <trkpt lat="49.30277" lon="-1.31751">
        <ele>13</ele>
        <time>2022-07-30T08:41:37+02:00</time>
      </trkpt>
      <trkpt lat="49.30278" lon="-1.31715">
        <ele>13</ele>
        <time>2022-07-30T08:41:37+02:00</time>
      </trkpt>
      <trkpt lat="49.30274" lon="-1.31677">
        <ele>14</ele>
        <time>2022-07-30T08:41:37+02:00</time>
      </trkpt>
      <trkpt lat="49.30272" lon="-1.31638">
        <ele>14</ele>
        <time>2022-07-30T08:41:37+02:00</time>
      </trkpt>
      <trkpt lat="49.30269" lon="-1.31604">
        <ele>14</ele>
        <time>2022-07-30T08:41:37+02:00</time>
      </trkpt>
      <trkpt lat="49.30267" lon="-1.31564">
        <ele>14</ele>
        <time>2022-07-30T08:41:37+02:00</time>
      </trkpt>
      <trkpt lat="49.30264" lon="-1.31523">
        <ele>15</ele>
        <time>2022-07-30T08:41:37+02:00</time>
      </trkpt>
      <trkpt lat="49.30261" lon="-1.31487">
        <ele>14</ele>
        <time>2022-07-30T08:41:37+02:00</time>
      </trkpt>
      <trkpt lat="49.30258" lon="-1.31452">
        <ele>15</ele>
        <time>2022-07-30T08:41:37+02:00</time>
      </trkpt>
      <trkpt lat="49.30255" lon="-1.31411">
        <ele>16</ele>
        <time>2022-07-30T08:41:37+02:00</time>
      </trkpt>
      <trkpt lat="49.30252" lon="-1.31373">
        <ele>15</ele>
        <time>2022-07-30T08:41:37+02:00</time>
      </trkpt>
      <trkpt lat="49.30251" lon="-1.31335">
        <ele>16</ele>
        <time>2022-07-30T08:41:37+02:00</time>
      </trkpt>
      <trkpt lat="49.3025" lon="-1.31294">
        <ele>16</ele>
        <time>2022-07-30T08:41:37+02:00</time>
      </trkpt>
      <trkpt lat="49.30247" lon="-1.31257">
        <ele>15</ele>
        <time>2022-07-30T08:41:37+02:00</time>
      </trkpt>
      <trkpt lat="49.30244" lon="-1.31222">
        <ele>16</ele>
        <time>2022-07-30T08:41:37+02:00</time>
      </trkpt>
      <trkpt lat="49.30243" lon="-1.31181">
        <ele>16</ele>
        <time>2022-07-30T08:41:37+02:00</time>
      </trkpt>
      <trkpt lat="49.30241" lon="-1.31145">
        <ele>16</ele>
        <time>2022-07-30T08:41:37+02:00</time>
      </trkpt>
      <trkpt lat="49.30239" lon="-1.31106">
        <ele>17</ele>
        <time>2022-07-30T08:41:37+02:00</time>
      </trkpt>
      <trkpt lat="49.30237" lon="-1.31067">
        <ele>16</ele>
        <time>2022-07-30T08:41:37+02:00</time>
      </trkpt>
      <trkpt lat="49.30235" lon="-1.31026">
        <ele>17</ele>
        <time>2022-07-30T08:41:37+02:00</time>
      </trkpt>
      <trkpt lat="49.30234" lon="-1.30988">
        <ele>16</ele>
        <time>2022-07-30T08:41:37+02:00</time>
      </trkpt>
      <trkpt lat="49.30231" lon="-1.3095">
        <ele>18</ele>
        <time>2022-07-30T08:41:37+02:00</time>
      </trkpt>
      <trkpt lat="49.30227" lon="-1.3091">
        <ele>16</ele>
        <time>2022-07-30T08:41:37+02:00</time>
      </trkpt>
      <trkpt lat="49.30225" lon="-1.30873">
        <ele>16</ele>
        <time>2022-07-30T08:41:37+02:00</time>
      </trkpt>
      <trkpt lat="49.30222" lon="-1.30833">
        <ele>15</ele>
        <time>2022-07-30T08:41:37+02:00</time>
      </trkpt>
      <trkpt lat="49.30221" lon="-1.30795">
        <ele>16</ele>
        <time>2022-07-30T08:41:37+02:00</time>
      </trkpt>
      <trkpt lat="49.30218" lon="-1.30757">
        <ele>15</ele>
        <time>2022-07-30T08:41:37+02:00</time>
      </trkpt>
      <trkpt lat="49.30218" lon="-1.30721">
        <ele>16</ele>
        <time>2022-07-30T08:41:37+02:00</time>
      </trkpt>
      <trkpt lat="49.30211" lon="-1.30685">
        <ele>15</ele>
        <time>2022-07-30T08:41:37+02:00</time>
      </trkpt>
      <trkpt lat="49.30209" lon="-1.30644">
        <ele>16</ele>
        <time>2022-07-30T08:41:37+02:00</time>
      </trkpt>
      <trkpt lat="49.30209" lon="-1.30608">
        <ele>16</ele>
        <time>2022-07-30T08:41:37+02:00</time>
      </trkpt>
      <trkpt lat="49.30206" lon="-1.3057">
        <ele>17</ele>
        <time>2022-07-30T08:41:37+02:00</time>
      </trkpt>
      <trkpt lat="49.30204" lon="-1.3053">
        <ele>17</ele>
        <time>2022-07-30T08:41:37+02:00</time>
      </trkpt>
      <trkpt lat="49.302" lon="-1.3049">
        <ele>16</ele>
        <time>2022-07-30T08:41:37+02:00</time>
      </trkpt>
      <trkpt lat="49.30196" lon="-1.3045">
        <ele>17</ele>
        <time>2022-07-30T08:41:37+02:00</time>
      </trkpt>
      <trkpt lat="49.30195" lon="-1.30411">
        <ele>17</ele>
        <time>2022-07-30T08:41:37+02:00</time>
      </trkpt>
      <trkpt lat="49.30192" lon="-1.30371">
        <ele>16</ele>
        <time>2022-07-30T08:41:37+02:00</time>
      </trkpt>
      <trkpt lat="49.3019" lon="-1.30328">
        <ele>15</ele>
        <time>2022-07-30T08:41:37+02:00</time>
      </trkpt>
      <trkpt lat="49.30188" lon="-1.30288">
        <ele>14</ele>
        <time>2022-07-30T08:41:37+02:00</time>
      </trkpt>
      <trkpt lat="49.30185" lon="-1.3025">
        <ele>12</ele>
        <time>2022-07-30T08:41:37+02:00</time>
      </trkpt>
      <trkpt lat="49.30183" lon="-1.30209">
        <ele>11</ele>
        <time>2022-07-30T08:41:37+02:00</time>
      </trkpt>
      <trkpt lat="49.3018" lon="-1.30175">
        <ele>10</ele>
        <time>2022-07-30T08:41:37+02:00</time>
      </trkpt>
      <trkpt lat="49.30177" lon="-1.30138">
        <ele>9</ele>
        <time>2022-07-30T08:41:37+02:00</time>
      </trkpt>
      <trkpt lat="49.30175" lon="-1.30099">
        <ele>9</ele>
        <time>2022-07-30T08:41:37+02:00</time>
      </trkpt>
      <trkpt lat="49.30173" lon="-1.30063">
        <ele>8</ele>
        <time>2022-07-30T08:41:37+02:00</time>
      </trkpt>
      <trkpt lat="49.30173" lon="-1.30028">
        <ele>8</ele>
        <time>2022-07-30T08:41:37+02:00</time>
      </trkpt>
      <trkpt lat="49.30169" lon="-1.29985">
        <ele>8</ele>
        <time>2022-07-30T08:41:37+02:00</time>
      </trkpt>
      <trkpt lat="49.30166" lon="-1.29941">
        <ele>8</ele>
        <time>2022-07-30T08:41:37+02:00</time>
      </trkpt>
      <trkpt lat="49.30164" lon="-1.29899">
        <ele>8</ele>
        <time>2022-07-30T08:41:37+02:00</time>
      </trkpt>
      <trkpt lat="49.30162" lon="-1.2986">
        <ele>8</ele>
        <time>2022-07-30T08:41:37+02:00</time>
      </trkpt>
      <trkpt lat="49.30161" lon="-1.29821">
        <ele>8</ele>
        <time>2022-07-30T08:41:37+02:00</time>
      </trkpt>
      <trkpt lat="49.30161" lon="-1.29782">
        <ele>8</ele>
        <time>2022-07-30T08:41:37+02:00</time>
      </trkpt>
      <trkpt lat="49.3016" lon="-1.29741">
        <ele>7</ele>
        <time>2022-07-30T08:41:37+02:00</time>
      </trkpt>
      <trkpt lat="49.30159" lon="-1.29703">
        <ele>6</ele>
        <time>2022-07-30T08:41:37+02:00</time>
      </trkpt>
      <trkpt lat="49.30158" lon="-1.29665">
        <ele>7</ele>
        <time>2022-07-30T08:41:37+02:00</time>
      </trkpt>
      <trkpt lat="49.30162" lon="-1.29627">
        <ele>6</ele>
        <time>2022-07-30T08:41:37+02:00</time>
      </trkpt>
      <trkpt lat="49.30157" lon="-1.2959">
        <ele>7</ele>
        <time>2022-07-30T08:41:37+02:00</time>
      </trkpt>
      <trkpt lat="49.30161" lon="-1.29552">
        <ele>7</ele>
        <time>2022-07-30T08:41:37+02:00</time>
      </trkpt>
      <trkpt lat="49.30162" lon="-1.29514">
        <ele>8</ele>
        <time>2022-07-30T08:41:37+02:00</time>
      </trkpt>
      <trkpt lat="49.30165" lon="-1.29476">
        <ele>8</ele>
        <time>2022-07-30T08:41:37+02:00</time>
      </trkpt>
      <trkpt lat="49.30167" lon="-1.29435">
        <ele>9</ele>
        <time>2022-07-30T08:41:37+02:00</time>
      </trkpt>
      <trkpt lat="49.3017" lon="-1.29396">
        <ele>8</ele>
        <time>2022-07-30T08:41:37+02:00</time>
      </trkpt>
      <trkpt lat="49.30172" lon="-1.29355">
        <ele>9</ele>
        <time>2022-07-30T08:41:37+02:00</time>
      </trkpt>
      <trkpt lat="49.30174" lon="-1.29319">
        <ele>9</ele>
        <time>2022-07-30T08:41:37+02:00</time>
      </trkpt>
      <trkpt lat="49.30178" lon="-1.29281">
        <ele>9</ele>
        <time>2022-07-30T08:41:37+02:00</time>
      </trkpt>
      <trkpt lat="49.3018" lon="-1.29246">
        <ele>9</ele>
        <time>2022-07-30T08:41:37+02:00</time>
      </trkpt>
      <trkpt lat="49.30183" lon="-1.29212">
        <ele>8</ele>
        <time>2022-07-30T08:41:37+02:00</time>
      </trkpt>
      <trkpt lat="49.30186" lon="-1.29174">
        <ele>8</ele>
        <time>2022-07-30T08:41:37+02:00</time>
      </trkpt>
      <trkpt lat="49.30189" lon="-1.29139">
        <ele>9</ele>
        <time>2022-07-30T08:41:37+02:00</time>
      </trkpt>
      <trkpt lat="49.30192" lon="-1.29103">
        <ele>9</ele>
        <time>2022-07-30T08:41:37+02:00</time>
      </trkpt>
      <trkpt lat="49.30195" lon="-1.29067">
        <ele>9</ele>
        <time>2022-07-30T08:41:37+02:00</time>
      </trkpt>
      <trkpt lat="49.30197" lon="-1.29033">
        <ele>9</ele>
        <time>2022-07-30T08:41:37+02:00</time>
      </trkpt>
      <trkpt lat="49.30201" lon="-1.28999">
        <ele>9</ele>
        <time>2022-07-30T08:41:37+02:00</time>
      </trkpt>
      <trkpt lat="49.30206" lon="-1.28958">
        <ele>8</ele>
        <time>2022-07-30T08:41:37+02:00</time>
      </trkpt>
      <trkpt lat="49.3021" lon="-1.28924">
        <ele>9</ele>
        <time>2022-07-30T08:41:37+02:00</time>
      </trkpt>
      <trkpt lat="49.30214" lon="-1.28889">
        <ele>10</ele>
        <time>2022-07-30T08:41:37+02:00</time>
      </trkpt>
      <trkpt lat="49.30216" lon="-1.28851">
        <ele>11</ele>
        <time>2022-07-30T08:41:37+02:00</time>
      </trkpt>
      <trkpt lat="49.30217" lon="-1.28814">
        <ele>13</ele>
        <time>2022-07-30T08:41:37+02:00</time>
      </trkpt>
      <trkpt lat="49.30221" lon="-1.28778">
        <ele>14</ele>
        <time>2022-07-30T08:41:37+02:00</time>
      </trkpt>
      <trkpt lat="49.30224" lon="-1.28741">
        <ele>16</ele>
        <time>2022-07-30T08:41:37+02:00</time>
      </trkpt>
      <trkpt lat="49.30228" lon="-1.28702">
        <ele>15</ele>
        <time>2022-07-30T08:41:37+02:00</time>
      </trkpt>
      <trkpt lat="49.3023" lon="-1.28665">
        <ele>15</ele>
        <time>2022-07-30T08:41:37+02:00</time>
      </trkpt>
      <trkpt lat="49.30234" lon="-1.28627">
        <ele>15</ele>
        <time>2022-07-30T08:41:37+02:00</time>
      </trkpt>
      <trkpt lat="49.30237" lon="-1.28591">
        <ele>14</ele>
        <time>2022-07-30T08:41:37+02:00</time>
      </trkpt>
      <trkpt lat="49.30241" lon="-1.28552">
        <ele>14</ele>
        <time>2022-07-30T08:41:37+02:00</time>
      </trkpt>
      <trkpt lat="49.30244" lon="-1.28515">
        <ele>13</ele>
        <time>2022-07-30T08:41:37+02:00</time>
      </trkpt>
      <trkpt lat="49.30247" lon="-1.28475">
        <ele>13</ele>
        <time>2022-07-30T08:41:37+02:00</time>
      </trkpt>
      <trkpt lat="49.30251" lon="-1.28436">
        <ele>12</ele>
        <time>2022-07-30T08:41:37+02:00</time>
      </trkpt>
      <trkpt lat="49.30252" lon="-1.284">
        <ele>12</ele>
        <time>2022-07-30T08:41:37+02:00</time>
      </trkpt>
      <trkpt lat="49.30258" lon="-1.28365">
        <ele>11</ele>
        <time>2022-07-30T08:41:37+02:00</time>
      </trkpt>
      <trkpt lat="49.3026" lon="-1.28328">
        <ele>11</ele>
        <time>2022-07-30T08:41:37+02:00</time>
      </trkpt>
      <trkpt lat="49.30261" lon="-1.28293">
        <ele>13</ele>
        <time>2022-07-30T08:41:37+02:00</time>
      </trkpt>
      <trkpt lat="49.30266" lon="-1.28256">
        <ele>13</ele>
        <time>2022-07-30T08:41:37+02:00</time>
      </trkpt>
      <trkpt lat="49.30269" lon="-1.28217">
        <ele>14</ele>
        <time>2022-07-30T08:41:37+02:00</time>
      </trkpt>
      <trkpt lat="49.30273" lon="-1.28179">
        <ele>14</ele>
        <time>2022-07-30T08:41:37+02:00</time>
      </trkpt>
      <trkpt lat="49.30276" lon="-1.28143">
        <ele>15</ele>
        <time>2022-07-30T08:41:37+02:00</time>
      </trkpt>
      <trkpt lat="49.30279" lon="-1.28107">
        <ele>16</ele>
        <time>2022-07-30T08:41:37+02:00</time>
      </trkpt>
      <trkpt lat="49.30281" lon="-1.2807">
        <ele>16</ele>
        <time>2022-07-30T08:41:37+02:00</time>
      </trkpt>
      <trkpt lat="49.30284" lon="-1.28035">
        <ele>16</ele>
        <time>2022-07-30T08:41:37+02:00</time>
      </trkpt>
      <trkpt lat="49.30288" lon="-1.27995">
        <ele>17</ele>
        <time>2022-07-30T08:41:37+02:00</time>
      </trkpt>
      <trkpt lat="49.30293" lon="-1.27958">
        <ele>17</ele>
        <time>2022-07-30T08:41:37+02:00</time>
      </trkpt>
      <trkpt lat="49.30296" lon="-1.27923">
        <ele>16</ele>
        <time>2022-07-30T08:41:37+02:00</time>
      </trkpt>
      <trkpt lat="49.30297" lon="-1.27883">
        <ele>16</ele>
        <time>2022-07-30T08:41:37+02:00</time>
      </trkpt>
      <trkpt lat="49.303" lon="-1.27849">
        <ele>15</ele>
        <time>2022-07-30T08:41:37+02:00</time>
      </trkpt>
      <trkpt lat="49.30304" lon="-1.27812">
        <ele>14</ele>
        <time>2022-07-30T08:41:37+02:00</time>
      </trkpt>
      <trkpt lat="49.30306" lon="-1.27776">
        <ele>13</ele>
        <time>2022-07-30T08:41:37+02:00</time>
      </trkpt>
      <trkpt lat="49.3031" lon="-1.27735">
        <ele>12</ele>
        <time>2022-07-30T08:41:37+02:00</time>
      </trkpt>
      <trkpt lat="49.30314" lon="-1.27694">
        <ele>10</ele>
        <time>2022-07-30T08:41:37+02:00</time>
      </trkpt>
      <trkpt lat="49.30316" lon="-1.2766">
        <ele>10</ele>
        <time>2022-07-30T08:41:37+02:00</time>
      </trkpt>
      <trkpt lat="49.30319" lon="-1.27624">
        <ele>10</ele>
        <time>2022-07-30T08:41:37+02:00</time>
      </trkpt>
      <trkpt lat="49.30323" lon="-1.27584">
        <ele>9</ele>
        <time>2022-07-30T08:41:37+02:00</time>
      </trkpt>
      <trkpt lat="49.30326" lon="-1.27547">
        <ele>8</ele>
        <time>2022-07-30T08:41:37+02:00</time>
      </trkpt>
      <trkpt lat="49.30329" lon="-1.2751">
        <ele>6</ele>
        <time>2022-07-30T08:41:37+02:00</time>
      </trkpt>
      <trkpt lat="49.30333" lon="-1.27471">
        <ele>6</ele>
        <time>2022-07-30T08:41:37+02:00</time>
      </trkpt>
      <trkpt lat="49.30337" lon="-1.27433">
        <ele>6</ele>
        <time>2022-07-30T08:41:37+02:00</time>
      </trkpt>
      <trkpt lat="49.3034" lon="-1.27396">
        <ele>6</ele>
        <time>2022-07-30T08:41:37+02:00</time>
      </trkpt>
      <trkpt lat="49.30342" lon="-1.2736">
        <ele>6</ele>
        <time>2022-07-30T08:41:37+02:00</time>
      </trkpt>
      <trkpt lat="49.30345" lon="-1.27322">
        <ele>6</ele>
        <time>2022-07-30T08:41:37+02:00</time>
      </trkpt>
      <trkpt lat="49.30348" lon="-1.2728">
        <ele>6</ele>
        <time>2022-07-30T08:41:37+02:00</time>
      </trkpt>
      <trkpt lat="49.30352" lon="-1.27238">
        <ele>5</ele>
        <time>2022-07-30T08:41:37+02:00</time>
      </trkpt>
      <trkpt lat="49.30355" lon="-1.27203">
        <ele>6</ele>
        <time>2022-07-30T08:41:37+02:00</time>
      </trkpt>
      <trkpt lat="49.30359" lon="-1.27161">
        <ele>5</ele>
        <time>2022-07-30T08:41:37+02:00</time>
      </trkpt>
      <trkpt lat="49.30363" lon="-1.27122">
        <ele>6</ele>
        <time>2022-07-30T08:41:37+02:00</time>
      </trkpt>
      <trkpt lat="49.30367" lon="-1.27083">
        <ele>6</ele>
        <time>2022-07-30T08:41:37+02:00</time>
      </trkpt>
      <trkpt lat="49.30369" lon="-1.27047">
        <ele>7</ele>
        <time>2022-07-30T08:41:37+02:00</time>
      </trkpt>
      <trkpt lat="49.30372" lon="-1.27009">
        <ele>7</ele>
        <time>2022-07-30T08:41:37+02:00</time>
      </trkpt>
      <trkpt lat="49.30375" lon="-1.26973">
        <ele>8</ele>
        <time>2022-07-30T08:41:37+02:00</time>
      </trkpt>
      <trkpt lat="49.30378" lon="-1.26938">
        <ele>9</ele>
        <time>2022-07-30T08:41:37+02:00</time>
      </trkpt>
      <trkpt lat="49.30382" lon="-1.26903">
        <ele>10</ele>
        <time>2022-07-30T08:41:37+02:00</time>
      </trkpt>
      <trkpt lat="49.30384" lon="-1.26864">
        <ele>11</ele>
        <time>2022-07-30T08:41:37+02:00</time>
      </trkpt>
      <trkpt lat="49.30388" lon="-1.26825">
        <ele>11</ele>
        <time>2022-07-30T08:41:37+02:00</time>
      </trkpt>
      <trkpt lat="49.30391" lon="-1.2679">
        <ele>10</ele>
        <time>2022-07-30T08:41:37+02:00</time>
      </trkpt>
      <trkpt lat="49.30396" lon="-1.26751">
        <ele>10</ele>
        <time>2022-07-30T08:41:37+02:00</time>
      </trkpt>
      <trkpt lat="49.30399" lon="-1.26712">
        <ele>10</ele>
        <time>2022-07-30T08:41:37+02:00</time>
      </trkpt>
      <trkpt lat="49.30403" lon="-1.26673">
        <ele>10</ele>
        <time>2022-07-30T08:41:37+02:00</time>
      </trkpt>
      <trkpt lat="49.30407" lon="-1.26632">
        <ele>9</ele>
        <time>2022-07-30T08:41:37+02:00</time>
      </trkpt>
      <trkpt lat="49.30411" lon="-1.26596">
        <ele>10</ele>
        <time>2022-07-30T08:41:37+02:00</time>
      </trkpt>
      <trkpt lat="49.30413" lon="-1.26558">
        <ele>9</ele>
        <time>2022-07-30T08:41:37+02:00</time>
      </trkpt>
      <trkpt lat="49.30415" lon="-1.2652">
        <ele>8</ele>
        <time>2022-07-30T08:41:37+02:00</time>
      </trkpt>
      <trkpt lat="49.3042" lon="-1.26479">
        <ele>7</ele>
        <time>2022-07-30T08:41:37+02:00</time>
      </trkpt>
      <trkpt lat="49.30423" lon="-1.26443">
        <ele>7</ele>
        <time>2022-07-30T08:41:37+02:00</time>
      </trkpt>
      <trkpt lat="49.30427" lon="-1.26405">
        <ele>7</ele>
        <time>2022-07-30T08:41:37+02:00</time>
      </trkpt>
      <trkpt lat="49.3043" lon="-1.26368">
        <ele>8</ele>
        <time>2022-07-30T08:41:37+02:00</time>
      </trkpt>
      <trkpt lat="49.30433" lon="-1.2633">
        <ele>8</ele>
        <time>2022-07-30T08:41:37+02:00</time>
      </trkpt>
      <trkpt lat="49.30436" lon="-1.26295">
        <ele>8</ele>
        <time>2022-07-30T08:41:37+02:00</time>
      </trkpt>
      <trkpt lat="49.30438" lon="-1.2626">
        <ele>9</ele>
        <time>2022-07-30T08:41:37+02:00</time>
      </trkpt>
      <trkpt lat="49.30441" lon="-1.26223">
        <ele>9</ele>
        <time>2022-07-30T08:41:37+02:00</time>
      </trkpt>
      <trkpt lat="49.30445" lon="-1.26186">
        <ele>9</ele>
        <time>2022-07-30T08:41:37+02:00</time>
      </trkpt>
      <trkpt lat="49.3045" lon="-1.26147">
        <ele>10</ele>
        <time>2022-07-30T08:41:37+02:00</time>
      </trkpt>
      <trkpt lat="49.30453" lon="-1.26112">
        <ele>10</ele>
        <time>2022-07-30T08:41:37+02:00</time>
      </trkpt>
      <trkpt lat="49.30455" lon="-1.26078">
        <ele>11</ele>
        <time>2022-07-30T08:41:37+02:00</time>
      </trkpt>
      <trkpt lat="49.30457" lon="-1.26041">
        <ele>10</ele>
        <time>2022-07-30T08:41:37+02:00</time>
      </trkpt>
      <trkpt lat="49.30459" lon="-1.26004">
        <ele>10</ele>
        <time>2022-07-30T08:41:37+02:00</time>
      </trkpt>
      <trkpt lat="49.30462" lon="-1.2597">
        <ele>10</ele>
        <time>2022-07-30T08:41:37+02:00</time>
      </trkpt>
      <trkpt lat="49.30463" lon="-1.25933">
        <ele>10</ele>
        <time>2022-07-30T08:41:37+02:00</time>
      </trkpt>
      <trkpt lat="49.30464" lon="-1.25894">
        <ele>9</ele>
        <time>2022-07-30T08:41:37+02:00</time>
      </trkpt>
      <trkpt lat="49.30463" lon="-1.25858">
        <ele>9</ele>
        <time>2022-07-30T08:41:37+02:00</time>
      </trkpt>
      <trkpt lat="49.30464" lon="-1.25823">
        <ele>9</ele>
        <time>2022-07-30T08:41:37+02:00</time>
      </trkpt>
      <trkpt lat="49.30462" lon="-1.25786">
        <ele>9</ele>
        <time>2022-07-30T08:41:37+02:00</time>
      </trkpt>
      <trkpt lat="49.30462" lon="-1.25747">
        <ele>8</ele>
        <time>2022-07-30T08:41:37+02:00</time>
      </trkpt>
      <trkpt lat="49.30461" lon="-1.25712">
        <ele>9</ele>
        <time>2022-07-30T08:41:37+02:00</time>
      </trkpt>
      <trkpt lat="49.30461" lon="-1.25673">
        <ele>9</ele>
        <time>2022-07-30T08:41:37+02:00</time>
      </trkpt>
      <trkpt lat="49.30459" lon="-1.25638">
        <ele>9</ele>
        <time>2022-07-30T08:41:37+02:00</time>
      </trkpt>
      <trkpt lat="49.30457" lon="-1.25604">
        <ele>9</ele>
        <time>2022-07-30T08:41:37+02:00</time>
      </trkpt>
      <trkpt lat="49.30453" lon="-1.25566">
        <ele>9</ele>
        <time>2022-07-30T08:41:37+02:00</time>
      </trkpt>
      <trkpt lat="49.30451" lon="-1.25529">
        <ele>9</ele>
        <time>2022-07-30T08:41:37+02:00</time>
      </trkpt>
      <trkpt lat="49.30447" lon="-1.25493">
        <ele>9</ele>
        <time>2022-07-30T08:41:37+02:00</time>
      </trkpt>
      <trkpt lat="49.30443" lon="-1.25455">
        <ele>9</ele>
        <time>2022-07-30T08:41:37+02:00</time>
      </trkpt>
      <trkpt lat="49.30438" lon="-1.25415">
        <ele>9</ele>
        <time>2022-07-30T08:41:37+02:00</time>
      </trkpt>
      <trkpt lat="49.30433" lon="-1.25381">
        <ele>10</ele>
        <time>2022-07-30T08:41:37+02:00</time>
      </trkpt>
      <trkpt lat="49.30427" lon="-1.25343">
        <ele>9</ele>
        <time>2022-07-30T08:41:37+02:00</time>
      </trkpt>
      <trkpt lat="49.3042" lon="-1.25302">
        <ele>9</ele>
        <time>2022-07-30T08:41:37+02:00</time>
      </trkpt>
      <trkpt lat="49.30413" lon="-1.25267">
        <ele>9</ele>
        <time>2022-07-30T08:41:37+02:00</time>
      </trkpt>
      <trkpt lat="49.30406" lon="-1.25234">
        <ele>9</ele>
        <time>2022-07-30T08:41:37+02:00</time>
      </trkpt>
      <trkpt lat="49.30396" lon="-1.25202">
        <ele>9</ele>
        <time>2022-07-30T08:41:37+02:00</time>
      </trkpt>
      <trkpt lat="49.30387" lon="-1.2517">
        <ele>8</ele>
        <time>2022-07-30T08:41:37+02:00</time>
      </trkpt>
      <trkpt lat="49.30379" lon="-1.25135">
        <ele>8</ele>
        <time>2022-07-30T08:41:37+02:00</time>
      </trkpt>
      <trkpt lat="49.30371" lon="-1.25101">
        <ele>9</ele>
        <time>2022-07-30T08:41:37+02:00</time>
      </trkpt>
      <trkpt lat="49.30363" lon="-1.25066">
        <ele>10</ele>
        <time>2022-07-30T08:41:37+02:00</time>
      </trkpt>
      <trkpt lat="49.30347" lon="-1.25036">
        <ele>11</ele>
        <time>2022-07-30T08:41:37+02:00</time>
      </trkpt>
      <trkpt lat="49.30327" lon="-1.25057">
        <ele>12</ele>
        <time>2022-07-30T08:41:37+02:00</time>
      </trkpt>
      <trkpt lat="49.30321" lon="-1.25094">
        <ele>13</ele>
        <time>2022-07-30T08:41:37+02:00</time>
      </trkpt>
      <trkpt lat="49.30344" lon="-1.25102">
        <ele>17</ele>
        <time>2022-07-30T08:41:37+02:00</time>
      </trkpt>
      <trkpt lat="49.30367" lon="-1.25094">
        <ele>12</ele>
        <time>2022-07-30T08:41:37+02:00</time>
      </trkpt>
      <trkpt lat="49.3039" lon="-1.25087">
        <ele>12</ele>
        <time>2022-07-30T08:41:37+02:00</time>
      </trkpt>
      <trkpt lat="49.30412" lon="-1.25075">
        <ele>12</ele>
        <time>2022-07-30T08:41:37+02:00</time>
      </trkpt>
      <trkpt lat="49.30428" lon="-1.25051">
        <ele>11</ele>
        <time>2022-07-30T08:41:37+02:00</time>
      </trkpt>
      <trkpt lat="49.30439" lon="-1.2502">
        <ele>9</ele>
        <time>2022-07-30T08:41:37+02:00</time>
      </trkpt>
      <trkpt lat="49.30424" lon="-1.24994">
        <ele>9</ele>
        <time>2022-07-30T08:41:37+02:00</time>
      </trkpt>
      <trkpt lat="49.30409" lon="-1.24963">
        <ele>9</ele>
        <time>2022-07-30T08:41:37+02:00</time>
      </trkpt>
      <trkpt lat="49.30392" lon="-1.24933">
        <ele>10</ele>
        <time>2022-07-30T08:41:37+02:00</time>
      </trkpt>
      <trkpt lat="49.30378" lon="-1.24899">
        <ele>9</ele>
        <time>2022-07-30T08:41:37+02:00</time>
      </trkpt>
      <trkpt lat="49.30362" lon="-1.24867">
        <ele>9</ele>
        <time>2022-07-30T08:41:37+02:00</time>
      </trkpt>
      <trkpt lat="49.30349" lon="-1.24837">
        <ele>9</ele>
        <time>2022-07-30T08:41:37+02:00</time>
      </trkpt>
      <trkpt lat="49.30336" lon="-1.24808">
        <ele>10</ele>
        <time>2022-07-30T08:41:37+02:00</time>
      </trkpt>
      <trkpt lat="49.30321" lon="-1.24776">
        <ele>11</ele>
        <time>2022-07-30T08:41:37+02:00</time>
      </trkpt>
      <trkpt lat="49.30307" lon="-1.24743">
        <ele>10</ele>
        <time>2022-07-30T08:41:37+02:00</time>
      </trkpt>
      <trkpt lat="49.30297" lon="-1.24711">
        <ele>10</ele>
        <time>2022-07-30T08:41:37+02:00</time>
      </trkpt>
      <trkpt lat="49.3029" lon="-1.24676">
        <ele>9</ele>
        <time>2022-07-30T08:41:37+02:00</time>
      </trkpt>
      <trkpt lat="49.30285" lon="-1.24641">
        <ele>8</ele>
        <time>2022-07-30T08:41:37+02:00</time>
      </trkpt>
      <trkpt lat="49.3028" lon="-1.24607">
        <ele>7</ele>
        <time>2022-07-30T08:41:37+02:00</time>
      </trkpt>
      <trkpt lat="49.30274" lon="-1.2457">
        <ele>8</ele>
        <time>2022-07-30T08:41:37+02:00</time>
      </trkpt>
      <trkpt lat="49.30262" lon="-1.24539">
        <ele>8</ele>
        <time>2022-07-30T08:41:37+02:00</time>
      </trkpt>
      <trkpt lat="49.30257" lon="-1.24505">
        <ele>8</ele>
        <time>2022-07-30T08:41:37+02:00</time>
      </trkpt>
    </trkseg>
  </trk>
</gpx>